     2              OBSERVATION DATA    GPS                 RINEX VERSION / TYPE
teqc 2000Jul20 Karen Wendt 20040114 20:24:28UTC             PGM / RUN BY / DATE
                                                            COMMENT
L2: 1 -> 1; 150 -> 5; 250 -> 9                              COMMENT
L2: 1 -> 1; 150 -> 5; 250 -> 9                              COMMENT
L2: 1 -> 1; 150 -> 5; 250 -> 9                              COMMENT
L2: 1 -> 1; 150 -> 5; 250 -> 9                              COMMENT
L2: 1 -> 1; 150 -> 5; 250 -> 9                              COMMENT
L2: 1 -> 1; 150 -> 5; 250 -> 9                              COMMENT
L2: 1 -> 1; 150 -> 5; 250 -> 9                              COMMENT
L2: 1 -> 1; 150 -> 5; 250 -> 9                              COMMENT
L2: 1 -> 1; 150 -> 5; 250 -> 9                              COMMENT
L2: 1 -> 1; 150 -> 5; 250 -> 9                              COMMENT
L2: 1 -> 1; 150 -> 5; 250 -> 9                              COMMENT
L2: 1 -> 1; 150 -> 5; 250 -> 9                              COMMENT
L2: 1 -> 1; 150 -> 5; 250 -> 9                              COMMENT
L2: 1 -> 1; 150 -> 5; 250 -> 9                              COMMENT
Original Marker Name: 2076 2076_stmpd_SLO-01_PM53.8_GPS-7_19COMMENT
Campaign Name: USGS San Simeon 2003-2004                    COMMENT
4-Character Station Name: 2076                              COMMENT
6-Character Antenna Code: DMRCHT                            COMMENT
Vertical Measurement Point: BCR                             COMMENT
Vertical Offset to Rinex Ref. Point: 0.0348                 COMMENT
Radial Measurement Point: ECF                               COMMENT
Radial Offset to Rinex Ref. Point: 0.1897                   COMMENT
Antenna Height from Field Measurement: 0.5850 m             COMMENT
Additional Antenna Identification Info.:                    COMMENT
Turborogue and Ashtech Choke Ring                           COMMENT
Original XYZ: -2684301.1994 -4443819.8434 3692660.9495      COMMENT
New XYZ position is based on association with SCEC monument COMMENT
E1F0L6J2+0011. Position of that monument is believed to be  COMMENT
valid to within 1 m horizontally; vertical accuracy         COMMENT
should be no worse than 3-times this value.                 COMMENT
                                                            COMMENT
Revised Rinex header created by UCSD GPS archive for        COMMENT
GSAC on 20-Apr-2005 (2005:110) 16:28:29 GMT                 COMMENT
For assistance contact dagnew@ucsd.edu                      COMMENT
or anderson@python.ucsd.edu                                 COMMENT
                                                            COMMENT
SLO 01 BM53.8 GPS7 1986                                     MARKER NAME
JLS US GEOLOGICAL SURVEY                                    OBSERVER / AGENCY
ZE120023202 ASHTECH UZ-12 ZE00                              REC # / TYPE / VERS
CR520031626 DORNE-MARGOL. TYPE T                            ANT # / TYPE
 -2684321.0000 -4443797.0000  3692656.0000                  APPROX POSITION XYZ
        0.5186        0.0000        0.0000                  ANTENNA: DELTA H/E/N
     1     1     0                                          WAVELENGTH FACT L1/2
     5    C1    L1    L2    P1    P2                        # / TYPES OF OBSERV
    30                                                      INTERVAL
  2004     1    11     0     0    0.000000                  TIME OF FIRST OBS
  2004     1    11    23    59   30.000000                  TIME OF LAST OBS
                                                            END OF HEADER
 04  1 11  0  0  0.0000000  0  7G10G24G 5G30G17G 6G21
  21009768.623   -19771420.48943 -15368456.47142  21009769.304    21009766.328
  22878667.396   -14147176.81143 -11016404.75142  22878668.140    22878665.553
  21455953.040   -21867335.77443 -17005258.03642  21455953.935    21455950.721
  20209007.706   -26419403.53544 -20481491.43042  20209009.553    20209005.150
  20785985.145   -22932819.09144 -17854332.70542  20785985.635    20785982.582
  21641154.756   -22672336.76143 -17655656.09142  21641156.192    21641152.793
  23547138.379   -11973203.17643  -9285806.16542  23547139.456    23547136.004
 04  1 11  0  0 30.0000000  0  7G10G24G 5G30G17G 6G21
  21009669.595   -19771940.85843 -15368861.94942  21009670.282    21009667.295
  22894218.573   -14065454.80643 -10952725.28442  22894219.331    22894216.775
  21470904.841   -21788763.48543 -16944032.88842  21470905.753    21470902.550
  20210401.720   -26412077.88144 -20475783.12642  20210403.566    20210399.179
  20791761.141   -22902465.96344 -17830680.91542  20791761.629    20791758.586
  21630427.748   -22728707.34143 -17699581.20742  21630429.193    21630425.817
  23531584.412   -12054939.64243  -9349496.85442  23531585.475    23531582.016
 04  1 11  0  1  0.0000000  0  7G10G24G 5G30G17G 6G21
  21009692.416   -19771821.07743 -15368768.61142  21009693.080    21009690.077
  22909782.780   -13983664.37443 -10888992.49942  22909783.550    22909780.993
  21485929.697   -21709807.26643 -16882508.57742  21485930.614    21485927.441
  20211908.526   -26404159.66744 -20469613.09042  20211910.374    20211905.962
  20797595.107   -22871808.30844 -17806791.83642  20797595.602    20797592.554
  21619725.362   -22784948.83443 -17743405.73542  21619726.784    21619723.402
  23516067.753   -12136480.12543  -9413034.82742  23516068.796    23516065.348
 04  1 11  0  1 30.0000000  0  7G10G24G 5G30G17G 6G21
  21009837.437   -19771059.14643 -15368174.89242  21009838.067    21009835.070
  22925360.050   -13901805.39743 -10825206.30242  22925360.803    22925358.234
  21501027.602   -21630467.28743 -16820685.23142  21501028.504    21501025.361
  20213528.460   -26395646.88144 -20462979.74742  20213530.298    20213525.905
  20803487.040   -22840846.01744 -17782665.37642  20803487.524    20803484.497
  21609048.050   -22841058.28943 -17787127.38042  21609049.495    21609046.120
  23500588.860   -12217822.08643  -9476418.13442  23500589.882    23500586.422
 04  1 11  0  2  0.0000000  0  7G10G24G 5G30G17G 6G21
  21010103.464   -19769661.11343 -15367085.51142  21010104.108    21010101.086
  22940948.970   -13819885.27943 -10761372.46742  22940949.734    22940947.144
  21516196.958   -21550751.68943 -16758569.19742  21516197.894    21516194.765
  20215260.352   -26386545.76344 -20455887.96842  20215262.191    20215257.772
  20809435.490   -22809586.69444 -17758307.46542  20809435.965    20809432.943
  21598394.943   -22897040.73143 -17830750.04942  21598396.382    21598393.016
  23485146.696   -12298971.03143  -9539651.03042  23485147.703    23485144.233
 04  1 11  0  2 30.0000000  0  7G10G24G 5G30G17G 6G21
  21010492.134   -19767618.69943 -15365494.01742  21010492.770    21010489.740
  22956550.735   -13737897.47743 -10697485.88842  22956551.550    22956548.945
  21531438.950   -21470654.64643 -16696155.93142  21531439.878    21531436.746
  20217105.751   -26376848.05744 -20448331.31642  20217107.596    20217103.185
  20815441.720   -22778023.74443 -17733712.96042  20815442.203    20815439.169
  21587767.789   -22952886.95043 -17874266.57642  21587769.217    21587765.817
  23469742.936   -12379918.10543  -9602726.62242  23469743.963    23469740.450
 04  1 11  0  3  0.0000000  0  7G10G24G 5G30G17G 6G21
  21011001.116   -19764943.95243 -15363409.78842  21011001.761    21010998.731
  22972162.818   -13655855.40343 -10633557.01642  22972163.666    22972161.028
  21546750.797   -21390190.36443 -16633456.50142  21546751.716    21546748.613
  20219062.397   -26366565.82644 -20440319.18842  20219064.242    20219059.842
  20821503.242   -22746170.20743 -17708892.01942  20821503.730    20821500.718
  21577164.476   -23008607.73343 -17917685.36142  21577165.929    21577162.484
  23454375.342   -12460675.22043  -9665654.20142  23454376.382    23454372.840
 04  1 11  0  3 30.0000000  0  7G10G24G 5G30G17G 6G21
  21011633.240   -19761622.03844 -15360821.27742  21011633.898    21011630.864
  22987787.859   -13573745.40543 -10569575.21942  22987788.705    22987786.040
  21562135.048   -21309345.63043 -16570460.62342  21562135.960    21562132.861
  20221133.098   -26355684.11244 -20431839.93242  20221134.956    20221130.575
  20827622.645   -22714012.56244 -17683834.11542  20827623.123    20827620.103
  21566588.086   -23064187.09943 -17960993.95242  21566589.513    21566586.057
  23439046.885   -12541226.24743  -9728421.19142  23439047.934    23439044.407
 04  1 11  0  4  0.0000000  0  7G10G24G 5G30G17G 6G21
  21012386.795   -19757662.03743 -15357735.55842  21012387.475    21012384.416
  23003423.773   -13491578.21643 -10505548.86142  23003424.639    23003421.937
  21577589.504   -21228131.97943 -16507177.27642  21577590.427    21577587.324
  20223316.175   -26344211.99344 -20422900.61942  20223318.047    20223313.647
  20833797.893   -22681561.44844 -17658547.53242  20833798.361    20833795.372
  21556037.070   -23119632.97943 -18004198.52242  21556038.524    21556035.033
  23423756.101   -12621579.75243  -9791034.26542  23423757.175    23423753.638
 04  1 11  0  4 30.0000000  0  7G10G24G 5G30G17G 6G21
  21013261.015   -19753067.90444 -15354155.70642  21013261.684    21013258.641
  23019069.620   -13409358.88343 -10441481.86542  23019070.485    23019067.765
  21593113.094   -21146555.03343 -16443610.83642  21593113.997    21593110.903
  20225610.838   -26332153.40744 -20413504.31742  20225612.715    20225608.354
  20840028.011   -22648821.91544 -17633036.20942  20840028.487    20840025.499
  21545510.986   -23174947.99343 -18047301.12142  21545512.417    21545508.915
  23408502.305   -12701738.66443  -9853495.71842  23408503.392    23408499.883
 04  1 11  0  5  0.0000000  0  7G10G24G 5G30G17G 6G21
  21014257.599   -19747830.84143 -15350074.86942  21014258.277    21014255.233
  23034726.773   -13327080.13143 -10377368.57942  23034727.651    23034724.915
  21608707.107   -21064608.09043 -16379756.09142  21608707.985    21608704.891
  20228018.851   -26319499.34744 -20403644.01242  20228020.699    20228016.344
  20846314.478   -22615786.26243 -17607294.14442  20846314.947    20846311.989
  21535011.679   -23230121.98543 -18090293.83742  21535013.135    21535009.642
  23393287.372   -12781693.40343  -9915798.05742  23393288.472    23393284.976
 04  1 11  0  5 30.0000000  0  7G10G24G 5G30G17G 6G21
  21015375.579   -19741955.73644 -15345496.85742  21015376.273    21015373.204
  23050393.966   -13244748.51943 -10313214.09342  23050394.854    23050392.100
  21624370.165   -20982298.25043 -16315618.56942  21624371.026    21624367.941
  20230539.126   -26306255.13244 -20393323.84642  20230540.987    20230536.633
  20852656.002   -22582461.35943 -17581326.69042  20852656.473    20852653.506
  21524538.514   -23285158.87643 -18133179.71642  21524539.947    21524536.458
  23378110.470   -12861448.69343  -9977945.00242  23378111.532    23378108.002
 04  1 11  0  6  0.0000000  0  7G10G24G 5G30G17G 6G21
  21016615.149   -19735441.77843 -15340421.03742  21016615.838    21016612.765
  23066071.204   -13162364.12843 -10249018.48942  23066072.086    23066069.336
  21640102.044   -20899626.84043 -16251199.30442  21640102.887    21640099.799
  20233171.886   -26292419.89444 -20382543.14242  20233173.746    20233169.371
  20859052.547   -22548847.33244 -17555133.94342  20859053.011    20859050.056
  21514091.849   -23340056.40243 -18175956.99842  21514093.273    21514089.782
  23362971.822   -12941002.59943 -10039935.01042  23362972.883    23362969.369
 04  1 11  0  6 30.0000000  0  7G10G24G 5G30G17G 6G21
  21017976.082   -19728289.96143 -15334848.18442  21017976.764    21017973.716
  23081758.181   -13079928.83243 -10184783.21242  23081759.006    23081756.280
  21655902.163   -20816596.76943 -16186500.56442  21655903.015    21655899.907
  20235917.011   -26277994.25544 -20371302.38542  20235918.859    20235914.485
  20865503.734   -22514946.09544 -17528717.39842  20865504.205    20865501.249
  21503671.857   -23394813.82843 -18218625.10642  21503673.268    21503669.788
  23347871.392   -13020355.62743 -10101768.48142  23347872.475    23347868.957
 04  1 11  0  7  0.0000000  0  7G10G24G 5G30G17G 6G21
  21019458.463   -19720499.91343 -15328778.00842  21019459.140    21019456.082
  23097454.584   -12997443.69743 -10120509.10442  23097455.416    23097452.719
  21671770.292   -20733209.25843 -16121523.30242  21671771.144    21671768.033
  20238774.552   -26262977.74844 -20359601.21142  20238776.395    20238772.044
  20872009.453   -22480758.26044 -17502077.52842  20872009.934    20872006.994
  21493278.847   -23449429.55343 -18261182.80142  21493280.254    21493276.750
  23332809.431   -13099506.30643 -10163444.30242  23332810.565    23332807.035
 04  1 11  0  7 30.0000000  0  7G10G24G 5G30G17G 6G21
  21021062.102   -19712072.56644 -15322211.23542  21021062.814    21021059.742
  23113160.099   -12914910.68343 -10056197.68142  23113160.942    23113158.253
  21687705.777   -20649467.74743 -16056270.18842  21687706.665    21687703.519
  20241744.367   -26247371.24844 -20347440.30242  20241746.224    20241741.849
  20878569.306   -22446286.01344 -17475216.04042  20878569.798    20878566.852
  21482912.844   -23503903.01343 -18303629.64142  21482914.284    21482910.773
  23317785.975   -13178454.68243 -10224962.46942  23317787.108    23317783.618
 04  1 11  0  8  0.0000000  0  7G10G24G 5G30G17G 6G21
  21022786.850   -19703008.98443 -15315148.69542  21022787.544    21022784.480
  23128874.279   -12832332.20743  -9991850.83942  23128875.119    23128872.444
  21703708.172   -20565374.77243 -15990743.20942  21703709.059    21703705.886
  20244826.210   -26231176.08644 -20334820.69842  20244828.051    20244823.694
  20885182.862   -22411531.56043 -17448134.64842  20885183.355    20885180.400
  21472574.000   -23558234.00843 -18345965.46942  21472575.418    21472571.902
  23302800.999   -13257200.86243 -10286323.07842  23302802.157    23302798.676
 04  1 11  0  8 30.0000000  0  7G10G24G 5G30G17G 6G21
  21024633.377   -19693305.43143 -15307587.47642  21024634.052    21024630.994
  23144597.652   -12749705.44943  -9927466.36642  23144598.476    23144595.840
  21719777.761   -20480928.47643 -15924940.91842  21719778.646    21719775.491
  20248020.842   -26214388.12944 -20321739.17542  20248022.677    20248018.337
  20891850.598   -22376492.34643 -17420831.36642  20891851.085    20891848.143
  21462263.307   -23612417.07743 -18388186.03342  21462264.719    21462261.202
  23287855.391   -13335740.45143 -10347522.71442  23287856.514    23287852.956
 04  1 11  0  9  0.0000000  0  7G10G24G 5G30G17G 6G21
  21026600.227   -19682969.41443 -15299533.42542  21026600.940    21026597.856
  23160328.620   -12667038.83043  -9863050.83442  23160329.436    23160326.788
  21735912.798   -20396138.26143 -15858870.63442  21735913.701    21735910.554
  20251326.861   -26197014.95844 -20308201.63942  20251328.690    20251324.343
  20898570.945   -22341176.69143 -17393312.67342  20898571.417    20898568.495
  21451979.582   -23666458.32043 -18430296.08142  21451980.986    21451977.499
  23272947.839   -13414079.81943 -10408566.33442  23272948.988    23272945.460
 04  1 11  0  9 30.0000000  0  7G10G24G 5G30G17G 6G21
  21028689.174   -19671991.86043 -15290979.48142  21028689.896    21028686.804
  23176068.642   -12584324.58343  -9798598.19542  23176069.423    23176066.790
  21752114.570   -20310997.47343 -15792527.17942  21752115.456    21752112.336
  20254745.914   -26179047.73144 -20294201.20742  20254747.728    20254743.394
  20905345.289   -22305577.24244 -17365572.84742  20905345.788    20905342.847
  21441724.814   -23720347.35343 -18472287.52342  21441726.225    21441722.742
  23258080.244   -13492209.21343 -10469446.33342  23258081.393    23258077.883
 04  1 11  0 10  0.0000000  0  7G10G24G 5G30G17G 6G21
  21030898.293   -19660382.90544 -15281933.53342  21030899.010    21030895.907
  23191815.737   -12501573.34543  -9734116.72942  23191816.511    23191813.818
  21768380.880   -20225517.41743 -15725919.35742  21768381.790    21768378.674
  20258276.098   -26160496.37544 -20279745.60342  20258277.914    20258273.597
  20912171.645   -22269704.43444 -17337620.01242  20912172.156    20912169.230
  21431497.447   -23774092.43943 -18514166.80242  21431498.855    21431495.384
  23243251.000   -13570137.41943 -10530169.57142  23243252.139    23243248.561
 04  1 11  0 10 30.0000000  0  7G10G24G 5G30G17G 6G21
  21033228.564   -19648137.30644 -15272391.50542  21033229.284    21033226.157
  23207570.666   -12418780.72543  -9669603.01642  23207571.433    23207568.752
  21784712.381   -20139694.73343 -15659044.55242  21784713.313    21784710.204
  20261918.515   -26141355.22344 -20264830.42542  20261920.341    20261916.033
  20919050.853   -22233554.05844 -17309450.88742  20919051.346    20919048.417
  21421298.815   -23827686.57143 -18555928.44942  21421300.226    21421296.753
  23228461.139   -13647858.43243 -10590731.34642  23228462.245    23228458.659
 04  1 11  0 11  0.0000000  0  7G10G24G 5G30G17G 6G21
  21035679.616   -19635256.99144 -15262354.89442  21035680.330    21035677.200
  23223332.844   -12335949.85243  -9605059.49742  23223333.623    23223330.943
  21801108.299   -20053533.73943 -15591906.13242  21801109.212    21801106.111
  20265672.755   -26121626.69044 -20249457.54642  20265674.563    20265670.269
  20925982.256   -22197129.25944 -17281067.93142  20925982.758    20925979.827
  21411128.818   -23881130.24443 -18597572.85742  21411130.212    21411126.758
  23213710.559   -13725373.25143 -10651132.44742  23213711.625    23213708.084
 04  1 11  0 11 30.0000000  0  7G10G24G 5G30G17G 6G21
  21038251.115   -19621743.66343 -15251825.02442  21038251.830    21038248.685
  23239101.842   -12253083.46743  -9540488.30542  23239102.529    23239099.874
  21817567.938   -19967037.80543 -15524506.71342  21817568.856    21817565.748
  20269538.454   -26101312.20144 -20233628.07242  20269540.286    20269535.985
  20932965.390   -22160432.55744 -17252473.09542  20932965.928    20932962.992
  21400987.453   -23934423.43643 -18639100.01242  21400988.851    21400985.381
  23198999.059   -13802682.63443 -10711373.47542  23199000.069    23198996.506
 04  1 11  0 12  0.0000000  0  7G10G24G 5G30G17G 6G21
  21040943.708   -19607593.85944 -15240799.20342  21040944.438    21040941.309
  23254878.089   -12170178.65843  -9475887.17242  23254878.828    23254876.178
  21834091.641   -19880205.13543 -15456844.90642  21834092.562    21834089.478
  20273516.357   -26080408.23244 -20217339.26942  20273518.174    20273513.880
  20940000.761   -22123461.46843 -17223664.45442  20940001.284    20939998.347
  21390875.713   -23987560.88843 -18680505.80642  21390877.120    21390873.633
  23184327.428   -13879782.33343 -10771451.11842  23184328.434    23184324.851
 04  1 11  0 12 30.0000000  0  7G10G24G 5G30G17G 6G21
  21043755.747   -19592816.50744 -15229284.38442  21043756.451    21043753.332
  23270659.895   -12087244.87043  -9411263.44942  23270660.598    23270658.003
  21850677.469   -19793046.09043 -15388928.78142  21850678.366    21850675.316
  20277604.755   -26058923.57344 -20200597.97942  20277606.576    20277602.279
  20947086.529   -22086225.48744 -17194649.40342  20947087.072    20947084.122
  21380792.284   -24040549.64843 -18721795.73842  21380793.670    21380790.212
  23169694.264   -13956679.85543 -10831371.22342  23169695.281    23169691.711
 04  1 11  0 13  0.0000000  0  7G10G24G 5G30G17G 6G21
  21046688.755   -19577403.42643 -15217274.19142  21046689.460    21046686.362
  23286448.572   -12004275.01043  -9346611.64042  23286449.278    23286446.674
  21867326.530   -19705554.63943 -15320753.64042  21867327.444    21867324.410
  20281805.179   -26036850.14244 -20183397.90442  20281807.002    20281802.708
  20954224.050   -22048717.56243 -17165422.44442  20954224.594    20954221.624
  21370739.038   -24093379.83243 -18762962.10042  21370740.416    21370736.955
  23155101.361   -14033365.89043 -10891126.52442  23155102.361    23155098.823
 04  1 11  0 13 30.0000000  0  7G10G24G 5G30G17G 6G21
  21049740.872   -19561364.41543 -15204776.25742  21049741.582    21049738.469
  23302242.163   -11921279.27243  -9281939.64842  23302242.819    23302240.271
  21884036.691   -19617742.20243 -15252328.38142  21884037.619    21884034.584
  20286115.832   -26014197.41944 -20165746.42942  20286117.646    20286113.390
  20961411.329   -22010948.19144 -17135991.76342  20961411.866    20961408.878
  21360714.450   -24146059.27943 -18804011.00842  21360715.850    21360712.379
  23140547.024   -14109849.08643 -10950723.77542  23140548.023    23140544.470
 04  1 11  0 14  0.0000000  0  7G10G24G 5G30G17G 6G21
  21052914.069   -19544689.10943 -15191782.51342  21052914.769    21052911.663
  23318042.506   -11838248.06143  -9217240.03042  23318043.177    23318040.584
  21900809.644   -19529599.79843 -15183646.00342  21900810.548    21900807.549
  20290538.738   -25990954.87344 -20147635.35742  20290540.548    20290536.307
  20968650.227   -21972907.50643 -17106349.67242  20968650.769    20968647.771
  21350720.955   -24198575.46843 -18844932.70042  21350722.327    21350718.881
  23126033.493   -14186118.03943 -11010154.08542  23126034.538    23126030.913
 04  1 11  0 14 30.0000000  0  7G10G24G 5G30G17G 6G21
  21056207.581   -19527381.60343 -15178296.14442  21056208.270    21056205.166
  23333848.768   -11755185.79743  -9152516.20842  23333849.379    23333846.838
  21917644.247   -19441133.51743 -15114711.26142  21917645.138    21917642.130
  20295073.107   -25967126.64844 -20129067.91342  20295074.908    20295070.660
  20975939.842   -21934600.40143 -17076499.98242  20975940.354    20975937.353
  21340758.041   -24250930.88643 -18885729.11542  21340759.427    21340755.955
  23111560.121   -14262175.65443 -11069419.71242  23111561.248    23111557.629
 04  1 11  0 15  0.0000000  0  7G10G24G 5G30G17G 6G21
  21059620.209   -19509448.13244 -15164322.00442  21059620.890    21059617.777
  23349659.520   -11672099.84443  -9087773.93042  23349660.095    23349657.589
  21934538.968   -19352351.17543 -15045530.22642  21934539.877    21934536.872
  20299717.720   -25942719.01544 -20110048.97642  20299719.513    20299715.286
  20983278.737   -21896034.11643 -17046448.32942  20983279.259    20983276.259
  21330824.921   -24303129.71043 -18926403.50942  21330826.316    21330822.846
  23097126.001   -14338027.27043 -11128524.83642  23097127.159    23097123.456
 04  1 11  0 15 30.0000000  0  7G10G24G 5G30G17G 6G21
  21063152.902   -19490883.58943 -15149856.12442  21063153.615    21063150.487
  23365475.740   -11588985.14843  -9023009.25742  23365476.340    23365473.793
  21951494.605   -19263248.87543 -14976099.87342  21951495.502    21951492.473
  20304473.630   -25917726.54344 -20090574.32742  20304475.429    20304471.200
  20990667.905   -21857203.87043 -17016190.99542  20990668.406    20990665.404
  21320922.977   -24355164.72343 -18966950.25942  21320924.362    21320920.897
  23082732.361   -14413666.27143 -11187464.28942  23082733.522    23082729.737
 04  1 11  0 16  0.0000000  0  7G10G24G 5G30G17G 6G21
  21066804.586   -19471693.92643 -15134903.13242  21066805.274    21066802.157
  23381296.161   -11505848.38343  -8958227.38642  23381296.742    23381294.207
  21968509.571   -19173834.59643 -14906426.42542  21968510.502    21968507.469
  20309339.679   -25892155.26844 -20070648.66042  20309341.497    20309337.258
  20998105.927   -21818116.70243 -16985733.45942  20998106.459    20998103.445
  21311051.429   -24407040.00943 -19007372.54542  21311052.826    21311049.334
  23068378.193   -14489097.67543 -11246241.95542  23068379.358    23068375.608
 04  1 11  0 16 30.0000000  0  7G10G24G 5G30G17G 6G21
  21070576.365   -19451873.10544 -15119458.33342  21070577.049    21070573.942
  23397121.825   -11422684.08643  -8893424.05942  23397122.382    23397119.866
  21985584.763   -19084103.95943 -14836506.46442  21985585.695    21985582.634
  20314317.059   -25865999.01944 -20050267.17242  20314318.853    20314314.613
  21005593.991   -21778766.74743 -16955071.15642  21005594.492    21005591.479
  21301211.835   -24458747.47843 -19047664.06742  21301213.208    21301209.710
  23054064.991   -14564313.93843 -11304852.00742  23054066.135    23054062.351
 04  1 11  0 17  0.0000000  0  7G10G24G 5G30G17G 6G21
  21074466.618   -19431429.73643 -15103528.43042  21074467.310    21074464.175
  23412951.047   -11339500.94543  -8828606.04442  23412951.613    23412949.155
  22002718.285   -18994066.84043 -14766347.67942  22002719.205    22002716.162
  20319404.142   -25839266.27844 -20029436.47142  20319405.927    20319401.691
  21013130.254   -21739163.44943 -16924211.44342  21013130.769    21013127.727
  21291402.956   -24510293.51243 -19087829.79942  21291404.334    21291400.815
  23039791.331   -14639322.38243 -11363300.11842  23039792.496    23039788.584
 04  1 11  0 17 30.0000000  0  7G10G24G 5G30G17G 6G21
  21078475.816   -19410361.11643 -15087111.31242  21078476.531    21078473.407
  23428784.223   -11256296.87343  -8763771.71542  23428784.823    23428782.425
  22019910.259   -18903722.41143 -14695949.43642  22019911.186    22019908.158
  20324601.427   -25811954.28044 -20008154.39942  20324603.226    20324599.000
  21020715.126   -21699304.65343 -16893152.64542  21020715.637    21020712.605
  21281625.674   -24561673.39143 -19127866.05442  21281627.071    21281623.539
  23025557.926   -14714119.19143 -11421583.29642  23025559.101    23025555.270
 04  1 11  0 18  0.0000000  0  7G10G24G 5G30G17G 6G21
  21082604.108   -19388666.85443 -15070206.68742  21082604.796    21082601.662
  23444621.450   -11173071.77143  -8698921.02242  23444622.062    23444619.660
  22037160.523   -18813071.68643 -14625312.51842  22037161.455    22037158.410
  20329909.055   -25784062.57244 -19986420.60642  20329910.855    20329906.613
  21028348.546   -21659190.74043 -16861895.05442  21028349.049    21028346.020
  21271880.470   -24612884.75943 -19167771.00742  21271881.853    21271878.321
  23011365.197   -14788702.83043 -11479700.39742  23011366.329    23011362.426
 04  1 11  0 18 30.0000000  0  7G10G24G 5G30G17G 6G21
  21086851.228   -19366348.09443 -15052815.44142  21086851.922    21086848.766
  23460462.266   -11089827.38443  -8634055.28842  23460462.939    23460460.538
  22054468.599   -18722117.14743 -14554438.86542  22054469.537    22054466.511
  20335326.802   -25755592.20244 -19964235.90642  20335328.592    20335324.348
  21036030.264   -21618823.16043 -16830439.80142  21036030.724    21036027.703
  21262167.585   -24663926.40143 -19207543.70742  21262168.951    21262165.408
  22997213.009   -14863072.83143 -11537651.01042  22997214.177    22997210.182
 04  1 11  0 19  0.0000000  0  7G10G24G 5G30G17G 6G21
  21091216.407   -19343408.93944 -15034940.77242  21091217.087    21091213.950
  23476306.143   -11006567.38743  -8569177.39042  23476306.796    23476304.389
  22071833.470   -18630864.22043 -14483332.70042  22071834.399    22071831.365
  20340853.954   -25726546.80244 -19941603.13042  20340855.747    20340851.515
  21043759.436   -21578206.10343 -16798790.15142  21043759.889    21043756.878
  21252486.672   -24714799.81243 -19247185.31642  21252488.054    21252484.521
  22983101.033   -14937231.90843 -11595437.26142  22983102.196    22983098.205
 04  1 11  0 19 30.0000000  0  7G10G24G 5G30G17G 6G21
  21095699.868   -19319848.23643 -15016581.77942  21095700.544    21095697.390
  23492153.097   -10923291.02643  -8504286.74242  23492153.775    23492151.406
  22089254.985   -18539313.63443 -14411994.59642  22089255.891    22089252.870
  20346490.762   -25696925.27844 -19918521.42542  20346492.541    20346488.288
  21051536.151   -21537339.18743 -16766945.80342  21051536.604    21051533.583
  21242838.392   -24765501.73143 -19286693.29542  21242839.804    21242836.243
  22969029.611   -15011177.52343 -11653057.18542  22969030.810    22969026.796
 04  1 11  0 20  0.0000000  0  7G10G24G 5G30G17G 6G21
  21100301.168   -19295668.22743 -14997740.21242  21100301.852    21100298.689
  23508002.643   -10840000.98043  -8439385.41942  23508003.382    23508001.023
  22106732.465   -18447468.96243 -14340427.33142  22106733.384    22106730.351
  20352236.814   -25666729.65444 -19894992.37042  20352238.589    20352234.331
  21059359.897   -21496225.11843 -16734908.87242  21059360.367    21059357.327
  21233222.769   -24816032.10543 -19326067.60242  21233224.187    21233220.623
  22954998.648   -15084910.76643 -11710511.63642  22954999.822    22954995.635
 04  1 11  0 20 30.0000000  0  7G10G24G 5G30G17G 6G21
  21105020.573   -19270867.62943 -14978415.07042  21105021.254    21105018.074
  23523855.026   -10756696.19143  -8374472.61042  23523855.775    23523853.428
  22124265.861   -18355330.38743 -14268631.05142  22124266.783    22124263.758
  20358092.335   -25635958.68644 -19871014.99642  20358094.124    20358089.866
  21067230.876   -21454862.80843 -16702678.50242  21067231.344    21067228.332
  21223640.440   -24866387.46243 -19365305.53542  21223641.862    21223638.305
  22941008.562   -15158428.99043 -11767798.51642  22941009.791    22941005.672
 04  1 11  0 21  0.0000000  0  7G10G24G 5G30G17G 6G21
  21109857.573   -19245448.98043 -14958608.33042  21109858.255    21109855.074
  23539709.764   -10673379.12943  -8309550.25042  23539710.490    23539708.158
  22141854.481   -18262901.71043 -14196608.72142  22141855.397    22141852.379
  20364056.863   -25604614.90644 -19846591.27842  20364058.666    20364054.386
  21075148.485   -21413255.57243 -16670257.28742  21075148.933    21075145.929
  21214091.385   -24916568.11443 -19404407.33642  21214092.790    21214089.225
  22927059.184   -15231733.14443 -11824918.59342  22927060.418    22927056.307
 04  1 11  0 21 30.0000000  0  7G10G24G 5G30G17G 6G21
  21114812.709   -19219409.55343 -14938317.86442  21114813.376    21114810.216
  23555567.212   -10590047.60343  -8244616.61042  23555568.009    23555565.666
  22159498.486   -18170181.86443 -14124359.50142  22159499.411    22159496.411
  20370130.938   -25572695.40144 -19821718.94042  20370132.738    20370128.462
  21083113.198   -21371400.75243 -16637643.14342  21083113.662    21083110.628
  21204576.544   -24966568.92043 -19443368.99542  21204577.946    21204574.386
  22913151.436   -15304819.05943 -11881868.63742  22913152.638    22913148.393
 04  1 11  0 22  0.0000000  0  7G10G24G 5G30G17G 6G21
  21119883.989   -19192759.69543 -14917551.73542  21119884.681    21119881.513
  23571425.495   -10506711.82643  -8179679.65742  23571426.343    23571423.916
  22177195.721   -18077182.20743 -14051892.25242  22177196.652    22177193.672
  20376312.613   -25540210.49644 -19796406.03142  20376314.428    20376310.121
  21091122.964   -21329309.06043 -16604844.42542  21091123.441    21091120.407
  21195094.387   -25016397.80843 -19482196.69042  21195095.801    21195092.247
  22899283.388   -15377695.82443 -11938655.68542  22899284.585    22899280.416
 04  1 11  0 22 30.0000000  0  7G10G24G 5G30G17G 6G21
  21125073.237   -19165490.17344 -14896302.75842  21125073.897    21125070.726
  23587286.311   -10423362.54543  -8114732.18542  23587287.187    23587284.810
  22194947.689   -17983895.03743 -13979200.96342  22194948.606    22194945.651
  20382603.702   -25507150.68244 -19770645.14042  20382605.503    20382601.188
  21099179.463   -21286971.81443 -16571854.36742  21099179.950    21099176.908
  21185647.241   -25066043.00143 -19520881.25342  21185648.648    21185645.071
  22885457.220   -15450352.80743 -11995271.47342  22885458.437    22885454.221
 04  1 11  0 23  0.0000000  0  7G10G24G 5G30G17G 6G21
  21130378.885   -19137608.81643 -14874577.02142  21130379.543    21130376.353
  23603148.319   -10340007.12243  -8049779.91742  23603149.210    23603146.853
  22212752.613   -17890329.51143 -13906292.77442  22212753.546    22212750.573
  20389002.694   -25473523.61744 -19744442.23442  20389004.510    20389000.210
  21107281.235   -21244396.72343 -16538678.96942  21107281.726    21107278.696
  21176234.041   -25115509.72843 -19559426.74742  21176235.450    21176231.871
  22871671.589   -15522796.40643 -12051721.00442  22871672.830    22871668.566
 04  1 11  0 23 30.0000000  0  7G10G24G 5G30G17G 6G21
  21135801.123   -19109114.76043 -14852373.85642  21135801.789    21135798.598
  23619011.701   -10256644.63043  -7984822.15842  23619012.559    23619010.178
  22230610.433   -17796485.95543 -13833167.93442  22230611.373    22230608.448
  20395509.938   -25439327.94744 -19717796.25842  20395511.734    20395507.444
  21115428.452   -21201582.95543 -16505317.59342  21115428.914    21115425.879
  21166855.498   -25164794.42143 -19597830.39642  21166856.875    21166853.299
  22857927.203   -15595023.56943 -12108001.86842  22857928.400    22857924.196
 04  1 11  0 24  0.0000000  0  7G10G24G 5G30G17G 6G21
  21141339.378   -19080011.01143 -14829695.60342  21141340.048    21141336.840
  23634875.761   -10173278.40243  -7919861.48442  23634876.644    23634874.265
  22248520.329   -17702368.73743 -13759829.84842  22248521.283    22248518.370
  20402124.787   -25404566.69744 -19690709.57542  20402126.569    20402122.284
  21123620.431   -21158533.81843 -16471772.81342  21123620.900    21123617.870
  21157511.489   -25213897.51143 -19636092.53542  21157512.878    21157509.272
  22844223.755   -15667035.83243 -12164115.28842  22844224.948    22844220.669
 04  1 11  0 24 30.0000000  0  7G10G24G 5G30G17G 6G21
  21146993.934   -19050296.13343 -14806541.14842  21146994.590    21146991.389
  23650740.822   -10089907.14343  -7854896.87542  23650741.696    23650739.270
  22266482.332   -17607977.73243 -13686278.43142  22266483.282    22266480.395
  20408847.469   -25369238.73244 -19663181.29242  20408849.257    20408844.974
  21131857.388   -21115248.36943 -16438043.89342  21131857.856    21131854.806
  21148202.695   -25262815.44143 -19674210.39842  21148204.101    21148200.485
  22830561.553   -15738830.84543 -12220059.42542  22830562.740    22830558.445
 04  1 11  0 25  0.0000000  0  7G10G24G 5G30G17G 6G21
  21152764.151   -19019973.31543 -14782912.97542  21152764.827    21152761.624
  23666606.302   -10006533.67343  -7789930.55342  23666607.159    23666604.710
  22284495.704   -17513317.04543 -13612516.87042  22284496.611    22284493.752
  20415677.472   -25333346.82744 -19635213.57742  20415679.256    20415674.992
  21140138.689   -21071729.91743 -16404133.41242  21140139.164    21140136.090
  21138929.084   -25311548.53143 -19712184.22542  21138930.499    21138926.875
  22816940.503   -15810410.10743 -12275835.44042  22816941.692    22816937.429
 04  1 11  0 25 30.0000000  0  7G10G24G 5G30G17G 6G21
  21158650.451   -18989040.49843 -14758809.47842  21158651.129    21158647.921
  23682472.663    -9923155.39343  -7724960.47042  23682473.531    23682471.106
  22302560.475   -17418386.14043 -13538544.75242  22302561.370    22302558.474
  20422615.175   -25296888.85144 -19606804.76942  20422616.971    20422612.708
  21148464.713   -21027976.31043 -16370039.69842  21148465.207    21148462.114
  21129691.557   -25360092.01443 -19750010.31242  21129692.954    21129689.353
  22803361.170   -15881769.43843 -12331440.06842  22803362.373    22803358.166
 04  1 11  0 26  0.0000000  0  7G10G24G 5G30G17G 6G21
  21164651.458   -18957504.88643 -14734236.26942  21164652.154    21164648.945
  23698338.609    -9839779.30543  -7659992.12142  23698339.470    23698337.029
  22320675.122   -17323193.12343 -13464368.39342  22320676.019    22320673.119
  20429659.304   -25259871.73844 -19577960.26842  20429661.091    20429656.825
  21156834.109   -20983994.94143 -16335768.50742  21156834.604    21156831.484
  21120489.259   -25408450.47243 -19787692.22042  21120490.644    21120487.036
  22789822.600   -15952915.42043 -12386878.48242  22789823.755    22789819.415
 04  1 11  0 26 30.0000000  0  7G10G24G 5G30G17G 6G21
  21170768.079   -18925361.87243 -14709189.76242  21170768.754    21170765.561
  23714205.023    -9756400.99743  -7595022.01942  23714205.876    23714203.372
  22338840.228   -17227734.88743 -13389985.37342  22338841.125    22338838.218
  20436810.745   -25222290.64744 -19548676.30342  20436812.530    20436808.286
  21165247.718   -20939781.15543 -16301316.20842  21165248.223    21165245.104
  21111323.560   -25456616.49543 -19825224.17742  21111324.965    21111321.345
  22776325.853   -16023840.86543 -12442145.01142  22776327.027    22776322.834
 04  1 11  0 27  0.0000000  0  7G10G24G 5G30G17G 6G21
  21176999.381   -18892616.14443 -14683673.60842  21177000.064    21176996.842
  23730070.986    -9673024.79743  -7530053.56242  23730071.802    23730069.342
  22357054.716   -17132017.27743 -13315400.24442  22357055.608    22357052.689
  20444068.602   -25184150.34244 -19518956.59042  20444070.422    20444066.152
  21173704.648   -20895339.70743 -16266686.51542  21173705.155    21173702.022
  21102194.100   -25504592.14443 -19862607.79842  21102195.514    21102191.893
  22762870.552   -16094548.98943 -12497242.22642  22762871.724    22762867.467
 04  1 11  0 27 30.0000000  0  7G10G24G 5G30G17G 6G21
  21183345.084   -18859269.24443 -14657689.01042  21183345.765    21183342.546
  23745936.399    -9589651.74443  -7465087.56442  23745937.188    23745934.712
  22375317.958   -17036043.34343 -13240615.37642  22375318.881    22375315.917
  20451432.638   -25145452.25344 -19488802.23742  20451434.434    20451430.154
  21182204.578   -20850672.31543 -16231880.75842  21182205.090    21182201.955
  21093101.070   -25552376.28143 -19899842.17942  21093102.485    21093098.860
  22749456.547   -16165039.86043 -12552170.14942  22749457.731    22749453.415
 04  1 11  0 28  0.0000000  0  7G10G24G 5G30G17G 6G21
  21189805.390   -18825320.07043 -14631235.11042  21189806.071    21189802.883
  23761801.435    -9506280.40743  -7400122.89942  23761802.285    23761799.756
  22393630.102   -16939812.40243 -13165630.24642  22393631.042    22393628.064
  20458903.068   -25106194.92344 -19458212.11242  20458904.860    20458900.577
  21190747.768   -20805777.62143 -16196897.88542  21190748.262    21190745.153
  21084045.252   -25599964.94743 -19936924.24842  21084046.639    21084043.040
  22736084.398   -16235310.72043 -12606926.61342  22736085.576    22736081.391
 04  1 11  0 28 30.0000000  0  7G10G24G 5G30G17G 6G21
  21196379.591   -18790772.55243 -14604314.96842  21196380.233    21196377.038
  23777665.523    -9422914.17643  -7335162.20642  23777666.378    23777663.788
  22411990.149   -16843329.69143 -13090448.94142  22411991.080    22411988.162
  20466479.180   -25066382.09044 -19427189.13142  20466480.998    20466476.708
  21199333.466   -20760659.63243 -16161741.01742  21199333.926    21199330.826
  21075026.418   -25647359.14243 -19973854.78342  21075027.810    21075024.223
  22722753.872   -16305363.33543 -12661513.04742  22722755.004    22722750.718
 04  1 11  0 29  0.0000000  0  7G10G24G 5G30G17G 6G21
  21203067.553   -18755626.98443 -14576928.81442  21203068.226    21203065.019
  23793528.659    -9339552.98243  -7270205.44442  23793529.453    23793526.899
  22430397.810   -16746596.77143 -13015072.64642  22430398.767    22430395.815
  20474160.961   -25026014.09044 -19395733.54942  20474162.765    20474158.504
  21207961.610   -20715318.51043 -16126410.27642  21207962.082    21207958.975
  21066045.075   -25694556.31543 -20010631.79642  21066046.471    21066042.881
  22709464.886   -16375197.05343 -12715928.90342  22709466.043    22709461.788
 04  1 11  0 29 30.0000000  0  7G10G24G 5G30G17G 6G21
  21209868.345   -18719888.57943 -14549080.70842  21209869.008    21209865.820
  23809389.917    -9256201.81243  -7205256.49242  23809390.655    23809388.134
  22448851.887   -16649620.00743 -12939506.35742  22448852.845    22448849.915
  20481947.405   -24985096.02344 -19363849.34842  20481949.229    20481944.964
  21216631.217   -20669759.37943 -16090909.65942  21216631.689    21216628.622
  21057100.750   -25741558.97843 -20047257.23942  21057102.144    21057098.572
  22696217.107   -16444814.72043 -12770176.38942  22696218.261    22696214.063
 04  1 11  0 30  0.0000000  0  7G10G24G 5G30G17G 6G21
  21216783.391   -18683549.76343 -14520764.75142  21216784.038    21216780.851
  23825250.774    -9172852.46743  -7140308.95942  23825251.555    23825249.031
  22467353.724   -16552392.55843 -12863744.73142  22467354.632    22467351.688
  20489840.088   -24943619.76344 -19331530.19142  20489841.904    20489837.632
  21225343.797   -20623974.45443 -16055233.09842  21225344.263    21225341.211
  21048195.495   -25788356.36243 -20083722.72542  21048196.909    21048193.299
  22683012.140   -16514207.02943 -12824248.30042  22683013.253    22683008.982
 04  1 11  0 30 30.0000000  0  7G10G24G 5G30G17G 6G21
  21223810.168   -18646623.80343 -14491991.27342  21223810.822    21223807.616
  23841108.840    -9089517.69343  -7075372.79942  23841109.646    23841107.085
  22485900.449   -16454928.95843 -12787799.08442  22485901.367    22485898.410
  20497836.420   -24901598.77844 -19298786.57142  20497838.233    20497833.962
  21234096.802   -20577977.05143 -16019390.96842  21234097.282    21234094.230
  21039327.323   -25834958.91543 -20120036.39542  21039328.715    21039325.119
  22669847.937   -16583385.69943 -12878153.73442  22669849.050    22669844.754
 04  1 11  0 31  0.0000000  0  7G10G24G 5G30G17G 6G21
  21230950.336   -18609101.96543 -14462753.47942  21230950.987    21230947.782
  23856965.917    -9006188.16343  -7010440.69442  23856966.652    23856964.190
  22504493.605   -16357221.43843 -12711663.37642  22504494.500    22504491.572
  20505938.106   -24859024.22644 -19265611.60242  20505939.907    20505935.640
  21242891.923   -20531758.29943 -15983376.35942  21242892.414    21242889.390
  21030498.421   -25881355.10744 -20156189.26142  21030499.808    21030496.212
  22656726.204   -16652340.24843 -12931884.51942  22656727.375    22656723.195
 04  1 11  0 31 30.0000000  0  7G10G24G 5G30G17G 6G21
  21238202.478   -18570991.76143 -14433057.21642  21238203.105    21238199.927
  23872820.725    -8922870.84243  -6945518.10042  23872821.418    23872819.000
  22523131.588   -16259278.37143 -12635344.12242  22523132.472    22523129.528
  20514143.741   -24815903.33944 -19232010.91442  20514145.541    20514141.279
  21251727.823   -20485325.28443 -15947194.79342  21251728.299    21251725.322
  21021707.929   -25927549.46644 -20192184.85942  21021709.312    21021705.728
  22643646.224   -16721076.56343 -12985445.29342  22643647.354    22643642.942
 04  1 11  0 32  0.0000000  0  7G10G24G 5G30G17G 6G21
  21245566.455   -18532293.71143 -14402902.88942  21245567.100    21245563.902
  23888673.203    -8839565.64643  -6880604.97142  23888673.869    23888671.362
  22541814.091   -16161101.18243 -12558842.44142  22541814.954    22541812.063
  20522453.276   -24772236.33844 -19197984.68442  20522455.113    20522450.850
  21260604.475   -20438678.18743 -15910846.40642  21260604.922    21260601.975
  21012956.327   -25973539.38543 -20228021.14742  21012957.732    21012954.111
  22630607.904   -16789592.96143 -13038834.63542  22630609.015    22630604.796
 04  1 11  0 32 30.0000000  0  7G10G24G 5G30G17G 6G21
  21253041.946   -18493009.74143 -14372292.00542  21253042.593    21253039.392
  23904523.106    -8756273.94643  -6815702.36642  23904523.753    23904521.253
  22560540.595   -16062692.95943 -12482160.72542  22560541.429    22560538.524
  20530866.399   -24728025.18044 -19163534.43742  20530868.218    20530863.965
  21269521.446   -20391819.11843 -15874332.84742  21269521.897    21269518.975
  21004243.816   -26019323.84344 -20263697.34142  21004245.239    21004241.602
  22617611.560   -16857889.60443 -13092052.78842  22617612.639    22617608.316
 04  1 11  0 33  0.0000000  0  7G10G24G 5G30G17G 6G21
  21260629.042   -18453139.20643 -14341224.05742  21260629.705    21260626.508
  23920370.818    -8672993.84543  -6750808.77542  23920371.400    23920369.031
  22579311.055   -15964053.80643 -12405299.07242  22579311.830    22579308.961
  20539383.272   -24683268.85844 -19128659.38642  20539385.069    20539380.817
  21278479.052   -20344746.64243 -15837652.99742  21278479.499    21278476.571
  20995571.201   -26064898.84543 -20299210.32042  20995572.608    20995568.960
  22604657.336   -16925963.98843 -13145097.73142  22604658.429    22604654.164
 04  1 11  0 33 30.0000000  0  7G10G24G 5G30G17G 6G21
  21268327.374   -18412684.25043 -14309700.71642  21268328.031    21268324.818
  23936215.873    -8589727.20043  -6685925.69442  23936216.627    23936214.198
  22598124.784   -15865186.89743 -12328259.94042  22598125.593    22598122.730
  20548003.502   -24637969.24344 -19093360.98842  20548005.304    20548001.060
  21287476.863   -20297462.86443 -15800808.49442  21287477.296    21287474.384
  20986938.593   -26110263.43343 -20334559.33842  20986940.003    20986936.351
  22591745.482   -16993816.47043 -13197969.75642  22591746.559    22591742.312
 04  1 11  0 34  0.0000000  0  7G10G24G 5G30G17G 6G21
  21276135.681   -18371651.30243 -14277726.98842  21276136.348    21276133.154
  23952057.386    -8506480.03543  -6621057.77142  23952058.026    23952055.631
  22616980.507   -15766099.42243 -12251048.94742  22616981.298    22616978.450
  20556725.857   -24592132.89044 -19057644.35142  20556727.664    20556723.435
  21296513.721   -20249973.87943 -15763804.09442  21296514.151    21296511.259
  20978345.388   -26155421.08744 -20369747.11242  20978346.771    20978343.127
  22578874.916   -17061451.37043 -13250672.25142  22578875.986    22578871.716
 04  1 11  0 34 30.0000000  0  7G10G24G 5G30G17G 6G21
  21284054.703   -18330036.57243 -14245299.92842  21284055.356    21284052.170
  23967896.055    -8423247.49143  -6556201.25742  23967896.747    23967894.271
  22635878.691   -15666788.68343 -12173663.97142  22635879.554    22635876.677
  20565551.129   -24545755.82744 -19021506.38442  20565552.926    20565548.697
  21305590.434   -20202275.44243 -15726636.48642  21305590.864    21305587.963
  20969792.877   -26200364.75144 -20404768.14042  20969794.276    20969790.624
  22566046.900   -17128863.21743 -13303200.93742  22566047.945    22566043.678
 04  1 11  0 35  0.0000000  0  8G10G24G29G 5G30G17G 6G21
  21292081.785   -18287853.93843 -14212430.33842  21292082.431    21292079.280
  23983729.453    -8340042.40843  -6491366.12642  23983730.155    23983727.733
  24581973.472    -4989068.67953  -3863727.33052  24581975.216    24581973.288
  22654816.629   -15567269.10843 -12096116.27042  22654817.497    22654814.630
  20574476.732   -24498851.52644 -18984957.58242  20574478.536    20574474.310
  21314704.446   -20154380.96443 -15689316.11942  21314704.880    21314701.972
  20961279.119   -26245104.81144 -20439630.51542  20961280.505    20961276.868
  22553258.949   -17196063.67943 -13355564.87642  22553260.038    22553255.856
 04  1 11  0 35 30.0000000  0  8G10G24G29G 5G30G17G 6G21
  21300220.355   -18245085.35843 -14179104.17242  21300221.031    21300217.855
  23999561.140    -8256846.15143  -6426537.88342  23999561.843    23999559.483
  24568623.724    -5059222.11043  -3918392.23442  24568625.396    24568623.347
  22673797.628   -15467523.55043 -12018392.49442  22673798.455    22673795.623
  20583506.066   -24451401.92144 -18947983.87142  20583507.884    20583503.671
  21323859.243   -20106272.22343 -15651828.79442  21323859.670    21323856.775
  20952808.093   -26289620.36544 -20474317.95342  20952809.474    20952805.813
  22540515.163   -17263033.02843 -13407748.76642  22540516.215    22540511.925
 04  1 11  0 36  0.0000000  0  8G10G24G29G 5G30G17G 6G21
  21308468.855   -18201739.19143 -14145327.93642  21308469.516    21308466.349
  24015389.776    -8173666.32843  -6361722.44842  24015390.426    24015388.042
  24555293.600    -5129272.15143  -3972976.59942  24555295.199    24555292.933
  22692819.799   -15367561.68343 -11940500.14242  22692820.612    22692817.728
  20592637.569   -24403415.57444 -18910591.91942  20592639.391    20592635.176
  21333053.318   -20057957.14443 -15614180.68742  21333053.744    21333050.842
  20944378.742   -26333916.78544 -20508834.63642  20944380.128    20944376.481
  22527813.921   -17329778.12943 -13459757.89442  22527815.009    22527810.803
 04  1 11  0 36 30.0000000  0  8G10G24G29G 5G30G17G 6G21
  21316825.633   -18157823.99843 -14111108.30142  21316826.307    21316823.153
  24031213.858    -8090510.46443  -6296925.67042  24031214.507    24031212.115
  24541982.471    -5199222.55243  -4027483.32542  24541984.166    24541981.694
  22711881.370   -15267392.49943 -11862446.25842  22711882.202    22711879.311
  20601869.721   -24354900.38844 -18872787.88142  20601871.508    20601867.296
  21342285.139   -20009443.65443 -15576377.97142  21342285.573    21342282.660
  20935990.129   -26377999.23244 -20543184.58442  20935991.507    20935987.877
  22515154.290   -17396304.98643 -13511596.97742  22515155.412    22515151.058
 04  1 11  0 37  0.0000000  0  8G10G24G29G 5G30G17G 6G21
  21325291.761   -18113334.11443 -14076440.86242  21325292.444    21325289.312
  24047034.616    -8007372.00743  -6232142.46442  24047035.309    24047032.791
  24528692.314    -5269062.49243  -4081904.00042  24528694.165    24528691.397
  22730983.316   -15167010.99843 -11784226.92442  22730984.170    22730981.255
  20611203.593   -24305850.65044 -18834567.31242  20611205.361    20611201.171
  21351555.834   -19960725.84443 -15538416.05142  21351556.252    21351553.348
  20927643.991   -26421858.59344 -20577360.70142  20927645.348    20927641.701
  22502537.613   -17462605.89643 -13563260.00042  22502538.750    22502534.390
 04  1 11  0 37 30.0000000  0  8G10G24G29G 5G30G17G 6G21
  21333865.734   -18068277.62943 -14041331.90842  21333866.408    21333863.279
  24062850.684    -7924257.97043  -6167378.26342  24062851.325    24062848.987
  24515422.475    -5338795.43343  -4136241.30042  24515424.290    24515421.608
  22750124.011   -15066426.14143 -11705849.13542  22750124.843    22750121.928
  20620637.646   -24256274.20644 -18795936.31842  20620639.437    20620635.248
  21360864.019   -19911811.02143 -15500300.60942  21360864.438    21360861.508
  20919339.365   -26465499.75544 -20611366.79142  20919340.706    20919337.062
  22489962.781   -17528686.98643 -13614751.72342  22489963.925    22489959.579
 04  1 11  0 38  0.0000000  0  8G10G24G29G 5G30G17G 6G21
  21342548.256   -18022650.61243 -14005778.39042  21342548.932    21342545.820
  24078663.096    -7841163.54543  -6102629.37042  24078663.606    24078661.374
  24502174.751    -5408412.45643  -4190488.28342  24502176.650    24502173.862
  22769304.027   -14965634.58643 -11627310.28342  22769304.863    22769301.922
  20630172.708   -24206167.28044 -18756891.97142  20630174.463    20630170.293
  21370210.563   -19862694.70343 -15462028.16042  21370210.982    21370208.036
  20911077.634   -26508915.41844 -20645197.17342  20911078.989    20911075.340
  22477430.839   -17594542.56543 -13666067.75042  22477431.989    22477427.601
 04  1 11  0 38 30.0000000  0  8G10G24G29G 5G30G17G 6G21
  21351337.426   -17976463.12643 -13969788.13942  21351338.103    21351335.002
  24094470.038    -7758097.48843  -6037902.57142  24094470.552    24094468.269
  24488948.083    -5477918.99043  -4244649.19442  24488949.870    24488947.064
  22788521.255   -14864647.37043 -11548618.97242  22788522.103    22788519.215
  20639806.887   -24155539.37044 -18717441.65942  20639808.661    20639804.453
  21379593.577   -19813386.61043 -15423606.27542  21379593.987    21379591.039
  20902857.528   -26552112.18944 -20678856.98842  20902858.921    20902855.247
  22464940.375   -17660180.36843 -13717214.05542  22464941.516    22464937.172
 04  1 11  0 39  0.0000000  0  8G10G24G29G 5G30G17G 6G21
  21360234.224   -17929709.98043 -13933357.11542  21360234.924    21360231.828
  24110272.752    -7675053.77943  -5973193.17742  24110273.218    24110271.028
  24475744.379    -5547304.76043  -4298715.98942  24475746.266    24475743.415
  22807776.618   -14763459.84843 -11469771.57042  22807777.492    22807774.573
  20649541.200   -24104385.32744 -18677581.37142  20649542.959    20649538.768
  21389014.225   -19763880.76843 -15385030.29842  21389014.649    21389011.676
  20894680.718   -26595081.56744 -20712339.61442  20894682.125    20894678.442
  22452492.600   -17725593.46043 -13768185.26642  22452493.734    22452489.368
 04  1 11  0 39 30.0000000  0  8G10G24G29G 5G30G17G 6G21
  21369237.941   -17882395.13643 -13896488.40542  21369238.623    21369235.556
  24126070.552    -7592035.40043  -5908503.53842  24126071.106    24126068.924
  24462563.869    -5616568.68843  -4352687.85342  24462565.580    24462562.929
  22827069.183   -14662076.89143 -11390771.88542  22827070.057    22827067.161
  20659374.922   -24052708.86844 -18637314.00642  20659376.682    20659372.462
  21398471.846   -19714180.62743 -15346302.92442  21398472.284    21398469.305
  20886547.084   -26637824.10344 -20745645.47742  20886548.470    20886544.806
  22440087.363   -17790783.70343 -13818982.83342  22440088.465    22440084.091
 04  1 11  0 40  0.0000000  0  8G10G24G29G 5G30G17G 6G21
  21378348.306   -17834519.79043 -13859182.94242  21378349.005    21378345.930
  24141863.577    -7509042.40343  -5843833.66742  24141864.160    24141861.981
  24449407.194    -5685707.01643  -4406561.82742  24449409.138    24449406.299
  22846398.608   -14560500.04743 -11311621.12342  22846399.487    22846396.585
  20669307.833   -24000511.10844 -18596640.43542  20669309.589    20669305.368
  21407966.389   -19664286.52943 -15307424.41242  21407966.822    21407963.841
  20878457.059   -26680337.45044 -20778772.75342  20878458.455    20878454.774
  22427724.543   -17855750.18643 -13869606.02342  22427725.661    22427721.375
 04  1 11  0 40 30.0000000  0  8G10G24G29G 5G30G17G 6G21
  21387564.204   -17786089.87043 -13821445.34342  21387564.894    21387561.829
  24157650.880    -7426079.60743  -5779187.32242  24157651.382    24157649.245
  24436274.199    -5754721.01843  -4460338.92442  24436276.011    24436273.392
  22865763.705   -14458736.06943 -11232324.54142  22865764.578    22865761.710
  20679338.826   -23947797.86144 -18555565.18442  20679340.591    20679336.364
  21417496.702   -19614204.29443 -15268399.29642  21417497.138    21417494.190
  20870410.111   -26722624.39044 -20811723.60942  20870411.497    20870407.829
  22415403.731   -17920496.63743 -13920057.78742  22415404.846    22415400.477
 04  1 11  0 41  0.0000000  0  8G10G24G29G 5G30G17G 6G21
  21396886.626   -17737100.30743 -13783271.65942  21396887.308    21396884.232
  24173433.757    -7343140.47643  -5714559.42242  24173434.087    24173432.050
  24423166.943    -5823600.03743  -4514010.83542  24423168.623    24423166.138
  22885165.237   -14356780.41743 -11152878.59342  22885166.109    22885163.249
  20689468.987   -23894563.48644 -18514083.85742  20689470.768    20689466.529
  21427064.078   -19563927.51643 -15229222.59142  21427064.494    21427061.545
  20862407.948   -26764676.00844 -20844491.09842  20862409.343    20862405.656
  22403126.111   -17985015.58343 -13970332.24942  22403127.224    22403122.957
 04  1 11  0 41 30.0000000  0  8G10G24G29G 5G30G17G 6G21
  21406313.788   -17687560.20643 -13744668.98542  21406314.490    21406311.409
  24189210.475    -7260233.26543  -5649956.39042  24189210.820    24189208.718
  24410084.467    -5892348.74143  -4567581.19642  24410086.174    24410083.638
  22904601.275   -14254643.17343 -11073291.15942  22904602.153    22904599.363
  20699696.522   -23840817.37744 -18472203.77742  20699698.310    20699694.051
  21436666.782   -19513464.92543 -15189901.09742  21436667.226    21436664.263
  20854449.427   -26806498.28744 -20877079.87942  20854450.827    20854447.148
  22390890.440   -18049314.57243 -14020435.33742  22390891.537    22390887.186
 04  1 11  0 42  0.0000000  0  9G10G24G29G 5G30G17G 6G21G18
  21415843.580   -17637481.03343 -13705646.25342  21415844.247    21415841.162
  24204979.114    -7177367.97243  -5585386.02842  24204979.589    24204977.426
  24397025.661    -5960973.08343  -4621054.62642  24397027.399    24397024.880
  22924069.724   -14152335.99543 -10993571.30342  22924070.568    22924067.792
  20710019.325   -23786570.58244 -18429933.55442  20710021.137    20710016.889
  21446302.892   -19462826.93143 -15150442.92342  21446303.316    21446300.364
  20846533.055   -26848098.98944 -20909496.00342  20846534.475    20846530.791
  22378694.848   -18113402.76743 -14070374.16042  22378695.934    22378691.612
  24777317.874    -4120423.65953  -3072800.67352  24777319.528    24777317.026
 04  1 11  0 42 30.0000000  0  9G10G24G29G 5G30G17G 6G21G18
  21425480.683   -17586837.70943 -13666183.92442  21425481.358    21425478.286
  24220744.862    -7094518.42043  -5520827.92842  24220745.343    24220743.219
  24383996.311    -6029443.04843  -4674407.76342  24383997.956    24383995.448
  22943575.175   -14049834.17643 -10913699.77342  22943576.049    22943573.270
  20720442.207   -23731797.79844 -18387253.47142  20720444.018    20720439.776
  21455977.234   -19411988.03143 -15110828.20442  21455977.641    21455974.679
  20838664.319   -26889449.39544 -20941717.09042  20838665.734    20838662.076
  22366544.577   -18177252.74243 -14120127.35842  22366545.676    22366541.306
  24756179.480    -4231506.58343  -3159358.61742  24756181.233    24756178.869
 04  1 11  0 43  0.0000000  0  9G10G24G29G 5G30G17G 6G21G18
  21435221.625   -17535648.70643 -13626296.39542  21435222.315    21435219.253
  24236504.411    -7011701.72243  -5456295.43142  24236504.826    24236502.747
  24370993.690    -6097772.13643  -4727651.12842  24370995.438    24370992.717
  22963114.038   -13947156.72743 -10833691.40442  22963114.884    22963112.183
  20730961.726   -23676517.49444 -18344177.91642  20730963.529    20730959.275
  21465686.436   -19360965.83943 -15071070.65342  21465686.848    21465683.868
  20830840.349   -26930564.54644 -20973754.86642  20830841.775    20830838.117
  22354436.476   -18240881.10343 -14169707.88042  22354437.547    22354433.202
  24735044.732    -4342568.98343  -3245900.49342  24735046.537    24735044.393
 04  1 11  0 43 30.0000000  0  9G10G24G29G 5G30G17G 6G21G18
  21445066.349   -17483914.37543 -13585983.93142  21445067.027    21445063.969
  24252257.822    -6928917.22743  -5391788.03542  24252258.107    24252256.083
  24358018.837    -6165955.75043  -4780781.13542  24358020.506    24358017.727
  22982686.144   -13844305.04743 -10753547.25242  22982686.935    22982684.258
  20741577.802   -23620729.74644 -18300706.95142  20741579.592    20741575.328
  21475430.608   -19309759.86843 -15031169.90142  21475431.026    21475428.037
  20823061.805   -26971441.08844 -21005606.71242  20823063.219    20823059.562
  22342370.961   -18304285.58843 -14219113.95042  22342372.069    22342367.708
  24713915.170    -4453606.66943  -3332423.39042  24713916.807    24713914.160
 04  1 11  0 44  0.0000000  0  9G10G24G29G 5G30G17G 6G21G18
  21455014.739   -17431635.16943 -13545246.89042  21455015.425    21455012.367
  24268005.263    -6846164.03543  -5327305.01142  24268005.500    24268003.495
  24345072.360    -6233989.13843  -4833794.07842  24345074.135    24345071.380
  23002291.137   -13741279.86443 -10673267.91442  23002291.989    23002289.307
  20752290.351   -23564434.95144 -18256840.88642  20752292.137    20752287.888
  21485209.840   -19258369.73343 -14991125.64542  21485210.250    21485207.258
  20815329.251   -27012075.83644 -21037270.14442  20815330.660    20815327.004
  22330348.378   -18367464.66643 -14268344.38042  22330349.464    22330345.052
  24692790.562    -4564615.38743  -3418923.38342  24692792.313    24692790.056
 04  1 11  0 44 30.0000000  0  9G10G24G29G 5G30G17G 6G21G18
  21465065.923   -17378815.86043 -13504088.98942  21465066.626    21465063.551
  24283746.030    -6763445.37243  -5262848.90842  24283746.428    24283744.302
  24332154.645    -6301871.93943  -4886689.68542  24332156.278    24332153.749
  23021928.151   -13638086.59543 -10592857.60742  23021928.978    23021926.365
  20763098.500   -23507637.68644 -18212583.28442  20763100.299    20763096.034
  21495023.311   -19206799.57043 -14950941.10642  21495023.734    21495020.750
  20807642.523   -27052469.97244 -21068746.08742  20807643.903    20807640.246
  22318368.067   -18430421.13943 -14317401.33542  22318369.172    22318364.867
  24671671.571    -4675595.93643  -3505401.55042  24671673.300    24671671.070
 04  1 11  0 45  0.0000000  0  9G10G24G29G 5G30G17G 6G21G18
  21475219.179   -17325460.10543 -13462513.08042  21475219.888    21475216.814
  24299479.745    -6680763.59943  -5198421.53442  24299480.206    24299478.123
  24319265.928    -6369602.65843  -4939466.79742  24319267.526    24319265.019
  23041596.414   -13534729.47143 -10512319.60042  23041597.245    23041594.562
  20774001.606   -23450341.41644 -18167936.84642  20774003.390    20773999.167
  21504870.520   -19155052.06843 -14910618.38542  21504870.950    21504867.964
  20800001.560   -27092623.52844 -21100034.56742  20800002.943    20799999.288
  22306429.985   -18493156.44343 -14366285.96942  22306431.057    22306426.667
  24650558.122    -4786547.53843  -3591857.23742  24650559.798    24650557.526
 04  1 11  0 45 30.0000000  0  9G10G24G29G 5G30G17G 6G21G18
  21485475.013   -17271565.20743 -13420517.05842  21485475.753    21485472.692
  24315207.283    -6598114.42843  -5134019.57542  24315207.803    24315205.690
  24306407.598    -6437173.58243  -4992119.39342  24306409.262    24306406.547
  23061296.203   -13431206.27943 -10431652.22442  23061297.057    23061294.435
  20785000.197   -23392543.34644 -18122899.39942  20785001.971    20784997.771
  21514752.189   -19103123.48343 -14870154.55842  21514752.615    21514749.632
  20792407.570   -27132530.04444 -21131130.54842  20792408.985    20792405.323
  22294534.797   -18555665.53743 -14414994.31942  22294535.912    22294531.582
  24629451.471    -4897462.89943  -3678284.53142  24629453.188    24629451.057
 04  1 11  0 46  0.0000000  0  9G10G24G29G 5G30G17G 6G21G18
  21495833.088   -17217133.21343 -13378102.51842  21495833.801    21495830.764
  24330928.469    -6515498.63643  -5069643.62542  24330928.999    24330926.946
  24293580.260    -6504581.30543  -5044644.81942  24293582.005    24293579.241
  23081027.191   -13327519.29343 -10350857.18242  23081028.081    23081025.387
  20796093.944   -23334245.29143 -18077472.35042  20796095.712    20796091.522
  21524668.068   -19051015.13043 -14829550.65042  21524668.513    21524665.516
  20784860.932   -27172187.94344 -21162032.80442  20784862.323    20784858.681
  22282682.862   -18617948.19943 -14463526.24342  22282683.935    22282679.529
  24608352.359    -5008339.47543  -3764681.70142  24608354.057    24608351.798
 04  1 11  0 46 30.0000000  0  9G10G24G29G 5G30G17G 6G21G18
  21506291.768   -17162172.52443 -13335276.00642  21506292.464    21506289.436
  24346642.094    -6432923.13643  -5005299.07442  24346642.632    24346640.576
  24280783.337    -6571829.32943  -5097045.80642  24280785.017    24280782.073
  23100787.622   -13223677.51043 -10269941.55342  23100788.513    23100785.855
  20807281.258   -23275455.52844 -18031662.15842  20807283.040    20807278.842
  21534616.785   -18998734.28643 -14788812.33842  21534617.216    21534614.233
  20777360.695   -27211601.96744 -21192745.02642  20777362.090    20777358.432
  22270872.708   -18680010.83143 -14511886.70542  22270873.755    22270869.372
  24587259.566    -5119181.28743  -3851051.78542  24587261.246    24587258.913
 04  1 11  0 47  0.0000000  0  9G10G24G29G 5G30G17G 6G21G18
  21516851.724   -17106679.49643 -13292034.68542  21516852.424    21516849.418
  24362348.838    -6350383.00343  -4940982.07542  24362349.442    24362347.498
  24268018.484    -6638908.88243  -5149315.54342  24268020.010    24268017.097
  23120578.081   -13119677.74043 -10188902.79342  23120578.995    23120576.306
  20818562.883   -23216170.26543 -17985465.86142  20818564.671    20818560.456
  21544599.138   -18946276.72243 -14747936.32242  21544599.566    21544596.562
  20769908.253   -27250764.93344 -21223261.61542  20769909.626    20769905.974
  22259105.544   -18741847.69843 -14560071.24842  22259106.614    22259102.184
  24566175.279    -5229979.65743  -3937387.99642  24566176.998    24566174.659
 04  1 11  0 47 30.0000000  0  9G10G24G29G 5G30G17G 6G21G18
  21527512.013   -17050659.27443 -13248382.56442  21527512.706    21527509.716
  24378048.164    -6267881.72143  -4876695.35842  24378048.903    24378046.918
  24255285.550    -6705819.86443  -5201453.91342  24255287.276    24255284.504
  23140397.704   -13015525.63643 -10107745.33142  23140398.584    23140395.892
  20829937.830   -23156394.54644 -17938887.38442  20829939.613    20829935.408
  21554614.388   -18893646.25843 -14706925.57342  21554614.799    21554611.819
  20762503.340   -27289678.00544 -21253583.48242  20762504.732    20762501.054
  22247380.812   -18803461.27843 -14608081.80642  22247381.918    22247377.436
  24545098.767    -5340735.93743  -4023691.40842  24545100.381    24545098.156
 04  1 11  0 48  0.0000000  0  9G10G24G29G 5G30G17G 6G21G18
  21538272.568   -16994112.34343 -13204320.02842  21538273.205    21538270.220
  24393740.503    -6185418.02343  -4812437.91542  24393741.270    24393739.251
  24242585.774    -6772557.09443  -5253456.89842  24242587.461    24242584.762
  23160246.008   -12911221.91043 -10026469.73642  23160246.887    23160244.174
  20841406.107   -23096128.48044 -17891926.82942  20841407.880    20841403.673
  21564662.634   -18840842.43743 -14665779.74842  21564663.051    21564660.055
  20755146.650   -27328337.78344 -21283707.98342  20755148.011    20755144.349
  22235698.994   -18864849.61943 -14655916.84742  22235700.095    22235695.656
  24524031.338    -5451445.51943  -4109958.50242  24524032.958    24524030.577
 04  1 11  0 48 30.0000000  0  9G10G24G29G 5G30G17G 6G21G18
  21549132.435   -16937043.26543 -13159850.61642  21549133.093    21549130.102
  24409425.031    -6102995.09043  -4748212.23742  24409425.826    24409423.762
  24229919.211    -6839120.05543  -5305324.08542  24229920.911    24229918.335
  23180122.338   -12806771.39443  -9945079.74742  23180123.225    23180120.546
  20852966.843   -23035376.45943 -17844587.60142  20852968.615    20852964.410
  21574743.243   -18787868.59243 -14624501.43242  21574743.656    21574740.664
  20747837.962   -27366745.23744 -21313635.86442  20747839.314    20747835.645
  22224059.621   -18926015.09343 -14703578.24342  22224060.700    22224056.177
  24502972.724    -5562108.32843  -4196189.04242  24502974.388    24502972.114
 04  1 11  0 49  0.0000000  0  9G10G24G29G 5G30G17G 6G21G18
  21560091.602   -16879452.45443 -13114974.66442  21560092.283    21560089.276
  24425102.037    -6020611.82743  -4684017.47442  24425102.892    24425100.714
  24217286.711    -6905503.97743  -5357051.77042  24217288.408    24217285.752
  23200026.356   -12702175.31043  -9863576.32642  23200027.242    23200024.452
  20864619.954   -22974138.95643 -17796870.07342  20864621.736    20864617.546
  21584856.210   -18734724.62043 -14583090.54742  21584856.617    21584853.634
  20740577.834   -27404897.30844 -21343364.74442  20740579.209    20740575.537
  22212462.872   -18986956.07243 -14751064.68242  22212463.934    22212459.504
  24481924.003    -5672720.37143  -4282380.16242  24481925.631    24481923.051
 04  1 11  0 49 30.0000000  0  9G10G24G29G 5G30G17G 6G21G18
  21571149.626   -16821342.25043 -13069693.99342  21571150.304    21571147.290
  24440771.338    -5938268.89443  -4619854.13042  24440772.218    24440770.005
  24204688.772    -6971706.13143  -5408637.81742  24204690.574    24204687.791
  23219957.555   -12597435.95743  -9781961.29042  23219958.472    23219955.752
  20876365.068   -22912418.05743 -17748775.87342  20876366.852    20876362.650
  21595001.375   -18681411.39343 -14541547.77642  21595001.780    21594998.804
  20733366.701   -27442792.04344 -21372893.10942  20733368.074    20733364.412
  22200908.993   -19047672.37243 -14798376.07142  22200910.017    22200905.520
  24460885.066    -5783279.35143  -4368529.80942  24460886.668    24460884.344
 04  1 11  0 50  0.0000000  0  9G10G24G29G 5G30G17G 6G21G18
  21582305.873   -16762715.68843 -13024010.95842  21582306.553    21582303.558
  24456432.654    -5855967.65243  -4555723.27542  24456433.573    24456431.355
  24192125.881    -7037723.94243  -5460080.22742  24192127.631    24192125.011
  23239915.518   -12492556.63543  -9700237.14742  23239916.421    23239913.651
  20888201.636   -22850216.52443 -17700307.15742  20888203.423    20888199.241
  21605178.375   -18627930.89443 -14499874.66242  21605178.778    21605175.813
  20726204.670   -27480428.74944 -21402220.40542  20726206.045    20726202.370
  22189397.564   -19108164.90143 -14845513.07642  22189398.590    22189394.164
  24439856.758    -5893783.48343  -4454636.79242  24439858.287    24439855.899
 04  1 11  0 50 30.0000000  0  9G10G24G29G 5G30G17G 6G21G18
  21593559.928   -16703575.29043 -12977927.53542  21593560.583    21593557.582
  24472085.771    -5773709.11443  -4491625.69742  24472086.855    24472084.653
  24179598.668    -7103554.72643  -5511376.89442  24179600.461    24179597.835
  23259899.410   -12387540.38543  -9618406.34642  23259900.288    23259897.603
  20900129.218   -22787536.79843 -17651465.82642  20900131.004    20900126.807
  21615386.963   -18574284.45543 -14458072.24642  21615387.365    21615384.407
  20719092.033   -27517805.99644 -21431345.52742  20719093.400    20719089.714
  22177928.791   -19168433.65843 -14892475.72642  22177929.804    22177925.353
  24418839.135    -6004230.51443  -4540699.23142  24418840.640    24418838.361
 04  1 11  0 51  0.0000000  0  9G10G24G29G 5G30G17G 6G21G18
  21604911.728   -16643921.28643 -12931443.90142  21604912.363    21604909.382
  24487731.174    -5691491.74043  -4427560.18442  24487732.215    24487730.053
  24167108.032    -7169193.35743  -5562523.84642  24167109.831    24167107.063
  23279909.390   -12282387.83643  -9536469.32042  23279910.264    23279907.498
  20912147.759   -22724379.00844 -17602251.97842  20912149.532    20912145.360
  21625627.273   -18520471.33443 -14416139.94942  21625627.659    21625624.705
  20712029.421   -27554920.23744 -21460265.71342  20712030.790    20712027.115
  22166502.961   -19228476.53043 -14939262.35042  22166503.991    22166499.567
  24397833.435    -6114616.25843  -4626714.00442  24397834.952    24397832.554
 04  1 11  0 51 30.0000000  0  9G10G24G29G 5G30G17G 6G21G18
  21616359.999   -16583760.33143 -12884565.23642  21616360.629    21616357.626
  24503367.776    -5609320.39043  -4363530.53742  24503368.894    24503366.702
  24154653.600    -7234641.28343  -5613522.17642  24154655.396    24154652.634
  23299943.856   -12177105.86143  -9454431.43842  23299944.749    23299941.939
  20924256.036   -22660749.73444 -17552670.73742  20924257.820    20924253.628
  21635898.166   -18466497.16543 -14374082.15242  21635898.600    21635895.648
  20705016.297   -27591774.28844 -21488983.14642  20705017.709    20705014.003
  22155119.306   -19288297.84143 -14985876.33642  22155120.341    22155115.917
  24376838.822    -6224942.86643  -4712682.65942  24376840.374    24376837.912
 04  1 11  0 52  0.0000000  0  9G10G24G29G 5G30G17G 6G21G18
  21627905.170   -16523089.90543 -12837289.58542  21627905.829    21627902.820
  24518996.435    -5527190.91643  -4299533.51442  24518997.623    24518995.377
  24142237.023    -7299890.52343  -5664365.67842  24142238.908    24142236.124
  23320003.449   -12071692.02943  -9372290.84042  23320004.333    23320001.610
  20936454.542   -22596646.19043 -17502719.93642  20936456.321    20936452.136
  21646200.540   -18412357.97943 -14331895.77842  21646200.950    21646198.011
  20698053.923   -27628361.68544 -21517492.80542  20698055.334    20698051.654
  22143778.775   -19347892.87843 -15032314.01742  22143779.785    22143775.326
  24355857.036    -6335202.59843  -4798599.18042  24355858.567    24355856.021
 04  1 11  0 52 30.0000000  0  9G10G24G29G 5G30G17G 6G21G18
  21639546.119   -16461916.31243 -12789621.85342  21639546.775    21639543.766
  24534616.278    -5445108.03143  -4235572.80142  24534617.442    24534615.249
  24129858.086    -7364942.17343  -5715055.22942  24129859.958    24129857.027
  23340086.832   -11966153.02443  -9290052.65842  23340087.786    23340084.937
  20948742.142   -22532074.47643 -17452404.32542  20948743.938    20948739.744
  21656533.302   -18358059.02743 -14289584.90542  21656533.696    21656530.755
  20691141.862   -27664684.77544 -21545796.50142  20691143.273    20691139.574
  22132480.432   -19407265.63143 -15078578.47542  22132481.485    22132477.082
  24334887.386    -6445397.15343  -4884464.91442  24334888.967    24334886.560
 04  1 11  0 53  0.0000000  0  9G10G24G29G 5G30G17G 6G21G18
  21651283.439   -16400236.39243 -12741559.58242  21651284.081    21651281.069
  24550228.229    -5363066.51443  -4171644.30742  24550229.426    24550227.199
  24117518.525    -7429787.53943  -5765584.03642  24117520.129    24117517.301
  23360194.607   -11860485.78243  -9207714.60942  23360195.502    23360192.894
  20961119.467   -22467031.33443 -17401721.37042  20961121.263    20961117.050
  21666897.298   -18303595.86043 -14247146.07742  21666897.704    21666894.748
  20684281.493   -27700736.32944 -21573888.61942  20684282.889    20684279.182
  22121225.660   -19466409.99243 -15124664.98142  22121226.699    22121222.241
  24313931.953    -6555518.45943  -4970273.62542  24313933.556    24313931.128
 04  1 11  0 53 30.0000000  0  9G10G24G29G 5G30G17G 6G21G18
  21663115.113   -16338060.49443 -12693110.83242  21663115.747    21663112.744
  24565830.623    -5281075.21643  -4107754.95642  24565831.838    24565829.579
  24105217.008    -7494431.57243  -5815955.95042  24105218.835    24105216.015
  23380324.874   -11754701.12043  -9125284.98942  23380325.796    23380322.960
  20973584.568   -22401526.91943 -17350678.97942  20973586.345    20973582.144
  21677290.751   -18248977.71943 -14204586.48742  21677291.185    21677288.232
  20677471.524   -27736522.85544 -21601774.21542  20677472.940    20677469.225
  22110012.692   -19525334.44143 -15170580.11142  22110013.732    22110009.286
  24292989.073    -6665572.64343  -5056029.97642  24292990.749    24292988.428
 04  1 11  0 54  0.0000000  0 10G10G24G29G 5G30G17G 6G21G26G18
  21675041.055   -16275389.17543 -12644276.03542  21675041.712    21675038.707
  24581423.884    -5199132.26643  -4043903.27142  24581425.058    24581422.796
  24092954.964    -7558869.68643  -5866167.43242  24092956.550    24092953.877
  23400477.210   -11648799.39543  -9042764.23542  23400478.111    23400475.454
  20986137.341   -22335561.56543 -17299277.41842  20986139.111    20986134.955
  21687713.935   -18194203.74543 -14161905.47042  21687714.339    21687711.375
  20670712.620   -27772041.07244 -21629450.74242  20670714.026    20670710.338
  22098841.986   -19584036.71043 -15216322.11642  22098843.020    22098838.554
  24287665.547    -7068678.72353  -5401197.50052  24287667.324    24287664.797
  24272060.140    -6775554.75743  -5141730.21442  24272061.730    24272059.287
 04  1 11  0 54 30.0000000  0 10G10G24G29G 5G30G17G 6G21G26G18
  21687061.836   -16212219.45543 -12595052.87942  21687062.508    21687059.499
  24597008.704    -5117233.36843  -3980085.91642  24597009.901    24597007.588
  24080733.676    -7623093.06743  -5916211.57542  24080735.255    24080732.566
  23420652.442   -11542778.20343  -8960150.31642  23420653.378    23420650.637
  20998778.423   -22269132.22843 -17247514.30942  20998780.217    20998776.044
  21698167.518   -18139269.67843 -14119099.70842  21698167.921    21698164.995
  20664006.184   -27807283.70144 -21656912.52642  20664007.579    20664003.872
  22087714.627   -19642511.43843 -15261886.81542  22087715.638    22087711.168
  24270712.416    -7157767.66843  -5470617.44042  24270714.273    24270711.659
  24251146.442    -6885457.15843  -5227368.36142  24251147.987    24251145.401
 04  1 11  0 55  0.0000000  0 10G10G24G29G 5G30G17G 6G21G26G18
  21699176.556   -16148556.15943 -12545445.11042  21699177.236    21699174.221
  24612584.598    -5035381.42243  -3916305.13042  24612585.842    24612583.530
  24068553.448    -6111681.41853  -4738488.14952  24068553.722    24068551.710
  23440849.371   -11436642.27843  -8877447.05242  23440850.308    23440847.741
  21011506.876   -22202243.74243 -17195393.42442  21011508.682    21011504.523
  21708650.880   -18084179.26843 -14076172.11942  21708651.281    21708648.345
  20657351.985   -27842251.76344 -21684160.36042  20657353.373    20657349.665
  22076630.031   -19700761.29243 -15307276.29242  22076631.039    22076626.531
  24253768.526    -7246808.19843  -5539999.61542  24253770.468    24253767.924
  24230247.623    -6995280.42643  -5312944.82742  24230249.164    24230246.610
 04  1 11  0 55 30.0000000  0 10G10G24G29G 5G30G17G 6G21G26G18
  21711384.531   -16084402.86943 -12495455.53342  21711385.204    21711382.191
  24628151.184    -4953578.09143  -3852562.23542  24628152.410    24628150.099
  24056414.215    -6175473.01743  -4788195.84942  24056415.213    24056412.292
  23461067.665   -11330395.31643  -8794657.23542  23461068.534    23461065.948
  21024322.075   -22134899.44043 -17142917.35642  21024323.891    21024319.720
  21719163.595   -18028934.60143 -14033124.33042  21719164.009    21719161.055
  20650750.119   -27876944.84444 -21711193.92342  20650751.496    20650747.781
  22065588.036   -19758787.36443 -15352491.38942  22065589.039    22065584.521
  24236834.390    -7335797.94543  -5609342.26142  24236836.178    24236833.715
  24209364.108    -7105023.16543  -5398458.53442  24209365.674    24209363.191
 04  1 11  0 56  0.0000000  0 10G10G24G29G 5G30G17G 6G21G26G18
  21723685.095   -16019763.04443 -12445086.83742  21723685.753    21723682.738
  24643708.247    -4871825.18043  -3788858.62742  24643709.501    24643707.072
  24044316.642    -6239045.79643  -4837733.03442  24044317.920    24044314.901
  23481306.191   -11224041.34443  -8711784.04142  23481307.043    23481304.393
  21037223.390   -22067102.64743 -17090088.69742  21037225.183    21037221.020
  21729705.267   -17973537.88943 -13989958.06042  21729705.669    21729702.699
  20644200.656   -27911362.51344 -21738012.87642  20644202.029    20644198.307
  22054588.361   -19816590.80943 -15397533.01442  22054589.387    22054584.808
  24219910.399    -7424734.56243  -5678643.48442  24219912.083    24219909.698
  24188496.413    -7214683.79243  -5483908.28142  24188497.903    24188495.338
 04  1 11  0 56 30.0000000  0 10G10G24G29G 5G30G17G 6G21G26G18
  21736077.964   -15954638.19543 -12394340.20342  21736078.612    21736075.596
  24659255.809    -4790122.16943  -3725193.90042  24659257.134    24659254.680
  24032261.440    -6302395.77343  -4887096.59042  24032262.864    24032259.912
  23501564.766   -11117582.08543  -8628828.80742  23501565.668    23501563.045
  21050210.508   -21998854.87843 -17036908.63742  21050212.299    21050208.144
  21740275.769   -17917989.48343 -13946673.59342  21740276.166    21740273.198
  20637704.111   -27945502.09644 -21764615.14642  20637705.488    20637701.762
  22043631.208   -19874170.73443 -15442400.46442  22043632.263    22043627.730
  24202997.216    -7513613.68043  -5747899.91642  24202998.911    24202996.556
  24167644.821    -7324259.15143  -5569291.57842  24167646.399    24167643.863
 04  1 11  0 57  0.0000000  0 10G10G24G29G 5G30G17G 6G21G26G18
  21748563.023   -15889028.79443 -12343215.99142  21748563.665    21748560.648
  24674794.250    -4708467.34443  -3661566.74342  24674795.448    24674792.932
  24020249.591    -6365517.98343  -4936282.68442  24020251.123    24020248.202
  23521843.334   -11011017.72343  -8545791.66842  23521844.233    23521841.554
  21063283.443   -21930156.09243 -16983377.12842  21063285.238    21063281.086
  21750875.410   -17862288.04943 -13903269.88042  21750875.804    21750872.830
  20631261.175   -27979359.85744 -21790997.81042  20631262.560    20631258.839
  22032717.062   -19931525.03943 -15487092.11342  22032718.108    22032713.524
  24186096.028    -7602429.90343  -5817107.32742  24186097.777    24186095.345
  24146810.312    -7433744.96943  -5654605.12942  24146811.882    24146809.156
 04  1 11  0 57 30.0000000  0 10G10G24G29G 5G30G17G 6G21G26G18
  21761139.655   -15822938.33643 -12291716.93142  21761140.272    21761137.249
  24690323.180    -4626862.32443  -3597978.36342  24690324.317    24690321.824
  24008281.354    -6428410.41643  -4985289.72042  24008283.099    24008280.148
  23542141.274   -10904351.72543  -8462675.35442  23542142.118    23542139.478
  21076441.546   -21861009.90243 -16929496.99442  21076443.341    21076439.184
  21761503.680   -17806436.14443 -13859748.91842  21761504.058    21761501.103
  20624871.952   -28012935.40844 -21817160.57542  20624873.347    20624869.610
  22021845.613   -19988654.84143 -15531608.81642  22021846.668    22021842.084
  24169207.273    -7691180.71043  -5886263.76242  24169209.069    24169206.500
  24125993.196    -7543139.83143  -5739847.81142  24125994.759    24125991.942
 04  1 11  0 58  0.0000000  0 10G10G24G29G 5G30G17G 6G21G26G18
  21773807.478   -15756368.46443 -12239844.30342  21773808.087    21773805.059
  24705842.717    -4545306.84043  -3534428.59842  24705843.752    24705841.239
  23996357.626    -6491069.49343  -5034114.91942  23996359.465    23996356.351
  23562458.165   -10797586.19343  -8379481.45042  23562458.991    23562456.285
  21089684.489   -21791417.80743 -16875269.40242  21089686.268    21089682.113
  21772160.579   -17750433.71543 -13816110.66342  21772160.963    21772157.992
  20618536.907   -28046226.26944 -21843101.49942  20618538.305    20618534.561
  22011017.135   -20045558.72043 -15575949.48342  22011018.175    22011013.618
  24152331.824    -7779861.92643  -5955365.96442  24152333.627    24152331.000
  24105194.001    -7652439.82843  -5825016.55642  24105195.547    24105192.663
 04  1 11  0 58 30.0000000  0 10G10G24G29G 5G30G17G 6G21G26G18
  21786564.512   -15689329.71743 -12187606.32042  21786565.140    21786562.129
  24721351.189    -4463809.51843  -3470924.14942  24721352.225    24721349.711
  23984477.381    -6553500.09443  -5082762.09742  23984479.257    23984476.254
  23582791.822   -10690731.88543  -8296218.38842  23582792.678    23582789.994
  21103010.261   -21721390.28643 -16820702.51442  21103012.051    21103007.916
  21782844.336   -17694290.29643 -13772362.54642  21782844.682    21782841.716
  20612254.802   -28079239.00444 -21868825.70442  20612256.187    20612252.458
  22000230.077   -20102245.11143 -15620120.67842  22000231.102    22000226.554
  24135468.671    -7868478.18143  -6024417.54942  24135470.474    24135467.876
  24084411.515    -7761651.44343  -5910116.39142  24084413.131    24084410.403
 04  1 11  0 59  0.0000000  0 10G10G24G29G 5G30G17G 6G21G26G18
  21799412.297   -15621814.14143 -12134996.77742  21799412.949    21799409.918
  24736850.510    -4382360.22343  -3407457.13642  24736851.410    24736848.939
  23972643.301    -6615688.97543  -5131220.91542  23972645.090    23972642.044
  23603143.959   -10583781.23743  -8212880.24942  23603144.766    23603142.153
  21116420.457   -21650919.31843 -16765790.08342  21116422.233    21116418.097
  21793556.750   -17637996.17543 -13728496.99442  21793557.116    21793554.138
  20606027.903   -28111961.55244 -21894323.78942  20606029.280    20606025.535
  21989486.324   -20158703.92143 -15664114.53442  21989487.353    21989482.784
  24118620.488    -7957015.64743  -6093407.72342  24118622.229    24118619.681
  24063648.568    -7870761.62843  -5995137.28142  24063650.097    24063647.251
 04  1 11  0 59 30.0000000  0 10G10G24G29G 5G30G17G 6G21G26G18
  21812349.655   -15553827.86943 -12082020.46842  21812350.326    21812347.279
  24752339.845    -4300963.24043  -3344030.85342  24752340.697    24752338.161
  23960854.993    -6677636.69043  -5179491.79742  23960856.769    23960853.730
  23623513.162   -10476739.95743  -8129471.49442  23623514.020    23623511.341
  21129913.901   -21580010.75743 -16710536.67042  21129915.696    21129911.547
  21804296.935   -17581555.98743 -13684517.63042  21804297.320    21804294.344
  20599855.836   -28144395.90244 -21919597.30342  20599857.229    20599853.467
  21978785.212   -20214938.48843 -15707933.65842  21978786.266    21978781.697
  24101787.374    -8045474.36443  -6162336.53142  24101789.062    24101786.529
  24042904.735    -7979771.47243  -6080079.93442  24042906.287    24042903.211
 04  1 11  1  0  0.0000000  0 10G10G24G29G 5G30G17G 6G21G26G18
  21825376.200   -15485372.94443 -12028678.97042  21825376.860    21825373.811
  24767819.232    -4219618.37443  -3280645.20342  24767820.080    24767817.526
  23949113.297    -6739339.78743  -5227572.08542  23949115.061    23949111.933
  23643899.400   -10369610.11243  -8045993.73242  23643900.213    23643897.570
  21143490.245   -21508666.49443 -16654943.75342  21143492.061    21143487.926
  21815064.809   -17524970.51043 -13640425.04942  21815065.175    21815062.187
  20593739.057   -28176539.85144 -21944644.53142  20593740.431    20593736.671
  21968126.879   -20270948.38643 -15751577.71642  21968127.935    21968123.334
  24084969.938    -8133850.30643  -6231200.83642  24084971.667    24084969.072
  24022180.300    -8088678.20643  -6164942.21642  24022181.859    24022178.914
 04  1 11  1  0 30.0000000  0 10G10G24G29G 5G30G17G 6G21G26G18
  21838491.359   -15416452.40943 -11974974.65542  21838492.007    21838488.969
  24783288.444    -4138327.06943  -3217301.27642  24783289.130    24783286.673
  23937418.477    -6800795.95743  -5275459.96242  23937420.284    23937417.237
  23664301.713   -10262394.70943  -7962449.30142  23664302.587    23664300.018
  21157148.954   -21436889.64543 -16599013.75642  21157150.755    21157146.615
  21825860.039   -17468241.16843 -13596220.36242  21825860.415    21825857.414
  20587677.702   -28208392.42744 -21969464.71942  20587679.068    20587675.322
  21957511.160   -20326734.23443 -15795047.18642  21957512.218    21957507.649
  24068168.746    -8222140.81443  -6299998.56342  24068170.484    24068167.918
  24001476.021    -8197479.90943  -6249722.68942  24001477.483    24001474.510
 04  1 11  1  1  0.0000000  0 10G10G24G29G 5G30G17G 6G21G26G18
  21851693.878   -15347072.76743 -11920912.59642  21851694.544    21851691.477
  24798746.673    -4057093.28143  -3154002.17942  24798747.273    24798744.923
  23925770.577    -6862006.11143  -5323156.12242  23925772.412    23925769.309
  23684719.271   -10155100.41443  -7878843.37342  23684720.080    23684717.500
  21170888.773   -21364686.46343 -16542751.55242  21170890.574    21170886.439
  21836681.652   -17411372.96143 -13551907.47542  21836682.076    21836679.079
  20581671.358   -28239955.94444 -21994059.66142  20581672.745    20581668.989
  21946937.335   -20382300.00643 -15838345.17542  21946938.394    21946933.803
  24051383.715    -8310346.29443  -6368730.03142  24051385.487    24051382.915
  23980791.488    -8306177.86843  -6334422.32842  23980792.930    23980789.979
 04  1 11  1  1 30.0000000  0 10G10G24G29G 5G30G17G 6G21G26G18
  21864984.391   -15277230.65743 -11866490.17142  21864985.066    21864981.993
  24814195.048    -3975911.44743  -3090743.55942  24814195.664    24814193.441
  23914171.200    -6922961.39343  -5370653.68642  23914172.947    23914169.844
  23705152.305   -10047723.95243  -7795173.46642  23705153.100    23705150.653
  21184710.389   -21292053.50243 -16486154.45342  21184712.192    21184708.048
  21847530.653   -17354361.14243 -13507482.68042  21847531.057    21847528.055
  20575721.474   -28271222.88944 -22018423.51342  20575722.852    20575719.095
  21936406.545   -20437639.67343 -15881466.97742  21936407.560    21936403.008
  24034616.734    -8398457.06643  -6437387.70742  24034618.490    24034615.891
  23960128.142    -8414764.10243  -6419034.92042  23960129.601    23960126.594
 04  1 11  1  2  0.0000000  0 10G10G24G29G 5G30G17G 6G21G26G18
  21878361.706   -15206932.39743 -11811712.30642  21878362.378    21878359.307
  24829632.741    -3894785.87943  -3027528.78042  24829633.218    24829631.055
  23902620.184    -6983662.33043  -5417953.06642  23902621.956    23902618.782
  23725599.822    -9940271.69043  -7711444.44642  23725600.699    23725598.092
  21198612.652   -21218996.86843 -16429227.22142  21198614.422    21198610.292
  21858406.056   -17297210.35643 -13462949.59242  21858406.485    21858403.502
  20569827.548   -28302195.62244 -22042558.10442  20569828.926    20569825.165
  21925917.992   -20492757.28143 -15924415.74942  21925918.994    21925914.469
  24017867.655    -8486473.46543  -6505971.83742  24017869.480    24017866.914
  23939485.833    -8523240.01043  -6503561.49742  23939487.335    23939484.228
 04  1 11  1  2 30.0000000  0 10G10G24G29G 5G30G17G 6G21G26G18
  21891825.886   -15136177.67143 -11756578.75542  21891826.561    21891823.494
  24845060.153    -3813713.75943  -2964355.65042  24845060.582    24845058.332
  23891118.656    -7044103.35943  -5465049.92642  23891120.375    23891117.233
  23746061.852    -9832742.85443  -7627655.80242  23746062.713    23746060.200
  21212595.575   -21145516.17143 -16371969.55242  21212597.368    21212593.201
  21869308.324   -17239918.66743 -13418306.72042  21869308.740    21869305.746
  20563990.543   -28332869.36644 -22066459.71842  20563991.900    20563988.135
  21915472.294   -20547649.67043 -15967189.02042  21915473.293    21915468.789
  24001137.740    -8574389.27343  -6574477.59342  24001139.590    24001136.956
  23918865.611    -8631599.84643  -6587997.66342  23918867.143    23918863.962
 04  1 11  1  3  0.0000000  0 10G10G24G29G 5G30G17G 6G21G26G18
  21905375.574   -15064973.43443 -11701094.92942  21905376.277    21905373.210
  24860476.591    -3732700.12243  -2901228.12142  24860477.051    24860474.600
  23879666.323    -7104285.77643  -5511945.27442  23879667.971    23879664.829
  23766537.305    -9725144.35243  -7543812.84742  23766538.104    23766535.593
  21226657.916   -21071618.17443 -16314386.71042  21226659.718    21226655.539
  21880236.380   -17182491.42043 -13373558.21542  21880236.771    21880233.789
  20558209.899   -28363246.85644 -22090130.48842  20558211.236    20558207.483
  21905068.650   -20602321.13243 -16009790.14442  21905069.633    21905065.155
  23984426.892    -8662205.11543  -6642905.45242  23984428.717    23984426.090
  23898266.957    -8739845.91843  -6672345.16442  23898268.447    23898265.345
 04  1 11  1  3 30.0000000  0 10G10G24G29G 5G30G17G 6G21G26G18
  21919010.945   -14993319.09843 -11645260.38342  21919011.645    21919008.562
  24875882.404    -3651742.39243  -2838144.14642  24875882.757    24875880.266
  23868264.175    -7164203.68043  -5558634.50142  23868265.823    23868262.900
  23787025.819    -9617476.21843  -7459915.62642  23787026.667    23787024.141
  21240799.780   -20997302.37043 -16256478.30442  21240801.568    21240797.376
  21891190.613   -17124926.48943 -13328702.42442  21891191.020    21891188.034
  20552486.492   -28393323.40244 -22113566.75142  20552487.845    20552484.106
  21894707.615   -20656768.70543 -16052216.80742  21894708.596    21894704.144
  23967736.301    -8749914.59643  -6711250.43942  23967738.070    23967735.466
  23877691.057    -8847972.76943  -6756599.79642  23877692.522    23877689.272
 04  1 11  1  4  0.0000000  0  9G10G29G 5G30G17G 6G21G26G18
  21932733.501   -14921206.44243 -11589068.70142  21932734.241    21932731.158
  23856915.125    -7223843.27543  -5605106.88542  23856916.781    23856913.758
  23807529.383    -9509729.88543  -7375957.48942  23807530.209    23807527.660
  21255022.717   -20922560.40043 -16198237.82042  21255024.520    21255020.332
  21902172.892   -17067214.31643 -13283731.89542  21902173.289    21902170.323
  20546822.680   -28423086.76544 -22136758.97642  20546824.042    20546820.318
  21884391.125   -20710981.97643 -16094460.89542  21884392.126    21884387.682
  23951068.663    -8837503.37043  -6779501.37742  23951070.443    23951067.805
  23857140.494    -8955967.02243  -6840751.08442  23857141.913    23857138.601
 04  1 11  1  4 30.0000000  0  9G10G29G 5G30G17G 6G21G26G18
  21946538.459   -14848660.86243 -11532539.67742  21946539.191    21946536.128
  23845615.166    -7283224.47843  -5651377.90742  23845616.817    23845613.827
  23828042.917    -9401930.50643  -7291958.02742  23828043.767    23828041.200
  21269321.946   -20847417.47143 -16139684.90242  21269323.742    21269319.573
  21913178.676   -17009378.58943 -13238665.09542  21913179.065    21913176.107
  20541214.486   -28452558.00244 -22159723.57442  20541215.837    20541212.123
  21874114.986   -20764983.41743 -16136539.91842  21874115.995    21874111.562
  23934420.362    -8924990.67643  -6847673.25042  23934422.168    23934419.463
  23836611.124    -9063849.25943  -6924815.12142  23836612.521    23836609.217
 04  1 11  1  5  0.0000000  0  9G10G29G 5G30G17G 6G21G26G18
  21960426.802   -14775676.96043 -11475669.10042  21960427.560    21960424.497
  23834366.506    -7342336.27043  -5697439.01142  23834368.184    23834365.208
  23848567.584    -9294072.91843  -7207913.17842  23848568.449    23848565.829
  21283698.490   -20771868.18743 -16080815.34342  21283700.305    21283696.124
  21924209.271   -16951412.19143 -13193496.47042  21924209.717    21924206.736
  20535663.731   -28481727.44544 -22182453.00342  20535665.090    20535661.371
  21863880.649   -20818765.15743 -16178447.75042  21863881.660    21863877.225
  23917793.540    -9012364.91643  -6915757.02742  23917795.376    23917792.694
  23816105.240    -9171608.79043  -7008783.53842  23816106.589    23816103.147
 04  1 11  1  5 30.0000000  0  9G10G29G 5G30G17G 6G21G26G18
  21974399.979   -14702247.39443 -11418451.25842  21974400.741    21974397.686
  23823171.665    -7401165.83043  -5743280.19842  23823173.291    23823170.172
  23869104.853    -9186149.48243  -7123817.04642  23869105.619    23869103.054
  21298153.774   -20695905.15543 -16021623.39042  21298155.588    21298151.436
  21935266.480   -16893306.18643 -13148219.06042  21935266.957    21935263.945
  20530172.579   -28510583.64344 -22204938.34542  20530173.929    20530170.213
  21853690.014   -20872317.25343 -16220176.63742  21853691.013    21853686.573
  23901190.839    -9099612.65043  -6983742.23142  23901192.658    23901189.962
  23795624.944    -9279233.29043  -7092646.71742  23795626.281    23795622.791
 04  1 11  1  6  0.0000000  0  9G10G29G 5G30G17G 6G21G26G18
  21988454.989   -14628387.80643 -11360898.32942  21988455.744    21988452.707
  23812028.628    -7459722.96943  -5788909.10642  23812030.255    23812027.029
  23889651.684    -9078175.38343  -7039681.41442  23889652.449    23889649.823
  21312684.918   -20619543.60543 -15962120.89742  21312686.739    21312682.561
  21946347.654   -16835074.20743 -13102843.48842  21946348.140    21946345.122
  20524738.924   -28539137.59644 -22227188.17142  20524740.307    20524736.569
  21843540.675   -20925652.31843 -16261736.40542  21843541.666    21843537.221
  23884610.406    -9186743.01943  -7051635.97442  23884612.243    23884609.549
  23775168.298    -9386733.43843  -7176412.99042  23775169.610    23775166.103
 04  1 11  1  6 30.0000000  0  9G10G29G 5G30G17G 6G21G26G18
  22002592.961   -14554092.09143 -11303005.56042  22002593.705    22002590.712
  23800939.592    -7517996.09443  -5834316.69442  23800941.238    23800938.074
  23910209.304    -8970144.60343  -6955501.60242  23910210.093    23910207.397
  21327293.012   -20542777.44043 -15902303.12442  21327294.834    21327290.698
  21957454.276   -16776708.55843 -13057363.75642  21957454.753    21957451.749
  20519364.701   -28567379.29144 -22249194.68342  20519366.084    20519362.341
  21833434.214   -20978762.01343 -16303120.56042  21833435.232    21833430.758
  23868054.640    -9273743.94843  -7119428.86342  23868056.499    23868053.740
  23754737.495    -9494098.17643  -7260073.79342  23754738.819    23754735.130
 04  1 11  1  7  0.0000000  0  9G10G29G 5G30G17G 6G21G26G18
  22016813.075   -14479365.02143 -11244776.67442  22016813.754    22016810.823
  23789904.641    -7575984.84343  -5879502.68642  23789906.343    23789903.184
  23930776.690    -8862062.25443  -6871281.66042  23930777.490    23930774.905
  21341977.194   -20465611.58943 -15842173.90542  21341979.009    21341974.918
  21968585.664   -16718212.67643 -13011782.54542  21968586.146    21968583.156
  20514049.759   -28595309.50044 -22270958.47742  20514051.146    20514047.402
  21823370.123   -21031649.08743 -16344331.24842  21823371.168    21823366.669
  23851523.699    -9360614.18143  -7187119.91642  23851525.554    23851522.897
  23734332.393    -9601327.21143  -7343628.82442  23734333.711    23734330.052
 04  1 11  1  7 30.0000000  0  9G10G29G 5G30G17G 6G21G26G18
  22031114.408   -14404210.88043 -11186215.00242  22031115.080    22031112.172
  23778924.070    -7633687.77943  -5924465.97042  23778925.817    23778922.550
  23951353.163    -8753932.37443  -6787024.62242  23951354.041    23951351.290
  21356736.658   -20388050.13143 -15781736.42142  21356738.459    21356734.384
  21979741.395   -16659588.85843 -12966101.64642  21979741.894    21979738.898
  20508794.122   -28622928.07444 -22292479.44042  20508795.500    20508791.757
  21813348.084   -21084315.11343 -16385369.69442  21813349.147    21813344.613
  23835018.031    -9447351.77143  -7254707.61342  23835019.919    23835017.239
  23713953.236    -9708419.90443  -7427077.59042  23713954.523    23713951.032
 04  1 11  1  8  0.0000000  0  9G10G29G 5G30G17G 6G21G26G18
  22045496.869   -14328630.41843 -11127321.13542  22045497.577    22045494.675
  23767998.840    -7691100.20543  -5969202.88242  23768000.604    23767997.301
  23971938.505    -8645755.54743  -6702731.03342  23971939.351    23971936.703
  21371571.233   -20310093.92543 -15720991.34342  21371573.031    21371568.980
  21990921.578   -16600836.59943 -12920320.66042  21990922.068    21990919.085
  20503598.443   -28650231.51844 -22313754.84342  20503599.830    20503596.080
  21803368.556   -21136757.71443 -16426234.03842  21803369.643    21803365.120
  23818538.679    -9533951.22043  -7322187.66042  23818540.529    23818537.835
  23693601.009    -9815371.45643  -7510416.43042  23693602.316    23693598.677
 04  1 11  1  8 30.0000000  0  9G10G29G 5G30G17G 6G21G26G18
  22059959.859   -14252626.81643 -11068097.54842  22059960.573    22059957.657
  23757129.269    -7748219.84043  -6013711.61942  23757131.068    23757127.794
  23992532.365    -8537534.64543  -6618403.09742  23992533.199    23992530.510
  21386480.408   -20231745.74343 -15659940.82642  21386482.204    21386478.159
  22002125.996   -16541957.02443 -12874440.46742  22002126.476    22002123.493
  20498462.949   -28677218.68044 -22334783.80042  20498464.336    20498460.597
  21793431.502   -21188977.35143 -16466924.65042  21793432.551    21793428.013
  23802086.205    -9620409.57943  -7389557.76742  23802088.044    23802085.275
  23673275.821    -9922180.56043  -7593644.23542  23673277.150    23673273.594
 04  1 11  1  9  0.0000000  0  9G10G29G 5G30G17G 6G21G26G18
  22074502.558   -14176204.28443 -11008547.52042  22074503.290    22074500.395
  23746315.745    -7805045.24143  -6057991.11042  23746317.461    23746314.247
  24013133.664    -8429273.62343  -6534043.88342  24013134.584    24013131.828
  21401463.330   -20153009.93143 -15598588.26842  21401465.118    21401461.102
  22013354.193   -16482952.50243 -12828462.91542  22013354.671    22013351.692
  20493387.670   -28703889.45844 -22355566.22042  20493389.064    20493385.310
  21783536.494   -21240975.94943 -16507443.02442  21783537.539    21783532.981
  23785660.958    -9706724.73043  -7456816.28542  23785662.774    23785660.037
  23652977.984   -10028846.21843  -7676760.27742  23652979.322    23652975.740
 04  1 11  1  9 30.0000000  0  9G10G29G 5G30G17G 6G21G26G18
  22089124.424   -14099366.00343 -10948673.52842  22089125.123    22089122.238
  23735558.653    -7861574.19243  -6102039.60542  23735560.414    23735557.038
  24033742.021    -8320976.01943  -6449656.16342  24033742.953    24033740.299
  21416519.429   -20073889.74143 -15536936.18642  21416521.207    21416517.181
  22024605.838   -16423824.74943 -12782389.32542  22024606.314    22024603.324
  20488372.780   -28730242.93144 -22376101.38842  20488374.155    20488370.407
  21773683.421   -21292754.13343 -16547789.63542  21773684.467    21773679.888
  23769263.541    -9792893.69043  -7523960.88942  23769265.318    23769262.541
  23632707.756   -10135366.83743  -7759763.31142  23632709.058    23632705.380
 04  1 11  1 10  0.0000000  0  9G10G29G 5G30G17G 6G21G26G18
  22103825.258   -14022112.36043 -10888475.88442  22103825.998    22103823.078
  23724858.966    -7917801.19443  -6145852.79942  23724860.721    23724857.355
  24054357.491    -8212641.40743  -6365239.62742  24054358.369    24054355.800
  21431648.659   -19994385.14143 -15474984.56742  21431650.428    21431646.421
  22035881.235   -16364572.08743 -12736218.41942  22035881.711    22035878.741
  20483419.022   -28756274.94644 -22396386.06642  20483420.430    20483416.704
  21763872.693   -21344309.82843 -16587962.88542  21763873.731    21763869.132
  23752895.066    -9878910.40443  -7590986.85242  23752896.870    23752894.051
  23612466.182   -10241736.96743  -7842649.07442  23612467.414    23612463.820
 04  1 11  1 10 30.0000000  0  9G10G29G 5G30G17G 6G21G26G18
  22118604.651   -13944446.23443 -10827956.82042  22118605.368    22118602.424
  23714217.350    -7973723.62443  -6189428.67842  23714219.074    23714215.644
  24074979.301    -8104272.89143  -6280796.64042  24074980.227    24074977.681
  21446850.476   -19914499.08843 -15412735.71542  21446852.260    21446848.225
  22047180.183   -16305195.53843 -12689950.97342  22047180.683    22047177.714
  20478526.712   -28781984.20744 -22416419.25542  20478528.107    20478524.381
  21754104.274   -21395643.21343 -16627962.90542  21754105.312    21754100.697
  23736556.226    -9964771.38743  -7657891.46242  23736558.009    23736555.220
  23592253.620   -10347954.72143  -7925416.11442  23592254.846    23592251.212
 04  1 11  1 11  0.0000000  0  9G10G29G 5G30G17G 6G21G26G18
  22133461.868   -13866370.97643 -10767118.95742  22133462.590    22133459.650
  23703633.862    -8029339.60443  -6232765.75242  23703635.581    23703632.140
  24095607.087    -7995873.46443  -6196329.57442  24095608.004    24095605.449
  21462124.284   -19834234.96043 -15350192.25642  21462126.048    21462121.998
  22058502.408   -16245696.88743 -12643588.38442  22058502.870    22058499.932
  20473696.005   -28807369.78144 -22436200.21142  20473697.397    20473693.656
  21744378.038   -21446754.95443 -16667790.21942  21744379.078    21744374.434
  23720247.494   -10050474.07043  -7724672.71142  23720249.271    23720246.509
  23572070.132   -10454018.68443  -8008063.29142  23572071.437    23572067.825
 04  1 11  1 11 30.0000000  0  9G10G29G 5G30G17G 6G21G26G18
  22148396.202   -13787890.54243 -10705965.36842  22148396.921    22148393.944
  23693109.171    -8084647.49143  -6275862.77442  23693110.888    23693107.410
  24116240.027    -7887446.84343  -6111841.34042  24116240.825    24116238.415
  21477469.330   -19753596.34643 -15287356.98642  21477471.108    21477467.037
  22069847.469   -16186078.13143 -12597132.20342  22069847.931    22069844.990
  20468926.962   -28832431.29944 -22455728.65742  20468928.339    20468924.599
  21734693.780   -21497646.01343 -16707445.57442  21734694.819    21734690.149
  23703969.336   -10136015.95543  -7791328.68042  23703971.120    23703968.344
  23551916.326   -10559927.34443  -8090589.46842  23551917.616    23551914.057
 04  1 11  1 12  0.0000000  0  9G10G29G 5G30G17G 6G21G26G18
  22163407.122   -13709007.53443 -10644498.08242  22163407.862    22163404.855
  23682643.488    -8139644.47543  -6318717.51542  23682645.168    23682641.862
  24136877.598    -7778995.73243  -6027333.98242  24136878.440    24136875.912
  21492885.022   -19672586.38243 -15224232.35942  21492886.802    21492882.731
  22081215.225   -16126340.33043 -12550583.25542  22081215.638    22081212.715
  20464219.854   -28857167.35844 -22475003.50042  20464221.228    20464217.471
  21725051.461   -21548316.69743 -16746929.20642  21725052.496    21725047.805
  23687722.541   -10221393.55943  -7857856.61742  23687724.321    23687721.483
  23531792.431   -10665678.68843  -8172993.06242  23531793.687    23531790.213
 04  1 11  1 12 30.0000000  0  9G10G29G 5G30G17G 6G21G26G18
  22178494.480   -13629723.02143 -10582717.93942  22178495.195    22178492.167
  23672238.030    -8194325.90243  -6361326.39242  23672239.696    23672236.257
  24157519.732    -7670520.46143  -5942807.83242  24157520.571    24157518.110
  21508371.255   -19591205.80143 -15160818.93642  21508373.021    21508368.946
  22092605.789   -16066482.52643 -12503940.81142  22092606.208    22092603.280
  20459575.307   -28881574.52344 -22494022.06442  20459576.689    20459572.931
  21715451.353   -21598765.49343 -16786239.94242  21715452.395    21715447.710
  23671507.974   -10306601.58043  -7924252.42442  23671509.775    23671506.896
  23511699.247   -10771268.65743  -8255270.91642  23511700.485    23511696.995
 04  1 11  1 13  0.0000000  0  9G10G29G 5G30G17G 6G21G26G18
  22193657.612   -13550040.45143 -10520627.61842  22193658.289    22193655.252
  23661892.818    -8248689.80543  -6403687.82242  23661894.470    23661891.110
  24178165.876    -7562024.38443  -5858265.47942  24178166.656    24178164.292
  21523927.419   -19509457.80943 -15097119.21542  21523929.191    21523925.090
  22104018.931   -16006506.33843 -12457206.11242  22104019.273    22104016.350
  20454993.544   -28905651.73444 -22512783.52042  20454994.957    20454991.186
  21705893.329   -21648993.23243 -16825378.41942  21705894.369    21705889.662
  23655326.321   -10391636.68843  -7990513.49442  23655328.064    23655325.268
  23491637.324   -10876695.13643  -8337421.37942  23491638.522    23491634.961
 04  1 11  1 13 30.0000000  0  9G10G29G 5G30G17G 6G21G26G18
  22208896.015   -13469962.07943 -10458228.87742  22208896.700    22208893.625
  23651608.820    -8302732.91543  -6445799.32142  23651610.455    23651607.013
  24198815.640    -7453509.80143  -5773708.65842  24198816.426    24198813.951
  21539553.043   -19427344.69543 -15033134.98542  21539554.811    21539550.726
  22115454.481   -15946411.96843 -12410379.32142  22115454.835    22115451.940
  20450474.951   -28929397.14944 -22531286.43642  20450476.340    20450472.586
  21696377.480   -21698999.28143 -16864344.15042  21696378.518    21696373.814
  23639178.221   -10476495.27543  -8056637.02342  23639179.931    23639177.100
  23471606.851   -10981955.58043  -8419442.44842  23471608.057    23471604.528
 04  1 11  1 14  0.0000000  0  9G10G29G 5G30G17G 6G21G26G18
  22224208.767   -13389493.03543 -10395525.71642  22224209.429    22224206.362
  23641385.739    -8356454.80143  -6487660.47642  23641387.353    23641384.080
  24219467.876    -7344981.34343  -5689141.07342  24219468.684    24219466.219
  21555247.190   -19344871.64743 -14968870.28742  21555248.931    21555244.834
  22126911.906   -15886202.90343 -12363463.15942  22126912.239    22126909.342
  20446019.323   -28952811.67544 -22549531.51842  20446020.693    20446016.953
  21686903.233   -21748786.68643 -16903139.51242  21686904.274    21686899.530
  23623063.911   -10561176.13243  -8122622.05142  23623065.689    23623062.812
  23451607.979   -11087050.44043  -8501334.51342  23451609.168    23451605.544
 04  1 11  1 14 30.0000000  0  9G10G29G 5G30G17G 6G21G26G18
  22239595.958   -13308632.78543 -10332517.72342  22239596.661    22239593.493
  23631225.179    -8409849.36643  -6529266.61442  23631226.764    23631223.398
  24240122.967    -7236438.21643  -5604562.03942  24240123.746    24240121.377
  21571009.889   -19262038.06143 -14904324.65042  21571011.653    21571007.566
  22138391.642   -15825876.40943 -12316455.49242  22138391.950    22138389.092
  20441627.617   -28975890.33944 -22567514.88842  20441628.976    20441625.208
  21677471.288   -21798351.79443 -16941761.65542  21677472.330    21677467.587
  23606984.795   -10645672.32843  -8188463.20142  23606986.519    23606983.694
  23431641.697   -11191973.30643  -8583092.52542  23431642.901    23431639.351
 04  1 11  1 15  0.0000000  0  9G10G29G 5G30G17G 6G21G26G18
  22255056.350   -13227387.87343 -10269209.98942  22255057.039    22255053.859
  23621126.492    -8462917.66543  -6570618.49342  23621128.117    23621124.782
  24260779.603    -7127886.74043  -5519976.48042  24260780.387    24260778.036
  21586839.984   -19178850.47643 -14839503.17142  21586841.739    21586837.628
  22149892.750   -15765437.55443 -12269360.27542  22149893.059    22149890.214
  20437299.347   -28998635.45944 -22585238.35142  20437300.722    20437296.954
  21668080.894   -21847698.62543 -16980213.71242  21668081.928    21668077.160
  23590940.777   -10729984.02643  -8254160.57842  23590942.456    23590939.704
  23411707.986   -11296725.68643  -8664717.70142  23411709.215    23411705.598
 04  1 11  1 15 30.0000000  0 10G10G29G 5G30G17G 6G21G26G18G16
  22270590.286   -13145756.52043 -10205601.13342  22270590.951    22270587.776
  23611091.335    -8515652.57143  -6611710.59842  23611092.919    23611089.559
  24281438.275    -7019324.66543  -5435382.69442  24281439.062    24281436.761
  21602737.806   -19095306.93243 -14774404.32242  21602739.574    21602735.458
  22161416.002   -15704882.22343 -12222174.29742  22161416.312    22161413.506
  20433035.754   -29021040.78344 -22602697.03942  20433037.110    20433033.362
  21658732.964   -21896822.37843 -17018491.94442  21658733.986    21658729.205
  23574933.319   -10814103.11943  -8319707.87842  23574935.081    23574932.289
  23391807.927   -11401300.98343  -8746204.91742  23391809.174    23391805.545
  24753084.974    -4936278.04053  -3834290.33252  24753086.239    24753082.205
 04  1 11  1 16  0.0000000  0 10G10G29G 5G30G17G 6G21G26G18G16
  22286192.368   -13063766.93543 -10141713.13042  22286193.062    22286189.853
  23601115.260    -8568077.01943  -6652560.77242  23601116.914    23601113.498
  24302093.664    -6910780.42543  -5350802.78042  24302094.439    24302092.118
  21618697.921   -19011435.93443 -14709050.31442  21618699.708    21618695.579
  22172956.352   -15644237.17843 -12174918.40742  22172956.654    22172953.876
  20428832.176   -29043130.69544 -22619909.95242  20428833.532    20428829.792
  21649422.456   -21945749.18343 -17056616.71242  21649423.475    21649418.714
  23558958.446   -10898051.65543  -8385122.27742  23558960.158    23558957.342
  23371937.151   -11505722.47843  -8827572.26042  23371938.375    23371934.763
  24736164.698    -5025195.09343  -3903576.33642  24736165.977    24736162.089
 04  1 11  1 16 30.0000000  0 10G10G29G 5G30G17G 6G21G26G18G16
  22301870.519   -12981377.67643 -10077513.70042  22301871.210    22301867.991
  23591207.183    -8620143.92243  -6693132.35842  23591208.918    23591205.417
  24322753.445    -6802212.20843  -5266204.20742  24322754.274    24322751.972
  21634728.262   -18927196.04843 -14643408.86542  21634730.042    21634725.934
  22184522.007   -15583459.07543 -12127558.83942  22184522.324    22184519.561
  20424697.361   -29064859.31444 -22636841.33742  20424698.724    20424694.975
  21640157.878   -21994434.84443 -17094553.57242  21640158.895    21640154.103
  23543025.147   -10981781.90143  -8450366.58042  23543026.792    23543023.985
  23352104.536   -11609943.58843  -8908783.46942  23352105.789    23352102.129
  24719303.906    -5113799.00243  -3972618.31742  24719305.147    24719301.200
 04  1 11  1 17  0.0000000  0 10G10G29G 5G30G17G 6G21G26G18G16
  22317620.309   -12898611.81643 -10013020.80742  22317621.016    22317617.784
  23581363.866    -8671870.66943  -6733438.88242  23581365.597    23581362.212
  24343413.575    -6693642.39443  -5181604.37242  24343414.518    24343412.176
  21650824.470   -18842610.06243 -14577497.72242  21650826.235    21650822.107
  22196109.031   -15522568.72643 -12080111.81142  22196109.347    22196106.570
  20420627.762   -29086245.10744 -22653505.58142  20420629.141    20420625.372
  21630935.283   -22042899.87643 -17132318.51742  21630936.284    21630931.491
  23527130.139   -11065310.37343  -8515453.65742  23527131.854    23527128.987
  23332306.634   -11713982.09343  -8989852.40442  23332307.856    23332304.157
  24702499.406    -5202107.19743  -4041429.88042  24702500.660    24702496.657
 04  1 11  1 17 30.0000000  0 10G10G29G 5G30G17G 6G21G26G18G16
  22333440.561   -12815476.01843  -9948239.65242  22333441.227    22333438.002
  23571585.064    -8723258.58343  -6773481.37342  23571586.783    23571583.425
  24364072.761    -6585077.63443  -5097008.50042  24364073.663    24364071.435
  21666985.294   -18757684.51743 -14511321.99442  21666987.048    21666982.941
  22207716.555   -15461570.79243 -12032580.94642  22207716.879    22207714.070
  20416622.957   -29107290.43744 -22669904.52942  20416624.343    20416620.563
  21621753.969   -22091147.96243 -17169914.41342  21621754.968    21621750.182
  23511273.529   -11148637.25643  -8580383.63642  23511275.301    23511272.395
  23312543.280   -11817839.55043  -9070780.24542  23312544.482    23312540.731
  24685750.946    -5290121.09843  -4110012.12842  24685752.225    24685748.074
 04  1 11  1 18  0.0000000  0 10G10G29G 5G30G17G 6G21G26G18G16
  22349331.183   -12731970.05143  -9883170.05342  22349331.871    22349328.644
  23561871.860    -8774301.79243  -6813255.26142  23561873.481    23561870.203
  24384731.174    -6476517.14843  -5012415.95242  24384732.073    24384729.853
  21683210.741   -18672419.30443 -14444881.58142  21683212.480    21683208.386
  22219344.900   -15400463.29343 -11984964.69942  22219345.243    22219342.432
  20412683.801   -29127990.82644 -22686034.69242  20412685.205    20412681.387
  21612614.422   -22139176.43543 -17207339.18142  21612615.412    21612610.666
  23495456.445   -11231756.15743  -8645151.56242  23495458.255    23495455.312
  23292815.310   -11921510.51143  -9151562.76442  23292816.509    23292812.753
  24669059.568    -5377834.94843  -4178360.55542  24669060.763    24669056.684
 04  1 11  1 18 30.0000000  0 10G10G29G 5G30G17G 6G21G26G18G16
  22365292.278   -12648093.84043  -9817811.94842  22365292.979    22365289.738
  23552225.271    -8824994.83843  -6852756.29942  23552226.858    23552223.613
  24405388.868    -6367960.39543  -4927826.29542  24405389.749    24405387.533
  21699500.799   -18586814.27143 -14378176.38042  21699502.549    21699498.524
  22230994.577   -15339243.91043 -11937261.27542  22230994.876    22230992.064
  20408811.121   -29148341.89044 -22701892.65942  20408812.512    20408808.695
  21603517.246   -22186982.32043 -17244590.50242  21603518.264    21603513.501
  23479680.207   -11314660.46243  -8709752.27342  23479682.035    23479679.123
  23273123.832   -12024989.97843  -9232196.07942  23273125.004    23273121.189
  24652426.286    -5465243.40943  -4246471.00442  24652427.486    24652423.302
 04  1 11  1 19  0.0000000  0 10G10G29G 5G30G17G 6G21G26G18G16
  22381322.046   -12563857.04143  -9752172.87642  22381322.715    22381319.450
  23542644.455    -8875342.08743  -6891987.88142  23542646.058    23542642.796
  24426043.949    -6259416.99943  -4843247.05442  24426044.835    24426042.605
  21715853.696   -18500879.27843 -14311214.06242  21715855.457    21715851.399
  22242663.972   -15277920.64143 -11889476.89842  22242664.303    22242661.475
  20405003.906   -29168348.96844 -22717482.58242  20405005.289    20405001.460
  21594460.998   -22234573.23743 -17281674.32042  21594461.988    21594457.252
  23463944.154   -11397353.57643  -8774188.40242  23463945.990    23463943.043
  23253467.921   -12128282.38143  -9312683.62142  23253469.100    23253465.302
  24635850.131    -5552351.09343  -4314347.09442  24635851.434    24635847.227
 04  1 11  1 19 30.0000000  0 10G10G29G 5G30G17G 6G21G26G18G16
  22397420.998   -12479256.34743  -9686250.24842  22397421.679    22397418.419
  23533131.099    -8925334.82843  -6930943.22842  23533132.682    23533129.474
  24446697.272    -6150883.24643  -4758675.34342  24446698.061    24446695.937
  21732270.035   -18414610.75043 -14243991.85342  21732271.807    21732267.798
  22254354.246   -15216487.88643 -11841607.20842  22254354.590    22254351.728
  20401263.610   -29188004.45844 -22732798.54442  20401264.980    20401261.138
  21585446.906   -22281942.43043 -17318585.36042  21585447.910    21585443.186
  23448250.204   -11479825.72243  -8838452.36242  23448251.996    23448249.084
  23233849.152   -12231379.58343  -9393019.06742  23233850.315    23233846.486
  24619332.971    -5639149.04943  -4381981.84142  24619334.440    24619329.998
 04  1 11  1 20  0.0000000  0 10G10G29G 5G30G17G 6G21G26G18G16
  22413588.050   -12394297.77343  -9620048.74542  22413588.763    22413585.506
  23523685.126    -8974973.27943  -6969622.48942  23523686.705    23523683.509
  24467347.686    -6042364.79643  -4674115.55542  24467348.445    24467346.336
  21748748.680   -18328014.78743 -14176514.49442  21748750.459    21748746.478
  22266064.544   -15154949.83843 -11793655.47542  22266064.886    22266061.980
  20397589.912   -29207309.80744 -22747841.66542  20397591.287    20397587.438
  21576474.381   -22329093.32343 -17355326.30142  21576475.381    21576470.662
  23432598.419   -11562076.47843  -8902543.80242  23432600.157    23432597.218
  23214267.406   -12334282.19243  -9473202.88542  23214268.595    23214264.726
  24602874.648    -5725637.99243  -4449375.77942  24602876.071    24602871.759
 04  1 11  1 20 30.0000000  0 10G10G29G 5G30G17G 6G21G26G18G16
  22429823.027   -12308982.37143  -9553569.20442  22429823.728    22429820.491
  23514307.399    -9024253.37843  -7008022.51842  23514309.011    23514305.823
  24487995.084    -5933862.44843  -4589568.29442  24487995.775    24487993.778
  21765289.468   -18241092.53243 -14108782.88842  21765291.232    21765287.255
  22277795.043   -15093305.46243 -11745620.88042  22277795.429    22277792.494
  20393983.350   -29226262.12744 -22762609.70042  20393984.772    20393980.927
  21567543.605   -22376024.71943 -17391896.20542  21567544.603    21567539.905
  23416989.749   -11644100.61443  -8966458.66642  23416991.392    23416988.487
  23194723.446   -12436986.28543  -9553232.00142  23194724.613    23194720.766
  24586475.938    -5811813.66443  -4516525.61542  24586477.397    24586473.182
 04  1 11  1 21  0.0000000  0 10G10G29G 5G30G17G 6G21G26G18G16
  22446124.371   -12223318.15343  -9486817.86042  22446125.056    22446121.852
  23504997.276    -9073177.79043  -7046145.38542  23504998.965    23504995.728
  24508637.940    -5825383.58343  -4505039.33442  24508638.616    24508636.641
  21781890.788   -18153852.09743 -14040803.34542  21781892.560    21781888.565
  22289544.732   -15031560.60243 -11697507.99242  22289545.108    22289542.126
  20390443.251   -29244865.14544 -22777105.55042  20390444.712    20390440.878
  21558653.639   -22422741.75443 -17428299.06942  21558654.628    21558649.944
  23401423.855   -11725899.79543  -9030198.22642  23401425.494    23401422.599
  23175216.688   -12539494.77743  -9633108.72342  23175217.898    23175213.949
  24570136.368    -5897678.73843  -4583433.43742  24570137.719    24570133.662
 04  1 11  1 21 30.0000000  0 10G10G29G 5G30G17G 6G21G26G18G16
  22462492.752   -12137301.63043  -9419791.98842  22462493.446    22462490.252
  23495756.685    -9121737.57443  -7083984.15242  23495758.363    23495755.045
  24529277.029    -5716924.50243  -4420525.80942  24529277.699    24529275.711
  21798553.343   -18066289.77643 -13972572.98842  21798555.110    21798551.161
  22301314.494   -14969710.06943 -11649312.75742  22301314.884    22301311.890
  20386971.210   -29263110.93444 -22791323.03542  20386972.658    20386968.816
  21549805.635   -22469238.26643 -17464530.10042  21549806.622    21549801.960
  23385902.636   -11807464.06043  -9093754.74142  23385904.345    23385901.332
  23155748.727   -12641799.18643  -9712826.40342  23155749.973    23155746.052
  24553857.533    -5983224.35643  -4650092.31942  24553858.982    24553854.803
 04  1 11  1 22  0.0000000  0 10G10G29G 5G30G17G 6G21G26G18G16
  22478927.288   -12050937.27043  -9352495.06942  22478928.033    22478924.877
  23486585.504    -9169931.62943  -7121537.88942  23486587.186    23486583.970
  24549911.647    -5608489.18943  -4336030.79442  24549912.326    24549910.251
  21815276.326   -17978410.07143 -13904095.31942  21815278.070    21815274.134
  22313103.965   -14907756.01643 -11601036.86242  22313104.357    22313101.308
  20383567.094   -29280999.64944 -22805262.28742  20383568.543    20383564.697
  21540999.264   -22515515.95943 -17500590.62042  21541000.252    21540995.592
  23370426.474   -11888791.49143  -9157126.70142  23370428.253    23370425.171
  23136319.818   -12743898.57643  -9792384.33242  23136321.122    23136317.195
  24537639.714    -6068449.67343  -4716501.61742  24537640.949    24537636.907
 04  1 11  1 22 30.0000000  0 10G10G29G 5G30G17G 6G21G26G18G16
  22495427.485   -11964228.34743  -9284929.67042  22495428.159    22495425.042
  23477484.454    -9217758.04143  -7158805.19042  23477486.116    23477482.870
  24570541.071    -5500080.85843  -4251556.81242  24570541.780    24570539.611
  21832059.037   -17890216.43843 -13835373.02742  21832060.778    21832056.854
  22324912.801   -14845699.91143 -11552681.43342  22324913.263    22324910.203
  20380231.096   -29298530.46444 -22818922.65842  20380232.526    20380228.696
  21532234.320   -22561575.92743 -17536481.48542  21532235.307    21532230.646
  23354995.935   -11969879.17843  -9220311.85142  23354997.739    23354994.653
  23116930.248   -12845791.43043  -9871781.33842  23116931.518    23116927.546
  24521483.166    -6153352.80343  -4782659.87542  24521484.323    24521480.311
 04  1 11  1 23  0.0000000  0 10G10G29G 5G30G17G 6G21G26G18G16
  22511992.254   -11877179.80843  -9217099.63142  22511992.954    22511989.837
  23468453.336    -9265216.35343  -7195785.64542  23468455.060    23468451.785
  24591164.590    -5391703.57743  -4167106.99742  24591165.360    24591163.172
  21848900.485   -17801713.93843 -13766410.06642  21848902.242    21848898.355
  22336740.599   -14783544.58943 -11504248.70542  22336741.021    22336737.929
  20376963.104   -29315703.90244 -22832304.55142  20376964.536    20376960.677
  21523510.476   -22607419.89943 -17572204.04242  21523511.485    21523506.810
  23339611.325   -12050725.49643  -9283308.92342  23339613.186    23339610.015
  23097579.982   -12947477.57843  -9951017.25142  23097581.271    23097577.332
  24505387.982    -6237933.14043  -4848566.59142  24505389.238    24505385.245
 04  1 11  1 23 30.0000000  0 10G10G29G 5G30G17G 6G21G26G18G16
  22528621.582   -11789792.00343  -9149005.22942  22528622.290    22528619.200
  23459493.347    -9312301.58343  -7232475.39542  23459495.045    23459491.709
  24611782.125    -5283357.95443  -4082681.86242  24611782.939    24611780.721
  21865800.680   -17712902.83143 -13697206.61942  21865802.439    21865798.549
  22348587.547   -14721288.29743 -11455737.29342  22348587.987    22348584.906
  20373763.856   -29332516.16144 -22845405.00542  20373765.249    20373761.410
  21514828.092   -22653046.08643 -17607756.89742  21514829.078    21514824.438
  23324273.796   -12131324.55843  -9346113.34342  23324275.638    23324272.530
  23078269.922   -13048952.36543 -10030088.48942  23078271.203    23078267.261
  24489355.173    -6322185.96943  -4914218.12042  24489356.536    24489352.425
 04  1 11  1 24  0.0000000  0 10G10G29G 5G30G17G 6G21G26G18G16
  22545315.281   -11702065.98743  -9080647.29042  22545315.993    22545312.904
  23450605.157    -9359009.20643  -7268870.89342  23450606.851    23450603.540
  24632393.600    -5175044.11043  -3998281.51642  24632394.426    24632392.258
  21882759.453   -17623783.97743 -13627763.37642  21882761.207    21882757.330
  22360453.976   -14658929.81643 -11407146.25442  22360454.404    22360451.328
  20370633.962   -29348963.82144 -22858221.35242  20370635.373    20370631.525
  21506187.502   -22698452.56543 -17643138.55142  21506188.514    21506183.857
  23308984.361   -12211670.75643  -9408720.70642  23308986.187    23308983.164
  23059000.914   -13150211.60943 -10108991.77342  23059002.194    23058998.213
  24473385.600    -6406106.51543  -4979610.72142  24473386.966    24473382.963
 04  1 11  1 24 30.0000000  0 10G10G29G 5G30G17G 6G21G26G18G16
  22562072.007   -11614008.61743  -9012031.14842  22562072.739    22562069.652
  23441788.567    -9405341.02943  -7304973.59042  23441790.202    23441786.795
  24652997.780    -5066768.63143  -3913911.05142  24652998.571    24652996.362
  21899775.433   -17534364.62243 -13558085.96842  21899777.182    21899773.274
  22372338.834   -14596474.28343 -11358479.59242  22372339.279    22372336.180
  20367572.929   -29365049.69744 -22870755.79442  20367574.308    20367570.466
  21497587.946   -22743643.46243 -17678352.21642  21497588.956    21497584.299
  23293742.870   -12291764.82343  -9471131.61942  23293744.785    23293741.697
  23039772.599   -13251257.08943 -10187728.46742  23039773.839    23039769.951
  24457478.794    -6489696.90343  -5044746.04942  24457480.190    24457476.191
 04  1 11  1 25  0.0000000  0 10G10G29G 5G30G17G 6G21G26G18G16
  22578891.321   -11525622.43043  -8943158.78642  22578892.045    22578889.031
  23433043.911    -9451294.01743  -7340781.07242  23433045.529    23433042.178
  24673594.224    -4958533.51043  -3829571.99542  24673595.152    24673592.782
  21916848.099   -17444647.15543 -13488176.27542  21916849.844    21916845.966
  22384242.149   -14533921.86543 -11309737.43442  22384242.596    22384239.478
  20364581.109   -29380771.78744 -22883006.77142  20364582.487    20364578.636
  21489029.454   -22788618.63943 -17713397.79342  21489030.464    21489025.809
  23278550.220   -12371602.70843  -9533342.92442  23278552.095    23278549.019
  23020585.538   -13352085.82743 -10266296.29542  23020586.771    23020582.738
  24441635.512    -6572953.83343  -5109621.54542  24441636.856    24441632.955
 04  1 11  1 25 30.0000000  0 10G10G29G 5G30G17G 6G21G26G18G16
  22595773.103   -11436908.02243  -8874030.66442  22595773.829    22595770.820
  23424372.378    -9496863.48543  -7376289.72242  23424373.992    23424370.612
  24694182.923    -4850339.18543  -3745264.73942  24694183.861    24694181.489
  21933977.369   -17354632.18843 -13418034.75742  21933979.126    21933975.222
  22396164.124   -14471271.27743 -11260918.77442  22396164.561    22396161.465
  20361659.215   -29396126.55244 -22894971.51842  20361660.573    20361656.722
  21480512.377   -22833376.17043 -17748273.77442  21480513.375    21480508.696
  23263407.369   -12451178.66143  -9595350.11242  23263409.185    23263406.221
  23001440.449   -13452693.68643 -10344691.98042  23001441.686    23001437.711
  24425856.516    -6655872.74043  -5174233.64642  24425857.813    24425854.023
 04  1 11  1 26  0.0000000  0 10G10G29G 5G30G17G 6G21G26G18G16
  22612716.382   -11347870.63843  -8804650.87742  22612717.060    22612714.071
  23415773.754    -9542049.48743  -7411499.56842  23415775.348    23415771.933
  24714763.054    -4742189.99043  -3660992.70742  24714763.941    24714761.630
  21951162.325   -17264324.88043 -13347665.44542  21951164.082    21951160.143
  22408104.276   -14408525.33843 -11212025.82742  22408104.700    22408101.581
  20358807.046   -29411114.79344 -22906650.66242  20358808.400    20358804.552
  21472036.244   -22877918.46643 -17782982.03942  21472037.250    21472032.554
  23248314.712   -12530491.37443  -9657152.18742  23248316.481    23248313.471
  22982337.427   -13553080.84943 -10422915.71742  22982338.615    22982334.593
  24410141.857    -6738453.49043  -5238582.25742  24410143.151    24410139.381
 04  1 11  1 26 30.0000000  0 10G10G29G 5G30G17G 6G21G26G18G16
  22629720.893   -11258511.16343  -8735020.10942  22629721.582    22629718.588
  23407248.967    -9586847.63043  -7446407.17242  23407250.597    23407247.124
  24735334.430    -4634086.85443  -3576756.52842  24735335.352    24735333.088
  21968402.563   -17173726.52643 -13277069.34142  21968404.356    21968400.412
  22420062.748   -14345682.93343 -11163057.70042  22420063.173    22420060.082
  20356025.225   -29425733.33944 -22918041.72742  20356026.591    20356022.719
  21463601.331   -22922244.20843 -17817521.56042  21463602.335    21463597.625
  23233273.089   -12609535.63343  -9718745.07542  23233274.855    23233271.740
  22963277.052   -13653243.80943 -10500964.77442  22963278.241    22963274.116
  24394492.386    -6820691.83343  -5302664.04342  24394493.632    24394489.875
 04  1 11  1 27  0.0000000  0 10G10G29G 5G30G17G 6G21G26G18G16
  22646786.504   -11168830.71843  -8665139.22942  22646787.229    22646784.182
  23398798.745    -9631253.73143  -7481009.29742  23398800.396    23398796.871
  24755897.012    -4526030.43143  -3492556.71342  24755897.879    24755895.545
  21985698.095   -17082838.23043 -13206247.31142  21985699.862    21985695.957
  22432039.783   -14282743.27343 -11114013.79342  22432040.182    22432037.121
  20353314.338   -29439979.11644 -22929142.33042  20353315.710    20353311.830
  21455207.945   -22966351.71943 -17851891.02842  21455208.938    21455204.233
  23218283.528   -12688306.19443  -9780124.69842  23218285.265    23218282.101
  22944260.148   -13753178.19243 -10578835.67842  22944261.372    22944257.252
  24378908.796    -6902583.78943  -5366475.92142  24378909.971    24378906.365
 04  1 11  1 27 30.0000000  0 10G10G29G 5G30G17G 6G21G26G18G16
  22663911.756   -11078836.87643  -8595014.14442  22663912.475    22663909.439
  23390422.649    -9675270.42743  -7515307.97442  23390424.306    23390420.735
  24776449.309    -4418027.75643  -3408398.79842  24776450.101    24776447.787
  22003047.267   -16991667.71343 -13135205.35942  22003049.049    22003045.047
  22444034.315   -14219711.67743 -11064898.24642  22444034.666    22444031.649
  20350673.748   -29453855.49144 -22939955.08442  20350675.105    20350671.236
  21446855.175   -23010245.56343 -17886094.00542  21446856.199    21446851.495
  23203345.762   -12766804.33443  -9841292.04042  23203347.525    23203344.381
  22925286.340   -13852886.35543 -10656530.33342  22925287.547    22925283.348
  24363390.801    -6984131.55143  -5430019.59442  24363391.874    24363388.306
 04  1 11  1 28  0.0000000  0 10G10G29G 5G30G17G 6G21G26G18G16
  22681096.644   -10988529.65943  -8524644.87742  22681097.341    22681094.294
  23382121.757    -9718892.00643  -7549298.77842  23382123.356    23382119.835
  24796991.394    -4310078.83243  -3324282.79442  24796992.217    24796989.830
  22020450.182   -16900214.92943 -13063943.46842  22020451.940    22020448.010
  22456046.663   -14156586.38743 -11015709.68942  22456047.028    22456043.966
  20348104.255   -29467358.22344 -22950476.68542  20348105.614    20348101.756
  21438543.590   -23053923.16643 -17920128.48042  21438544.596    21438539.897
  23188461.168   -12845023.55443  -9902242.03442  23188462.932    23188459.702
  22906356.558   -13952363.08443 -10734044.64142  22906357.726    22906353.565
  24347939.272    -7065329.72743  -5493290.86642  24347940.374    24347936.804
 04  1 11  1 28 30.0000000  0 10G10G29G 5G30G17G 6G21G26G18G16
  22698340.435   -10897912.84843  -8454034.35942  22698341.139    22698338.062
  23373896.264    -9762117.11043  -7582980.63842  23373897.844    23373894.322
  24817522.722    -4202186.48943  -3240210.89442  24817523.441    24817521.171
  22037906.085   -16808483.54843 -12992464.48842  22037907.860    22037903.886
  22468076.664   -14093368.32743 -10966448.84842  22468077.020    22468073.949
  20345605.989   -29480486.66044 -22960706.63242  20345607.356    20345603.492
  21430272.914   -23097385.78443 -17953995.43742  21430273.923    21430269.208
  23173630.126   -12922961.17143  -9962972.61142  23173631.853    23173628.601
  22887470.972   -14051607.42243 -10811377.85842  22887472.156    22887467.946
  24332554.598    -7146176.64343  -5556288.42342  24332555.807    24332551.961
 04  1 11  1 29  0.0000000  0  9G10G29G30G17G 6G21G26G18G16
  22715644.354   -10806980.25243  -8383177.77842  22715645.059    22715641.952
  23365748.462    -9804934.31043  -7616344.65842  23365750.062    23365746.457
  22055416.136   -16716467.53643 -12920763.72142  22055417.912    22055414.004
  22480125.852   -14030049.43143 -10917109.43442  22480126.177    22480123.127
  20343180.904   -29493230.49444 -22970636.88642  20343182.264    20343178.404
  21422044.833   -23140624.48143 -17987687.90942  21422045.850    21422041.132
  23158855.063   -13000604.49543 -10023473.87142  23158856.830    23158853.586
  22868631.828   -14150607.80243 -10888521.00542  22868632.999    22868628.708
  24317238.850    -7226661.04343  -5619003.50142  24317240.147    24317236.277
 04  1 11  1 29 30.0000000  0  9G10G29G30G17G 6G21G26G18G16
  22733004.822   -10715750.23443  -8312089.43842  22733005.536    22733002.438
  23357675.613    -9847356.73543  -7649401.03342  23357677.262    23357673.711
  22072976.880   -16624185.40543 -12848855.57742  22072978.648    22072974.750
  22492191.140   -13966646.11143 -10867704.23842  22492191.397    22492188.364
  20340826.340   -29505603.74444 -22980278.37842  20340827.699    20340823.848
  21413856.390   -23183654.95943 -18021218.13042  21413857.407    21413852.699
  23144133.729   -13077965.70943 -10083755.31042  23144135.421    23144132.159
  22849836.431   -14249377.90643 -10965484.67742  22849837.632    22849833.461
  24301989.619    -7306796.03843  -5681446.32042  24301990.936    24301987.139
 04  1 11  1 30  0.0000000  0  9G10G29G30G17G 6G21G26G18G16
  22750423.026   -10624216.93243  -8240764.78242  22750423.728    22750420.602
  23349680.025    -9889373.53943  -7682141.38142  23349681.744    23349678.093
  22090589.265   -16531631.26343 -12776735.48042  22090591.074    22090587.223
  22504273.994   -13903150.22143 -10818226.90742  22504274.245    22504271.247
  20338544.212   -29517596.43644 -22989623.32742  20338545.559    20338541.720
  21405709.229   -23226468.58943 -18054579.37642  21405710.224    21405705.501
  23129468.394   -13155032.49643 -10143807.31642  23129470.098    23129466.802
  22831087.021   -14347906.78543 -11042260.42342  22831088.221    22831083.920
  24286809.038    -7386570.19743  -5743607.95642  24286810.406    24286806.621
 04  1 11  1 30 30.0000000  0  9G10G29G30G17G 6G21G26G18G16
  22767897.492   -10532388.09143  -8169209.83042  22767898.172    22767895.016
  23341761.207    -9930987.04143  -7714567.44242  23341762.924    23341759.260
  22108252.080   -16438812.99943 -12704409.57742  22108253.842    22108249.994
  22516373.456   -13839567.20143 -10768681.68842  22516373.693    22516370.713
  20336333.799   -29529212.13244 -22998674.50942  20336335.150    20336331.321
  21397602.371   -23269070.41643 -18087775.58542  21397603.361    21397598.632
  23114858.818   -13231806.30243 -10203631.03242  23114860.500    23114857.275
  22812382.938   -14446196.98343 -11118850.15542  22812384.156    22812379.905
  24271696.688    -7465986.39543  -5805490.68042  24271697.966    24271694.179
 04  1 11  1 31  0.0000000  0  9G10G29G30G17G 6G21G26G18G16
  22785428.194   -10440263.46843  -8097424.39242  22785428.888    22785425.748
  23333920.081    -9972192.21243  -7746675.33242  23333921.775    23333918.118
  22125965.013   -16345730.74243 -12631877.96942  22125966.779    22125962.922
  22528489.874   -13775894.96843 -10719066.94142  22528490.100    22528487.169
  20334195.950   -29540446.55044 -23007428.59842  20334197.303    20334193.481
  21389536.245   -23311458.08943 -18120804.92342  21389537.248    21389532.484
  23100306.173   -13308280.76343 -10263221.49042  23100307.835    23100304.578
  22793725.284   -14544243.66543 -11195250.14942  22793726.519    22793722.248
  24256653.442    -7545039.09043  -5867090.13742  24256654.674    24256650.964
 04  1 11  1 31 30.0000000  0  9G10G29G30G17G 6G21G26G18G16
  22803014.564   -10347846.57343  -8025411.22642  22803015.241    22803012.065
  23326157.086   -10012987.11443  -7778463.53342  23326158.748    23326155.007
  22143727.612   -16252387.90643 -12559143.31542  22143729.369    22143725.574
  22540623.067   -13712134.65743 -10669383.57842  22540623.297    22540620.332
  20332130.816   -29551298.84744 -23015884.92642  20332132.164    20332128.347
  21381510.781   -23353632.04343 -18153667.72542  21381511.783    21381507.026
  23085811.124   -13384452.73743 -10322576.25242  23085812.712    23085809.498
  22775114.342   -14642044.81743 -11271458.82242  22775115.556    22775111.242
  24241679.690    -7623726.51543  -5928404.98042  24241680.825    24241677.201
 04  1 11  1 32  0.0000000  0  9G10G29G30G17G 6G21G26G18G16
  22820656.466   -10255137.75943  -7953170.57142  22820657.165    22820653.938
  23318472.953   -10053367.16643  -7809928.46842  23318474.697    23318470.955
  22161539.690   -16158784.82943 -12486205.86842  22161541.451    22161537.605
  22552773.340   -13648284.38143 -10619630.10142  22552773.595    22552770.641
  20330139.121   -29561765.28744 -23024040.58442  20330140.459    20330136.640
  21373526.358   -23395590.45543 -18186362.57342  21373527.356    21373522.595
  23071374.748   -13460316.43243 -10381690.79142  23071376.330    23071373.108
  22756550.960   -14739596.04243 -11347472.73642  22756552.185    22756547.940
  24226776.284    -7702044.06243  -5989431.60642  24226777.488    24226773.854
 04  1 11  1 32 30.0000000  0  9G10G29G30G17G 6G21G26G18G16
  22838353.170   -10162140.82943  -7880705.42042  22838353.891    22838350.660
  23310867.974   -10093330.86443  -7841068.96642  23310869.728    23310866.099
  22179400.533   -16064925.53143 -12413068.78042  22179402.273    22179398.516
  22564940.410   -13584345.92843 -10569807.91942  22564940.661    22564937.696
  20328220.931   -29571845.44344 -23031895.24542  20328222.261    20328218.436
  21365582.846   -23437333.86443 -18218889.88642  21365583.846    21365579.073
  23056997.501   -13535869.16743 -10440563.00842  23056999.171    23056995.864
  22738035.287   -14836896.26743 -11423291.08042  22738036.549    22738032.205
  24211943.631    -7779989.94043  -6050168.61642  24211944.856    24211941.241
 04  1 11  1 33  0.0000000  0  9G10G29G30G17G 6G21G26G18G16
  22856103.503   -10068862.19743  -7808020.75542  22856104.236    22856101.008
  23303342.165   -10132879.42343  -7871885.98842  23303343.931    23303340.246
  22197308.948   -15970816.43143 -12339737.02542  22197310.695    22197306.877
  22577123.495   -13520323.24243 -10519920.10742  22577123.786    22577120.787
  20326375.829   -29581541.43144 -23039450.54842  20326377.179    20326373.335
  21357679.462   -23478866.38743 -18251252.86842  21357680.453    21357675.696
  23042679.416   -13611110.94743 -10499192.93142  23042681.012    23042677.816
  22719567.106   -14933947.32443 -11498915.25042  22719568.353    22719564.038
  24197181.469    -7857565.51743  -6110617.07742  24197182.673    24197179.055
 04  1 11  1 33 30.0000000  0  9G10G29G30G17G 6G21G26G18G16
  22873907.577    -9975301.11443  -7735116.00942  22873908.307    22873905.082
  23295896.301   -10172007.31743  -7902375.21142  23295898.046    23295894.400
  22215264.915   -15876456.83343 -12266210.09242  22215266.669    22215262.935
  22589323.106   -13456213.63043 -10469964.54942  22589323.398    22589320.424
  20324604.760   -29590848.38244 -23046702.71342  20324606.135    20324602.286
  21349816.893   -23520184.42743 -18283448.73042  21349817.892    21349813.110
  23028421.881   -13686034.75843 -10557575.08542  23028423.530    23028420.263
  22701147.475   -15030742.65043 -11574340.15642  22701148.769    22701144.450
  24182490.945    -7934764.84143  -6170772.36142  24182492.113    24182488.457
 04  1 11  1 34  0.0000000  0  9G10G29G30G17G 6G21G26G18G16
  22891765.225    -9881458.28743  -7661991.71642  22891765.972    22891762.790
  23288531.383   -10210710.01843  -7932533.12142  23288533.130    23288529.481
  22233268.521   -15781847.73643 -12192488.73542  22233270.247    22233266.516
  22601539.602   -13392015.45343 -10419939.98642  22601539.877    22601536.924
  20322908.372   -29599763.02244 -23053649.18042  20322909.719    20322905.869
  21341995.531   -23561285.94443 -18315475.86842  21341996.518    21341991.741
  23014225.837   -13760635.17843 -10615705.24842  23014227.582    23014224.157
  22682777.381   -15127278.25243 -11649562.68942  22682778.637    22682774.333
  24167872.856    -8011583.48943  -6230631.01142  24167873.976    24167870.269
 04  1 11  1 34 30.0000000  0  9G10G29G30G17G 6G21G26G18G16
  22909675.154    -9787340.82443  -7588653.41342  22909675.899    22909672.689
  23281246.947   -10248989.84743  -7962361.52942  23281248.651    23281245.060
  22251318.076   -15686996.30943 -12118578.54242  22251319.834    22251316.112
  22613772.027   -13327733.60243 -10369850.22142  22613772.296    22613769.350
  20321286.092   -29608288.23244 -23060292.19542  20321287.432    20321283.563
  21334214.491   -23602175.47843 -18347337.82242  21334215.489    21334210.688
  23000091.167   -13834912.83943 -10673583.90242  23000092.971    23000089.575
  22664456.247   -15223556.10143 -11724584.34942  22664457.529    22664453.258
  24153326.782    -8088023.35643  -6290194.51242  24153327.957    24153324.226
 04  1 11  1 35  0.0000000  0  9G10G29G30G17G 6G21G26G18G16
  22927636.995    -9692950.65243  -7515102.61842  22927637.735    22927634.519
  23274043.624   -10286843.38543  -7991857.76442  23274045.304    23274041.737
  22269413.542   -15591904.60943 -12044481.12442  22269415.256    22269411.552
  22626020.368   -13263367.98443 -10319695.18342  22626020.686    22626017.702
  20319738.300   -29616421.91544 -23066630.12242  20319739.649    20319735.760
  21326473.807   -23642852.98643 -18379034.56042  21326474.791    21326469.997
  22986018.852   -13908863.28843 -10731207.59042  22986020.646    22986017.149
  22646184.669   -15319573.90943 -11799403.41542  22646185.927    22646181.578
  24138853.514    -8164081.03643  -6349460.20842  24138854.651    24138850.897
 04  1 11  1 35 30.0000000  0  9G10G29G30G17G 6G21G26G18G16
  22945650.042    -9598291.63743  -7441342.33942  22945650.766    22945647.502
  23266921.636   -10324269.71543  -8021021.10442  23266923.308    23266919.700
  22287553.808   -15496576.60543 -11970199.57942  22287555.509    22287551.789
  22638284.380   -13198919.97643 -10269475.94742  22638284.732    22638281.742
  20318265.077   -29624163.73044 -23072662.69142  20318266.434    20318262.533
  21318773.423   -23683318.73344 -18410566.29442  21318774.402    21318769.605
  22972009.193   -13982484.31943 -10788574.59042  22972010.995    22972007.526
  22627962.970   -15415329.47643 -11874018.10142  22627964.205    22627959.962
  24124453.120    -8239755.42243  -6408427.22742  24124454.278    24124450.482
 04  1 11  1 36  0.0000000  0  9G10G29G30G17G 6G21G26G18G16
  22963714.169    -9503364.00843  -7367372.74242  22963714.885    22963711.626
  23259881.872   -10361263.77443  -8049847.60742  23259883.562    23259879.959
  22305739.134   -15401012.60043 -11895734.13542  22305740.809    22305737.105
  22650564.509   -13134387.39643 -10219190.80642  22650564.873    22650561.894
  20316867.177   -29631509.72044 -23078386.83442  20316868.527    20316864.634
  21311113.711   -23723570.69144 -18441931.43842  21311114.714    21311109.888
  22958063.499   -14055769.53143 -10845679.91342  22958065.283    22958061.740
  22609791.994   -15510818.51243 -11948425.13342  22609793.241    22609788.899
  24110126.568    -8315041.51043  -6467091.67942  24110127.718    24110123.984
 04  1 11  1 36 30.0000000  0  9G10G29G30G17G 6G21G26G18G16
  22981828.340    -9408173.31543  -7293198.17142  22981829.028    22981825.785
  23252924.197   -10397826.63843  -8078338.11142  23252925.820    23252922.209
  22323968.099   -15305218.58743 -11821089.46742  22323969.774    22323966.075
  22662859.943   -13069774.27743 -10168842.90842  22662860.351    22662857.353
  20315544.230   -29638461.78844 -23083804.01842  20315545.591    20315541.680
  21303494.132   -23763611.71944 -18473132.21942  21303495.160    21303490.318
  22944181.732   -14128718.62043 -10902523.31742  22944183.490    22944179.948
  22591671.541   -15606042.01643 -12022625.23042  22591672.775    22591668.534
  24095873.827    -8389939.78143  -6525453.93942  24095875.083    24095871.305
 04  1 11  1 37  0.0000000  0 10G10G29G30G17G15G 6G21G26G18G16
  22999989.568    -9312735.30143  -7218830.88742  22999990.256    22999987.029
  23246046.554   -10433968.66243  -8106500.69642  23246048.153    23246044.530
  22342237.891   -15209210.11043 -11746277.67942  22342239.611    22342235.880
  22675168.270   -13005093.58943 -10118442.36042  22675168.673    22675165.658
  24734564.165    -4777481.52353  -3691827.44752  24734564.979    24734563.515
  20314294.120   -29645031.14144 -23088922.98642  20314295.471    20314291.584
  21295912.201   -23803455.04144 -18504178.94642  21295913.206    21295908.353
  22930362.159   -14201340.80943 -10959111.99542  22930363.943    22930360.349
  22573599.560   -15701010.76843 -12096626.83842  22573600.759    22573596.540
  24081692.867    -8464460.87743  -6583522.29642  24081694.151    24081690.426
 04  1 11  1 37 30.0000000  0 10G10G29G30G17G15G 6G21G26G18G16
  23018203.696    -9217019.38343  -7144247.04142  23018204.366    23018201.174
  23239255.814   -10469654.46743  -8134307.78142  23239257.377    23239253.751
  22360554.282   -15112956.81143 -11671275.13442  22360556.023    22360552.361
  22687495.617   -12940312.83043 -10067963.83342  22687496.054    22687493.008
  24719090.976    -4858793.25843  -3755187.18342  24719091.722    24719090.378
  20313123.380   -29651183.32044 -23093716.88442  20313124.744    20313120.843
  21288374.178   -23843067.56144 -18535045.82742  21288375.175    21288370.324
  22916611.741   -14273599.42943 -11015417.37742  22916613.558    22916609.927
  22555582.833   -15795689.31243 -12170402.30342  22555584.017    22555579.790
  24067590.535    -8538569.39143  -6641269.15642  24067591.723    24067588.016
 04  1 11  1 38  0.0000000  0 10G10G29G30G17G15G 6G21G26G18G16
  23036465.785    -9121051.50343  -7069466.86542  23036466.452    23036463.250
  23232547.793   -10504905.12643  -8161775.79542  23232549.380    23232545.700
  22378912.255   -15016484.84443 -11596102.17942  22378913.996    22378910.284
  22699837.548   -12875455.29643 -10017425.48342  22699838.021    22699834.986
  24703633.091    -4940025.01943  -3818484.62242  24703633.834    24703632.417
  20312027.861   -29656940.19544 -23098202.75342  20312029.232    20312025.334
  21280875.653   -23882472.51844 -18565750.96742  21280876.650    21280871.806
  22902926.842   -14345513.95043 -11071454.63042  22902928.709    22902925.052
  22537617.306   -15890098.66643 -12243968.00442  22537618.480    22537614.279
  24053562.760    -8612285.69343  -6698710.40342  24053563.924    24053560.264
 04  1 11  1 38 30.0000000  0 10G10G29G30G17G15G 6G21G26G18G16
  23054776.186    -9024829.68843  -6994488.81642  23054776.847    23054773.629
  23225923.916   -10539713.77743  -8188899.38542  23225925.520    23225921.809
  22397312.279   -14919792.41743 -11520757.46042  22397314.003    22397310.372
  22712194.849   -12810517.11443  -9966824.29442  22712195.349    22712192.285
  24688191.309    -5021172.22743  -3881716.21342  24688192.018    24688190.650
  20311008.701   -29662295.90444 -23102376.02342  20311010.063    20311006.158
  21273417.516   -23921665.26244 -18596290.74742  21273418.501    21273413.652
  22889308.910   -14417076.42243 -11127217.54042  22889310.777    22889307.183
  22519704.343   -15984231.97643 -12317318.62142  22519705.493    22519701.232
  24039610.979    -8685603.01343  -6755840.75942  24039612.099    24039608.391
 04  1 11  1 39  0.0000000  0 10G10G29G30G17G15G 6G21G26G18G16
  23073134.343    -8928356.68843  -6919315.04342  23073135.005    23073131.833
  23219384.549   -10574078.24243  -8215676.85642  23219386.142    23219382.392
  22415753.565   -14822882.33143 -11445243.12542  22415755.318    22415751.704
  22724567.405   -12745498.70543  -9916160.58442  22724567.920    22724564.874
  24672765.649    -5102234.69243  -3944881.74442  24672766.420    24672764.741
  20310066.140   -29667249.05944 -23106235.61742  20310067.502    20310063.590
  21265999.706   -23960646.02044 -18626665.34242  21266000.689    21265995.847
  22875758.620   -14488283.11943 -11182703.22542  22875760.572    22875756.945
  22501844.239   -16078087.20943 -12390452.53542  22501845.393    22501841.207
  24025735.514    -8758519.05543  -6812658.41442  24025736.572    24025732.880
 04  1 11  1 39 30.0000000  0 10G10G29G30G17G15G 6G21G26G18G16
  23091539.810    -8831635.41343  -6843947.81042  23091540.455    23091537.241
  23212929.999   -10607996.84043  -8242106.88742  23212931.631    23212927.894
  22434235.827   -14725757.82843 -11369561.71042  22434237.559    22434233.966
  22736955.154   -12680400.73743  -9865434.87842  22736955.645    22736952.566
  24657356.105    -5183212.44243  -4007981.27942  24657356.789    24657355.078
  20309200.408   -29671798.53344 -23109780.65542  20309201.765    20309197.854
  21258622.209   -23999414.97844 -18656874.90342  21258623.180    21258618.323
  22862276.693   -14559130.98043 -11237909.32142  22862278.615    22862275.043
  22484037.520   -16171662.12043 -12463368.04042  22484038.675    22484034.384
  24011936.784    -8831031.67243  -6869161.72742  24011937.928    24011934.147
 04  1 11  1 40  0.0000000  0 10G10G29G30G17G15G 6G21G26G18G16
  23109991.695    -8734670.17243  -6768390.47142  23109992.316    23109989.093
  23206560.523   -10641468.85443  -8268188.94142  23206562.101    23206558.338
  22452757.892   -14628423.26843 -11293716.62542  22452759.653    22452756.140
  22749357.639   -12615225.19543  -9814648.72842  22749358.123    22749355.011
  24641962.338    -5264106.80243  -4071015.80842  24641963.161    24641961.368
  20308411.474   -29675944.41144 -23113011.20242  20308412.821    20308408.903
  21251284.694   -24037973.80944 -18686920.72842  21251285.679    21251280.813
  22848863.438   -14629617.83243 -11292834.09742  22848865.373    22848861.827
  22466284.213   -16264956.23443 -12536064.72042  22466285.397    22466281.172
  23998215.035    -8903139.87443  -6925349.91342  23998216.215    23998212.313
 04  1 11  1 40 30.0000000  0 10G10G29G30G17G15G 6G21G26G18G16
  23128489.747    -8637462.51243  -6692644.24342  23128490.297    23128487.121
  23200276.641   -10674490.69543  -8293920.19642  23200278.209    23200274.461
  22471319.814   -14530880.22843 -11217709.05442  22471321.583    22471317.891
  22761775.028   -12549971.32343  -9763801.54342  22761775.511    22761772.380
  24626584.720    -5344916.29743  -4133984.17342  24626585.394    24626583.903
  20307699.805   -29679684.23944 -23115925.34742  20307701.143    20307697.221
  21243987.326   -24076321.61443 -18716802.11142  21243988.318    21243983.425
  22835519.744   -14699738.99043 -11347473.90442  22835521.650    22835518.158
  22448584.998   -16357966.13443 -12608539.95342  22448586.149    22448581.855
  23984570.886    -8974840.28143  -6981220.32842  23984572.036    23984568.189
 04  1 11  1 41  0.0000000  0 10G10G29G30G17G15G 6G21G26G18G16
  23147033.208    -8540015.59043  -6616711.56742  23147033.843    23147030.652
  23194078.631   -10707061.28743  -8319299.84142  23194080.193    23194076.429
  22489920.516   -14433132.27943 -11141541.86942  22489922.279    22489918.798
  22774207.130   -12484640.22143  -9712894.17542  22774207.586    22774204.420
  24611223.115    -5425641.61243  -4196886.97242  24611223.799    24611222.354
  20307065.470   -29683017.62644 -23118522.78842  20307066.825    20307062.891
  21236730.047   -24114458.82644 -18746519.39842  21236731.014    21236726.122
  22822246.150   -14769491.85143 -11401826.74342  22822248.014    22822244.625
  22430940.130   -16450690.59543 -12680792.75042  22430941.312    22430937.046
  23971004.594    -9046131.27343  -7036771.72142  23971005.789    23971001.858
 04  1 11  1 41 30.0000000  0 10G10G29G30G17G15G 6G21G26G18G16
  23165620.843    -8442336.84443  -6540598.25142  23165621.494    23165618.266
  23187965.988   -10739183.14743  -8344329.84042  23187967.562    23187963.855
  22508559.023   -14335187.05843 -11065220.89542  22508560.786    22508557.044
  22786652.952   -12419237.00743  -9661930.62242  22786653.409    22786650.229
  24595876.757    -5506287.00243  -4259727.49842  24595877.500    24595876.045
  20306507.815   -29685947.97444 -23120806.16942  20306509.199    20306505.257
  21229511.887   -24152390.29943 -18776076.36742  21229512.857    21229507.973
  22809042.458   -14838877.54343 -11455893.47542  22809044.346    22809040.951
  22413349.086   -16543131.84643 -12752824.87042  22413350.291    22413345.950
  23957515.825    -9117015.25643  -7092005.96842  23957516.969    23957513.045
 04  1 11  1 42  0.0000000  0 10G10G29G30G17G15G 6G21G26G18G16
  23184254.003    -8344419.00343  -6464298.63142  23184254.663    23184251.428
  23181941.010   -10770844.09243  -8369000.67942  23181942.641    23181938.915
  22527236.178   -14237037.21343 -10988740.54442  22527237.955    22527234.440
  22799114.348   -12353751.86343  -9610903.22242  22799114.797    22799111.613
  24580547.600    -5586842.01843  -4322497.58142  24580548.520    24580546.976
  20306029.061   -29688463.79044 -23122766.53942  20306030.448    20306026.526
  21222334.820   -24190106.03143 -18805465.23242  21222335.761    21222330.887
  22795911.242   -14907882.43543 -11509663.47342  22795913.060    22795909.686
  22395814.286   -16635277.93043 -12824626.98842  22395815.491    22395811.182
  23944106.897    -9187479.68343  -7146913.27942  23944108.034    23944104.069
 04  1 11  1 42 30.0000000  0 10G10G29G30G17G15G 6G21G26G18G16
  23202930.587    -8246273.01943  -6387821.24442  23202931.207    23202928.017
  23176002.632   -10802050.52643  -8393317.35342  23176004.310    23176000.514
  22545950.391   -14138694.05943 -10912109.51142  22545952.171    22545948.540
  22811589.628   -12288193.73343  -9559818.96042  22811590.094    22811586.870
  24565234.044    -5667314.91843  -4385203.70742  24565235.082    24565233.370
  20305627.842   -29690572.22044 -23124409.46442  20305629.227    20305625.291
  21215197.160   -24227614.52143 -18834692.60442  21215198.115    21215193.245
  22782851.550   -14976511.44243 -11563140.56942  22782853.405    22782849.970
  22378334.442   -16727135.12243 -12896203.99942  22378335.653    22378331.272
  23930776.539    -9257530.93343  -7201498.64042  23930777.727    23930773.754
 04  1 11  1 43  0.0000000  0 10G10G29G30G17G15G 6G21G26G18G16
  23221650.875    -8147896.97543  -6311164.57442  23221651.556    23221648.319
  23170151.970   -10832795.69943  -8417274.59742  23170153.662    23170149.846
  22564701.489   -14040155.82043 -10835326.48442  22564703.291    22564699.685
  22824079.643   -12222558.24943  -9508674.42042  22824080.099    22824076.903
  24549937.060    -5747701.10143  -4447842.26242  24549938.049    24549936.247
  20305305.250   -29692267.45644 -23125730.41742  20305306.623    20305302.704
  21208099.864   -24264911.00244 -18863754.77242  21208100.821    21208095.938
  22769864.954   -15044756.34443 -11616318.37942  22769866.815    22769863.299
  22360910.803   -16818696.63743 -12967550.60742  22360912.051    22360907.685
  23917526.194    -9327161.83543  -7255756.46242  23917527.370    23917523.372
 04  1 11  1 43 30.0000000  0 10G10G29G30G17G15G 6G21G26G18G16
  23240414.301    -8049294.63143  -6234331.57642  23240414.959    23240411.711
  23164389.281   -10863078.64143  -8440871.66542  23164390.984    23164387.133
  22583489.227   -13941426.40243 -10758394.48642  22583490.978    22583487.396
  22836584.041   -12156847.11943  -9457470.92442  22836584.503    22836581.350
  24534656.403    -5828001.45443  -4510413.93742  24534657.410    24534655.623
  20305061.312   -29693549.34044 -23126729.28442  20305062.677    20305058.761
  21201042.608   -24301997.11244 -18892653.02442  21201043.554    21201038.682
  22756951.799   -15112614.99543 -11669195.20342  22756953.674    22756950.217
  22343543.695   -16909961.45843 -13038666.02242  22343544.948    22343540.560
  23904356.033    -9396371.35243  -7309685.92542  23904357.229    23904353.219
 04  1 11  1 44  0.0000000  0 10G10G29G30G17G15G 6G21G26G18G16
  23259220.421    -7950467.74143  -6157323.60842  23259221.090    23259217.864
  23158715.053   -10892896.72143  -8464106.50042  23158716.730    23158712.945
  22602312.686   -13842507.96243 -10681315.20142  22602314.427    22602310.842
  22849102.919   -12091059.75143  -9406208.02942  22849103.375    22849100.274
  24519392.345    -5908214.68843  -4572917.70442  24519393.348    24519391.513
  20304896.430   -29694415.74844 -23127404.39642  20304897.797    20304893.876
  21194025.557   -24338871.90444 -18921386.60742  21194026.506    21194021.606
  22744113.026   -15180083.16243 -11721767.75742  22744114.871    22744111.388
  22326233.495   -17000926.68243 -13109547.99442  22326234.772    22326230.381
  23891266.626    -9465156.43443  -7363284.66142  23891267.845    23891263.820
 04  1 11  1 44 30.0000000  0 10G10G29G30G17G15G 6G21G26G18G16
  23278067.394    -7851426.36443  -6080148.50342  23278068.047    23278064.780
  23153128.271   -10922255.26443  -8486983.24942  23153129.972    23153126.183
  22621170.375   -13743410.66343 -10604096.53242  22621172.145    22621168.525
  22861634.858   -12025204.03543  -9354891.87442  22861635.319    22861632.179
  24504143.486    -5988348.16843  -4635359.30942  24504144.396    24504142.604
  20304809.452   -29694872.87044 -23127760.59242  20304810.799    20304806.872
  21187047.285   -24375542.90044 -18949961.38942  21187048.248    21187043.322
  22731347.787   -15247164.60143 -11774038.95742  22731349.620    22731346.229
  22308979.417   -17091597.47043 -13180200.52442  22308980.694    22308976.309
  23878257.114    -9533522.16343  -7416556.63442  23878258.223    23878254.234
 04  1 11  1 45  0.0000000  0 10G10G29G30G17G15G 6G21G26G18G16
  23296956.026    -7752165.92143  -6002802.69842  23296956.689    23296953.387
  23147630.698   -10951145.06243  -8509494.74542  23147632.384    23147628.601
  22640062.747   -13644130.11243 -10526735.10642  22640064.521    22640061.019
  22874181.118   -11959273.03743  -9303517.07542  22874181.556    22874178.428
  24488911.149    -6068394.29643  -4697732.84542  24488912.080    24488910.335
  20304801.967   -29694912.17944 -23127791.21442  20304803.310    20304799.392
  21180109.234   -24412002.52344 -18978371.46342  21180110.194    21180105.248
  22718658.124   -15313848.64943 -11826000.51442  22718659.994    22718656.636
  22291783.097   -17181964.58143 -13250616.43742  22291784.365    22291779.943
  23865329.146    -9601458.84443  -7469494.27042  23865330.271    23865326.303
 04  1 11  1 45 30.0000000  0 10G10G29G30G17G15G 6G21G26G18G16
  23315885.063    -7652693.04543  -5925291.36642  23315885.754    23315882.471
  23142221.903   -10979568.01743  -8531642.47242  23142223.624    23142219.867
  22658988.923   -13544673.09543 -10449236.12042  22658990.688    22658987.011
  22886740.934   -11893270.83243  -9252086.76742  22886741.384    22886738.242
  24473694.772    -6148356.71643  -4760041.16542  24473695.773    24473693.848
  20304873.442   -29694536.47544 -23127498.44742  20304874.794    20304870.895
  21173210.568   -24448255.21544 -19006620.29142  21173211.535    21173206.562
  22706044.083   -15380135.83543 -11877652.83242  22706045.942    22706042.536
  22274644.219   -17272029.85343 -13320797.12742  22274645.469    22274641.159
  23852482.488    -9668968.41443  -7522099.11542  23852483.614    23852479.632
 04  1 11  1 46  0.0000000  0 10G10G29G30G17G15G 6G21G26G18G16
  23334854.950    -7553005.58243  -5847612.81542  23334855.671    23334852.377
  23136903.261   -11007517.59343  -8553421.32642  23136904.984    23136901.233
  22677948.823   -13445037.78043 -10371598.26142  22677950.554    22677947.109
  22899315.069   -11827193.24043  -9200597.72842  22899315.485    22899312.416
  24458495.261    -6228230.69543  -4822280.59342  24458496.237    24458494.284
  20305025.035   -29693739.74844 -23126877.61542  20305026.412    20305022.488
  21166352.222   -24484296.00144 -19034704.00342  21166353.196    21166348.203
  22693507.089   -15446018.16543 -11928989.68042  22693508.861    22693505.528
  22257564.109   -17361786.48343 -13390737.34242  22257565.329    22257560.933
  23839718.369    -9736043.92543  -7574365.72342  23839719.598    23839715.528
 04  1 11  1 46 30.0000000  0 10G10G29G30G17G15G 6G21G26G18G16
  23353864.305    -7453110.72943  -5769772.66242  23353865.043    23353861.727
  23131674.071   -11034996.76143  -8574833.63542  23131675.825    23131672.064
  22696941.384   -13345231.75843 -10293827.34042  22696943.080    22696939.493
  22911902.569   -11761045.30843  -9149053.88442  22911902.975    22911899.973
  24443311.713    -6308020.85343  -4884454.68742  24443312.690    24443310.773
  20305256.050   -29692525.67144 -23125931.57442  20305257.442    20305253.517
  21159533.219   -24520129.87844 -19062626.48342  21159534.209    21159529.223
  22681046.856   -15511496.91143 -11980012.03642  22681048.611    22681045.284
  22240542.174   -17451237.08743 -13460439.06642  22240543.400    22240539.122
  23827036.409    -9802687.83743  -7626296.01942  23827037.672    23827033.667
 04  1 11  1 47  0.0000000  0 10G10G29G30G17G15G 6G21G26G18G16
  23372912.796    -7353010.12443  -5691772.18842  23372913.531    23372910.284
  23126535.160   -11062002.10343  -8595876.73242  23126536.860    23126533.083
  22715965.973   -13245256.64543 -10215924.67142  22715967.697    22715964.139
  22924503.640   -11694826.15643  -9097454.54142  22924504.023    22924501.050
  24428144.366    -6387725.69843  -4946562.31342  24428145.291    24428143.404
  20305566.962   -29690891.88844 -23124658.48942  20305568.341    20305564.401
  21152753.846   -24555755.64344 -19090386.79442  21152754.830    21152749.836
  22668664.311   -15576567.51643 -12030716.36442  22668666.100    22668662.680
  22223579.114   -17540378.64143 -13529900.00542  22223580.313    22223575.974
  23814437.325    -9868896.76643  -7677887.37642  23814438.555    23814434.495
 04  1 11  1 47 30.0000000  0 10G10G29G30G17G15G 6G21G26G18G16
  23392000.236    -7252705.08043  -5613612.41742  23392000.922    23391997.638
  23121486.930   -11088530.57043  -8616548.23742  23121488.636    23121484.832
  22735022.557   -13145114.04943 -10137891.50242  22735024.305    22735020.716
  22937118.467   -11628534.83443  -9045798.96142  22937118.818    22937115.862
  24412993.501    -6467343.67743  -5008602.22942  24412994.395    24412992.569
  20305958.200   -29688835.88644 -23123056.40442  20305959.569    20305955.648
  21146014.289   -24591172.17744 -19117984.07742  21146015.261    21146010.284
  22656360.409   -15641225.29543 -12081099.00942  22656362.131    22656358.682
  22206675.424   -17629207.81043 -13599117.49642  22206676.642    22206672.411
  23801921.574    -9934667.44843  -7729137.24142  23801922.797    23801918.736
 04  1 11  1 48  0.0000000  0 10G10G29G30G17G15G 6G21G26G18G16
  23411125.785    -7152199.77243  -5535296.57742  23411126.428    23411123.197
  23116529.483   -11114582.07343  -8636848.07742  23116531.143    23116527.400
  22754110.050   -13044808.30443 -10059731.19542  22754111.817    22754108.197
  22949746.650   -11562173.23643  -8994088.62342  22949746.976    22949744.056
  24397858.954    -6546876.23343  -5070575.57342  24397859.702    24397857.949
  20306429.676   -29686358.18644 -23121125.71942  20306431.044    20306427.126
  21139314.245   -24626381.00544 -19145419.50842  21139315.219    21139310.250
  22644135.309   -15705468.34543 -12131158.49042  22644137.059    22644133.571
  22189831.334   -17717723.82243 -13668090.98842  22189832.554    22189828.302
  23789489.390    -9999999.16443  -7780045.04742  23789490.609    23789486.508
 04  1 11  1 48 30.0000000  0 10G10G29G30G17G15G 6G21G26G18G16
  23430288.755    -7051497.82243  -5456827.53242  23430289.368    23430286.138
  23111662.941   -11140155.56843  -8656775.44042  23111664.631    23111660.866
  22773227.998   -12944343.24943  -9981446.75442  22773229.754    22773226.134
  22962387.954   -11495742.62043  -8942324.49442  22962388.319    22962385.355
  24382740.592    -6626323.95143  -5132482.84142  24382741.372    24382739.458
  20306981.468   -29683458.43244 -23118866.16342  20306982.844    20306978.924
  21132653.559   -24661383.09444 -19172693.84742  21132654.533    21132649.552
  22631989.618   -15769294.33043 -12180892.98042  22631991.391    22631987.886
  22173047.068   -17805925.75943 -13736819.73742  22173048.268    22173044.088
  23777140.928   -10064890.61043  -7830609.78642  23777142.173    23777138.085
 04  1 11  1 49  0.0000000  0 10G10G29G30G17G15G 6G21G26G18G16
  23449488.838    -6950600.44243  -5378206.18142  23449489.505    23449486.283
  23106887.947   -11165248.18943  -8676328.10342  23106889.644    23106885.832
  22792375.859   -12843720.50543  -9903039.44042  22792377.610    22792374.020
  22975042.556   -11429242.39943  -8890506.14842  22975042.858    22975039.923
  24367638.539    -6705685.73043  -5194323.16042  24367639.221    24367637.202
  20307614.016   -29680134.39344 -23116275.99642  20307615.375    20307611.453
  21126032.427   -24696177.36144 -19199806.24242  21126033.385    21126028.398
  22619924.047   -15832698.69043 -12230298.92242  22619925.875    22619922.344
  22156323.094   -17893810.74143 -13805301.51642  22156324.265    22156320.034
  23764876.842   -10129338.55843  -7880828.95242  23764878.049    23764874.054
 04  1 11  1 49 30.0000000  0 10G10G29G30G17G15G 6G21G26G18G16
  23468725.523    -6849510.72243  -5299434.97042  23468726.244    23468723.015
  23102204.696   -11189858.77043  -8695505.14042  23102206.382    23102202.562
  22811553.141   -12742943.60043  -9824511.98742  22811554.884    22811551.164
  22987710.289   -11362672.93343  -8838633.82542  22987710.604    22987707.669
  24352552.740    -6784962.00243  -5256096.85342  24352553.462    24352551.328
  20308327.408   -29676385.54644 -23113354.80942  20308328.752    20308324.833
  21119450.680   -24730764.57844 -19226757.29842  21119451.634    21119446.646
  22607939.400   -15895678.60943 -12279374.13942  22607941.208    22607937.677
  22139659.774   -17981376.94943 -13873534.88742  22139660.945    22139656.806
  23752697.549   -10193341.33943  -7930701.23342  23752698.685    23752694.725
 04  1 11  1 50  0.0000000  0 10G10G29G30G17G15G 6G21G26G18G16
  23487998.616    -6748229.93143  -5220514.87042  23487999.314    23487996.137
  23097613.887   -11213983.81443  -8714303.85542  23097615.540    23097611.584
  22830759.365   -12642013.80243  -9745865.42342  22830761.166    22830757.547
  23000391.401   -11296033.35743  -8786706.87542  23000391.698    23000388.762
  24337483.520    -6864151.09443  -5317802.58742  24337484.239    24337482.184
  20309122.098   -29672209.33144 -23110100.61242  20309123.446    20309119.521
  21112908.635   -24765143.24544 -19253545.85142  21112909.568    21112904.576
  22596036.309   -15958229.57543 -12328115.09842  22596038.131    22596034.619
  22123057.707   -18068621.25243 -13941517.43842  22123058.900    22123054.673
  23740603.521   -10256895.46343  -7980223.90142  23740604.742    23740600.766
 04  1 11  1 50 30.0000000  0 10G10G29G30G17G15G 6G21G26G18G16
  23507306.888    -6646763.86343  -5141450.38942  23507307.696    23507304.437
  23093115.160   -11237624.92843  -8732725.46842  23093116.780    23093112.804
  22849993.691   -12540937.06743  -9667104.33242  22849995.476    22849991.746
  23013085.149   -11229327.12943  -8734727.99942  23013085.457    23013082.524
  24322430.381    -6943255.71843  -5379442.49542  24322431.088    24322429.119
  20309997.778   -29667607.64444 -23106514.87542  20309999.130    20309995.190
  21106405.666   -24799316.43344 -19280174.29342  21106406.600    21106401.633
  22584214.968   -16020351.10943 -12376521.45542  22584216.766    22584213.188
  22106516.710   -18155544.47843 -14009249.78942  22106517.946    22106513.772
  23728594.787   -10320001.88043  -8029397.71442  23728596.008    23728592.007
 04  1 11  1 51  0.0000000  0 10G10G29G30G17G15G 6G21G26G18G16
  23526650.156    -6545114.10343  -5062242.77842  23526650.922    23526647.729
  23088709.088   -11260779.08243  -8750767.64042  23088710.701    23088706.659
  22869255.540   -12439715.29443  -9588230.23842  22869257.362    22869253.629
  23025791.735   -11162553.43043  -8682696.53242  23025792.070    23025789.133
  24307393.539    -7022274.59343  -5441015.58142  24307394.207    24307392.325
  20310954.767   -29662578.51644 -23102596.06642  20310956.130    20310952.192
  21099942.024   -24833283.08944 -19306641.79942  21099942.941    21099937.967
  22572476.141   -16082038.86143 -12424589.79542  22572477.971    22572474.388
  22090037.409   -18242143.78543 -14076729.74542  22090038.651    22090034.400
  23716671.776   -10382657.53043  -8078220.28142  23716672.942    23716669.025
 04  1 11  1 51 30.0000000  0 10G10G29G30G17G15G 6G21G26G18G16
  23546028.196    -6443281.86943  -4982892.98442  23546028.913    23546025.722
  23084396.180   -11283443.46343  -8768428.17142  23084397.752    23084393.758
  22888544.782   -12338349.85843  -9509244.21142  22888546.585    22888542.886
  23038511.396   -11095711.14943  -8630611.63542  23038511.733    23038508.785
  24292373.264    -7101206.34743  -5502520.78942  24292373.871    24292372.076
  20311993.575   -29657119.47744 -23098342.26642  20311994.944    20311991.010
  21093517.864   -24867042.11244 -19332947.51542  21093518.782    21093513.838
  22560820.702   -16143288.51443 -12472316.75542  22560822.510    22560818.948
  22073620.430   -18328415.65643 -14143954.53842  22073621.632    22073617.436
  23704835.277   -10444859.01343  -8126688.94942  23704836.354    23704832.423
 04  1 11  1 52  0.0000000  0 10G10G29G30G17G15G 6G21G26G18G16
  23565440.693    -6341268.36543  -4903401.92142  23565441.407    23565438.280
  23080177.088   -11305615.10143  -8785704.74242  23080178.631    23080174.620
  22907861.004   -12236842.40043  -9430147.49742  22907862.790    22907859.038
  23051244.265   -11028799.21643  -8578472.46242  23051244.637    23051241.686
  24277369.810    -7180049.42243  -5563956.88842  24277370.497    24277368.707
  20313114.643   -29651228.27244 -23093751.71242  20313116.011    20313112.045
  21087133.504   -24900592.05244 -19359090.30442  21087134.440    21087129.488
  22549249.542   -16204095.26043 -12519698.59542  22549251.364    22549247.774
  22057266.276   -18414357.08043 -14210921.85242  22057267.507    22057263.246
  23693085.795   -10506603.05543  -8174801.17442  23693086.851    23693082.885
 04  1 11  1 52 30.0000000  0 10G10G29G30G17G15G 6G21G26G18G16
  23584885.531    -6239084.83643  -4823778.38642  23584886.288    23584883.186
  23076050.376   -11327301.00943  -8802602.82442  23076051.886    23076047.899
  22927202.102   -12135204.48443  -9350949.13342  22927203.875    22927200.167
  23063988.746   -10961826.77343  -8526286.12742  23063989.093    23063986.083
  24262381.698    -7258812.47843  -5625330.66942  24262382.245    24262380.388
  20314316.495   -29644912.55044 -23088830.36642  20314317.846    20314313.879
  21080787.228   -24933941.90444 -19385077.18042  21080788.156    21080783.203
  22537761.568   -16264464.72943 -12566739.68742  22537763.334    22537759.815
  22040973.751   -18499974.71243 -14277636.85842  22040974.996    22040970.790
  23681422.075   -10567896.30143  -8222562.11442  23681423.126    23681419.165
 04  1 11  1 53  0.0000000  0 10G10G29G30G17G15G 6G21G26G18G16
  23604364.541    -6136721.87143  -4744015.02542  23604365.297    23604362.240
  23072018.675   -11348487.50843  -8819111.74542  23072020.221    23072016.253
  22946569.726   -12033426.90443  -9271641.95042  22946571.491    22946567.807
  23076746.916   -10894781.99743  -8474043.44742  23076747.307    23076744.272
  24247411.184    -7337483.27443  -5686632.54242  24247411.701    24247409.865
  20315601.625   -29638159.20844 -23083568.01842  20315602.968    20315598.985
  21074481.338   -24967079.54744 -19410898.70442  21074482.250    21074477.296
  22526359.816   -16324381.58543 -12613428.10542  22526361.546    22526357.948
  22024745.551   -18585254.53443 -14344088.64142  22024746.778    22024742.516
  23669846.760   -10628724.69143  -8269960.83742  23669847.853    23669843.879
 04  1 11  1 53 30.0000000  0 10G10G29G30G17G15G 6G21G26G18G16
  23623875.504    -6034191.06343  -4664120.89042  23623876.272    23623873.195
  23068080.539   -11369182.29943  -8835237.53742  23068082.149    23068078.188
  22965961.603   -11931521.76043  -9192235.34542  22965963.347    22965959.662
  23089516.989   -10827674.45343  -8421751.84842  23089517.467    23089514.391
  24232456.373    -7416070.83243  -5747869.53642  24232456.949    24232455.166
  20316968.457   -29630976.40444 -23077971.02542  20316969.801    20316965.835
  21068214.012   -25000014.46244 -19436562.25542  21068214.926    21068209.980
  22515042.996   -16383851.80243 -12659768.48942  22515044.684    22515041.080
  22008580.179   -18670203.99243 -14410282.98542  22008581.391    22008577.192
  23658358.583   -10689095.40843  -8317002.94042  23658359.711    23658355.694
 04  1 11  1 54  0.0000000  0 10G10G29G30G17G15G 6G21G26G18G16
  23643418.423    -5931492.37043  -4584095.92242  23643419.127    23643416.094
  23064236.813   -11389380.97243  -8850976.73742  23064238.477    23064234.433
  22985377.840   -11829489.00043  -9112729.32542  22985379.565    22985375.949
  23102299.581   -10760501.56443  -8369409.32942  23102300.036    23102296.933
  24217518.056    -7494572.32043  -5809039.45642  24217518.578    24217516.812
  20318417.713   -29623360.58444 -23072036.61042  20318419.044    20318415.061
  21061985.809   -25032743.73244 -19462065.56142  21061986.747    21061981.783
  22503812.218   -16442869.51943 -12705756.27042  22503813.938    22503810.326
  21992478.548   -18754818.65943 -14476216.46142  21992479.749    21992475.486
  23646958.401   -10749003.64043  -8363684.66342  23646959.510    23646955.556
 04  1 11  1 54 30.0000000  0 10G10G29G30G17G15G 6G21G26G18G16
  23662993.115    -5828626.58043  -4503940.74742  23662993.815    23662990.840
  23060488.187   -11409080.18443  -8866326.75042  23060489.839    23060485.800
  23004818.066   -11727329.77443  -9033124.75642  23004819.811    23004816.175
  23115094.949   -10693261.84243  -8317014.74142  23115095.343    23115092.217
  24202596.369    -7572985.86343  -5870140.85742  24202596.931    24202595.056
  20319949.915   -29615308.78944 -23065762.48142  20319951.257    20319947.261
  21055797.055   -25065265.74044 -19487407.37142  21055797.985    21055793.020
  22492668.544   -16501429.74143 -12751387.57942  22492670.298    22492666.624
  21976441.314   -18839094.65343 -14541886.03342  21976442.534    21976438.312
  23635646.871   -10808445.97843  -8410003.34542  23635647.999    23635643.999
 04  1 11  1 55  0.0000000  0 10G10G29G30G17G15G 6G21G26G18G16
  23682599.131    -5725596.51143  -4423657.56742  23682599.762    23682596.765
  23056834.714   -11428278.61043  -8881286.53842  23056836.447    23056832.470
  23024281.724   -11625047.25343  -8953424.09542  23024283.510    23024279.833
  23127902.824   -10625955.88743  -8264568.53342  23127903.259    23127900.122
  24187691.437    -7651311.55843  -5931173.82742  24187691.986    24187690.044
  20321565.224   -29606820.39144 -23059148.13942  20321566.536    20321562.545
  21049647.677   -25097580.81444 -19512587.93242  21049648.629    21049643.656
  22481612.491   -16559529.75043 -12796660.27942  22481614.251    22481610.524
  21960468.883   -18923030.26343 -14607290.37542  21960470.099    21960465.813
  23624424.284   -10867420.67643  -8455957.63642  23624425.471    23624421.417
 04  1 11  1 55 30.0000000  0 10G10G29G30G17G15G 6G21G26G18G16
  23702234.603    -5622411.39043  -4343253.56742  23702235.280    23702232.203
  23053275.631   -11446981.54743  -8895860.22742  23053277.386    23053273.383
  23043767.111   -11522650.92443  -8873634.77942  23043768.890    23043765.277
  23140721.999   -10558590.48343  -8212076.01142  23140722.464    23140719.341
  24172801.942    -7729555.92243  -5992143.40942  24172802.570    24172800.659
  20323262.498   -29597901.09244 -23052198.03342  20323263.838    20323259.836
  21043536.366   -25129695.87744 -19537612.63842  21043537.321    21043532.331
  22470643.362   -16617172.80243 -12841576.91442  22470645.102    22470641.396
  21944560.310   -19006630.34643 -14672433.26642  21944561.529    21944557.255
  23613289.852   -10925932.29443  -8501551.08542  23613291.095    23613286.974
 04  1 11  1 56  0.0000000  0 10G10G29G30G17G15G 6G21G26G18G16
  23721900.749    -5519065.00343  -4262723.90642  23721901.430    23721898.431
  23049812.825   -11465178.69243  -8910039.79842  23049814.544    23049810.549
  23063275.257   -11420134.95543  -8793752.21542  23063277.036    23063273.395
  23153554.087   -10491157.33143  -8159530.68642  23153554.596    23153551.455
  24157929.611    -7807710.15343  -6053042.74442  24157930.231    24157928.427
  20325043.601   -29588541.24544 -23044904.64342  20325044.949    20325040.951
  21037464.827   -25161601.92944 -19562474.47842  21037465.773    21037460.783
  22459763.440   -16674347.23243 -12886128.37842  22459765.168    22459761.449
  21928717.507   -19089884.65143 -14737306.72142  21928718.742    21928714.412
  23602245.556   -10983970.31443  -8546775.49442  23602246.830    23602242.672
 04  1 11  1 56 30.0000000  0 10G10G29G30G17G15G 6G21G26G18G16
  23741596.481    -5415563.18243  -4182073.12942  23741597.144    23741594.119
  23046445.957   -11482871.83243  -8923826.63142  23046447.697    23046443.654
  23082805.043   -11317505.40943  -8713781.15442  23082806.750    23082803.157
  23166398.436   -10423659.79143  -8106935.19542  23166398.943    23166395.857
  24143073.865    -7885777.22743  -6113874.14842  24143074.452    24143072.721
  20326908.110   -29578743.07644 -23037269.69942  20326909.467    20326905.477
  21031432.398   -25193302.54644 -19587176.23742  21031433.336    21031428.328
  22448972.628   -16731053.11443 -12930314.74142  22448974.385    22448970.631
  21912940.290   -19172794.39743 -14801911.68442  21912941.499    21912937.212
  23591291.172   -11041535.91943  -8591631.79142  23591292.410    23591288.272
 04  1 11  1 57  0.0000000  0 10G10G29G30G17G15G 6G21G26G18G16
  23761321.134    -5311909.55443  -4101304.05442  23761321.792    23761318.802
  23043174.968   -11500060.89843  -8937220.68642  23043176.722    23043172.676
  23102355.678   -11214766.35843  -8633724.77942  23102357.320    23102353.855
  23179254.656   -10356099.60343  -8054290.89342  23179255.236    23179252.140
  24128234.575    -7963758.29943  -6174638.58042  24128235.132    24128233.351
  20328855.930   -29568507.14344 -23029293.63942  20328857.306    20328853.305
  21025438.835   -25224798.90244 -19611718.83142  21025439.789    21025434.738
  22438271.357   -16787288.67843 -12974134.62842  22438273.112    22438269.332
  21897228.798   -19255358.69343 -14866247.47042  21897230.028    21897225.677
  23580426.817   -11098628.61743  -8636119.58442  23580427.998    23580423.871
 04  1 11  1 57 30.0000000  0 10G10G29G30G17G15G 6G21G26G18G16
  23781074.185    -5208106.69843  -4020418.70942  23781074.801    23781071.893
  23040000.254   -11516744.09243  -8950220.55342  23040001.988    23039997.931
  23121926.618   -11111920.43143  -8553585.08542  23121928.250    23121924.752
  23192122.928   -10288476.32643  -8001597.42342  23192123.497    23192120.408
  24113411.720    -8041653.00943  -6235335.73642  24113412.303    24113410.328
  20330887.312   -29557832.13544 -23020975.44342  20330888.684    20330884.693
  21019484.186   -25256090.76744 -19636102.08442  21019485.140    21019480.077
  22427660.151   -16843050.53743 -13017585.38042  22427661.941    22427658.165
  21881583.301   -19337575.96743 -14930312.83842  21881584.557    21881580.245
  23569652.854   -11155246.20143  -8680237.16242  23569654.022    23569649.908
 04  1 11  1 58  0.0000000  0 10G10G29G30G17G15G 6G21G26G18G16
  23800855.126    -5104156.81843  -3939418.78642  23800855.764    23800852.835
  23036922.085   -11532919.97343  -8962825.11742  23036923.766    23036919.698
  23141517.379   -11008970.16543  -8473364.13042  23141519.009    23141515.527
  23205003.125   -10220790.45043  -7948855.17942  23205003.666    23205000.590
  24098605.222    -8119460.95443  -6295965.24642  24098605.804    24098603.856
  20333002.430   -29546717.15144 -23012314.41642  20333003.789    20332999.797
  21013568.438   -25287178.20544 -19660326.04542  21013569.374    21013564.320
  22417139.719   -16898335.46443 -13060664.50342  22417141.516    22417137.744
  21866004.334   -19419443.71943 -14994105.86142  21866005.589    21866001.267
  23558969.587   -11211386.89143  -8723983.14142  23558970.773    23558966.704
 04  1 11  1 58 30.0000000  0 10G10G29G30G17G15G 6G21G26G18G16
  23820663.671    -5000062.30743  -3858306.18442  23820664.333    23820661.411
  23033940.694   -11548587.14943  -8975033.28042  23033942.370    23033938.251
  23161127.478   -10905918.43443  -8393064.12242  23161129.170    23161125.730
  23217895.261   -10153041.84443  -7896064.05242  23217895.750    23217892.681
  24083815.294    -8197182.08843  -6356527.11042  24083815.957    24083814.072
  20335201.466   -29535161.22644 -23003309.79742  20335202.814    20335198.803
  21007691.671   -25318060.89744 -19684390.46542  21007692.582    21007687.520
  22406710.717   -16953140.30043 -13103369.53242  22406712.499    22406708.680
  21850492.173   -19500960.52543 -15057625.42042  21850493.407    21850489.117
  23548377.453   -11267048.77443  -8767356.01342  23548378.631    23548374.550
 04  1 11  1 59  0.0000000  0 10G10G29G30G17G15G 6G21G26G18G16
  23840499.120    -4895826.15043  -3777083.18942  23840499.841    23840496.893
  23031056.320   -11563744.71143  -8986844.33542  23031058.042    23031053.882
  23180756.164   -10802768.82143  -8312687.81242  23180757.895    23180754.454
  23230799.095   -10085231.63143  -7843224.92542  23230799.640    23230796.551
  24069041.861    -8274816.80643  -6417021.64042  24069042.509    24069040.613
  20337484.431   -29523164.12244 -22993961.40042  20337485.787    20337481.775
  21001853.643   -25348739.85844 -19708296.12942  21001854.574    21001849.481
  22396373.473   -17007462.74443 -13145698.67042  22396375.219    22396371.418
  21835047.016   -19582125.06343 -15120870.47942  21835048.267    21835043.982
  23537876.715   -11322230.48443  -8810354.72742  23537877.830    23537873.806
 04  1 11  1 59 30.0000000  0 10G10G29G30G17G15G 6G21G26G18G16
  23860361.231    -4791450.19543  -3695751.26742  23860361.917    23860358.974
  23028269.252   -11578390.67743  -8998256.75942  23028270.982    23028266.832
  23200403.183   -10699523.30843  -8232236.77842  23200404.883    23200401.408
  23243714.786   -10017359.22143  -7790337.31642  23243715.318    23243712.206
  24054285.019    -8352364.26343  -6477448.19642  24054285.659    24054283.820
  20339851.638   -29510724.42544 -22984268.12342  20339852.970    20339848.962
  20996054.525   -25379214.37544 -19732042.48942  20996055.460    20996050.364
  22386128.712   -17061299.08343 -13187649.03042  22386130.477    22386126.662
  21819669.300   -19662935.29443 -15183839.45642  21819670.551    21819666.279
  23527467.735   -11376929.81043  -8852977.55442  23527468.874    23527464.832
 04  1 11  2  0  0.0000000  0 10G10G29G30G17G15G 6G21G26G18G16
  23880249.171    -4686938.03243  -3614313.23042  23880249.896    23880246.985
  23025579.635   -11592524.92743  -9009270.44642  23025581.267    23025577.155
  23220067.658   -10596185.88143  -8151714.14342  23220069.362    23220065.932
  23256642.091    -9949425.75243  -7737402.13842  23256642.611    23256639.517
  24039544.561    -8429825.42943  -6537807.51042  24039545.225    24039543.376
  20342302.977   -29497842.44944 -22974230.21242  20342304.329    20342300.330
  20990294.113   -25409485.52944 -19755630.38342  20990295.037    20990289.940
  22375976.782   -17114647.53543 -13229219.21742  22375978.544    22375974.713
  21804359.186   -19743390.32643 -15246531.66142  21804360.458    21804356.184
  23517150.765   -11431145.79843  -8895223.76242  23517151.893    23517147.856
 04  1 11  2  0 30.0000000  0 10G10G29G30G17G15G 6G21G26G18G16
  23900163.036    -4582289.80343  -3532769.14242  23900163.815    23900160.912
  23022988.141   -11606143.30443  -9019882.14242  23022989.773    23022985.634
  23239749.574   -10492756.61943  -8071119.92742  23239751.357    23239747.845
  23269581.414    -9881429.01143  -7684417.66542  23269581.990    23269578.847
  24024821.105    -8507197.51143  -6598097.38242  24024821.679    24024819.982
  20344839.198   -29484514.51344 -22963844.80342  20344840.542    20344836.526
  20984572.895   -25439550.63844 -19779057.72542  20984573.815    20984568.723
  22365918.850   -17167502.25643 -13270404.67942  22365920.595    22365916.760
  21789117.533   -19823485.58643 -15308943.51842  21789118.772    21789114.532
  23506926.559   -11484874.20043  -8937090.02842  23506927.694    23506923.729
 04  1 11  2  1  0.0000000  0 10G10G29G30G17G15G 6G21G26G18G16
  23920101.826    -4477511.04243  -3451123.35342  23920102.541    23920099.608
  23020494.372   -11619248.18743  -9030093.73142  23020495.965    23020491.868
  23259447.874   -10389241.76543  -7990459.02342  23259449.621    23259446.103
  23282532.137    -9813372.60343  -7631386.69242  23282532.747    23282529.492
  24010114.007    -8584483.86143  -6658320.45342  24010114.585    24010112.855
  20347459.786   -29470743.30444 -22953113.98642  20347461.118    20347457.109
  20978890.237   -25469413.27844 -19802327.29942  20978891.133    20978886.029
  22355954.759   -17219863.73543 -13311205.80442  22355956.485    22355952.643
  21773943.983   -19903222.85643 -15371076.42542  21773945.227    21773941.010
  23496794.857   -11538116.63843  -8978577.62442  23496795.938    23496791.987
 04  1 11  2  1 30.0000000  0 10G10G29G30G17G15G 6G21G26G18G16
  23940064.839    -4372604.49643  -3369377.99142  23940065.623    23940062.597
  23018098.537   -11631838.34343  -9039904.22442  23018100.085    23018096.031
  23279161.768   -10285644.37043  -7909733.79242  23279163.530    23279160.038
  23295494.202    -9745256.63043  -7578309.29942  23295494.787    23295491.482
  23995423.157    -8661684.59243  -6718476.82042  23995423.747    23995421.948
  20350164.794   -29456528.31544 -22942037.36642  20350166.123    20350162.113
  20973246.029   -25499073.68744 -19825439.29242  20973246.943    20973241.804
  22346085.018   -17271729.32943 -13351620.50942  22346086.756    22346082.907
  21758838.968   -19982600.30943 -15432928.95242  21758840.181    21758835.942
  23486755.874   -11590871.61643  -9019685.37242  23486756.960    23486753.021
 04  1 11  2  2  0.0000000  0 10G10G29G30G17G15G 6G21G26G18G16
  23960052.168    -4267570.44743  -3287533.28242  23960052.976    23960049.908
  23015801.260   -11643910.55043  -9049311.12342  23015802.821    23015798.737
  23298891.284   -10181965.18443  -7828944.85442  23298893.029    23298889.653
  23308467.811    -9677079.57943  -7525184.31942  23308468.452    23308465.100
  23980748.948    -8738797.51943  -6778564.77342  23980749.590    23980747.706
  20352954.804   -29441866.65244 -22930612.68642  20352956.141    20352952.125
  20967640.674   -25528529.86744 -19848392.14242  20967641.606    20967636.470
  22336310.579   -17323093.99843 -13391644.87642  22336312.334    22336308.490
  21743803.067   -20061614.42143 -15494498.35942  21743804.281    21743800.039
  23476810.384   -11643135.22743  -9060410.24942  23476811.503    23476807.534
 04  1 11  2  2 30.0000000  0 10G10G29G30G17G15G 6G21G26G18G16
  23980063.219    -4162411.71943  -3205591.41442  23980063.966    23980060.955
  23013602.695   -11655464.05743  -9058313.83742  23013604.284    23013600.161
  23318635.773   -10078207.31243  -7748094.58542  23318637.524    23318634.022
  23321453.004    -9608841.72743  -7472011.95942  23321453.660    23321450.298
  23966091.533    -8815822.61643  -6838584.30542  23966092.193    23966090.265
  20355829.925   -29426757.91444 -22918839.64142  20355831.230    20355827.219
  20962074.202   -25557781.94444 -19871185.95442  20962075.126    20962069.967
  22326631.983   -17373955.21543 -13431276.95542  22326633.727    22326629.910
  21728836.527   -20140264.04343 -15555783.74942  21728837.729    21728833.491
  23466958.608   -11694906.23043  -9100751.26242  23466959.796    23466955.787
 04  1 11  2  3  0.0000000  0 10G10G29G30G17G15G 6G21G26G18G16
  24000097.034    -4057133.34743  -3123556.32142  24000097.702    24000094.718
  23011502.581   -11666500.05943  -9066913.29642  23011504.176    23011500.096
  23338394.278    -9974376.08743  -7667187.16642  23338396.018    23338392.549
  23334449.351    -9540545.80743  -7418794.36342  23334449.891    23334446.588
  23951450.290    -8892762.61143  -6898537.50442  23951451.005    23951449.154
  20358789.745   -29411203.80644 -22906719.54942  20358791.079    20358787.065
  20956546.003   -25586832.71944 -19893822.90742  20956546.936    20956541.781
  22317049.240   -17424312.60943 -13470516.45242  22317050.973    22317047.180
  21713939.228   -20218549.80543 -15616785.61042  21713940.420    21713936.195
  23457200.492   -11746185.34243  -9140708.99742  23457201.696    23457197.724
 04  1 11  2  3 30.0000000  0 10G10G29G30G17G15G 6G21G26G18G16
  24020153.378    -3951736.49843  -3041428.91842  24020153.999    24020151.052
  23009501.387   -11677016.14843  -9075107.64042  23009502.989    23009498.890
  23358166.409    -9870472.95643  -7586223.71442  23358168.137    23358164.701
  23347456.955    -9472190.62143  -7365530.56642  23347457.441    23347454.159
  23936825.514    -8969615.94843  -6958423.14942  23936826.239    23936824.435
  20361834.714   -29395202.38644 -22894250.90742  20361836.046    20361832.056
  20951056.355   -25615680.95644 -19916302.03442  20951057.282    20951052.114
  22307563.152   -17474162.02343 -13509360.12642  22307564.890    22307561.102
  21699111.756   -20296468.63443 -15677501.55242  21699112.973    21699108.700
  23447536.510   -11796969.83943  -9180281.31842  23447537.715    23447533.738
 04  1 11  2  4  0.0000000  0 10G10G29G30G17G15G 6G21G26G18G16
  24040232.354    -3846220.64443  -2959208.76842  24040233.032    24040230.067
  23007599.929   -11687008.59543  -9082893.93942  23007601.423    23007597.357
  23377952.233    -9766498.05043  -7505204.31442  23377953.965    23377950.380
  23360476.292    -9403773.62643  -7312218.62142  23360476.761    23360473.442
  23922217.856    -9046379.43743  -7018238.80942  23922218.612    23922216.715
  20364965.458   -29378750.15844 -22881430.98442  20364966.800    20364962.798
  20945605.818   -25644323.67344 -19938621.02042  20945606.740    20945601.584
  22298174.845   -17523497.74243 -13547803.53142  22298176.587    22298172.777
  21684354.874   -20374016.31343 -15737928.28042  21684356.131    21684351.851
  23437967.537   -11847255.18343  -9219464.68142  23437968.724    23437964.767
 04  1 11  2  4 30.0000000  0 10G10G29G30G17G15G 6G21G26G18G16
  24060332.628    -3740592.92043  -2876901.45242  24060333.335    24060330.406
  23005797.425   -11696480.47843  -9090274.60842  23005798.994    23005794.856
  23397750.349    -9662458.57543  -7424134.62642  23397752.035    23397748.502
  23373506.421    -9335299.67743  -7258862.28842  23373506.928    23373503.628
  23907626.484    -9123057.62843  -7077988.02842  23907627.284    23907625.197
  20368181.262   -29361850.94744 -22868262.76142  20368182.608    20368178.617
  20940193.520   -25672765.39444 -19960783.38542  20940194.439    20940189.277
  22288883.913   -17572321.60943 -13585848.07142  22288885.662    22288881.877
  21669668.121   -20451195.73743 -15798068.06542  21669669.381    21669665.040
  23428492.961   -11897044.22643  -9258261.31742  23428494.149    23428490.168
 04  1 11  2  5  0.0000000  0 10G10G29G30G17G15G 6G21G26G18G16
  24080454.440    -3634851.81343  -2794505.78142  24080455.149    24080452.313
  23004094.925   -11705427.21943  -9097246.07442  23004096.497    23004092.311
  23417560.858    -9558353.53643  -7343013.84142  23417562.481    23417559.114
  23386548.168    -9266765.11343  -7205458.72542  23386548.616    23386545.357
  23893051.924    -9199646.77543  -7137667.80442  23893052.800    23893050.794
  20371482.993   -29344500.25044 -22854742.73442  20371484.337    20371480.329
  20934820.148   -25701002.51244 -19982786.32042  20934821.079    20934815.920
  22279691.707   -17620626.98343 -13623488.60042  22279693.398    22279689.652
  21655052.466   -20528001.62043 -15857916.77342  21655053.690    21655049.350
  23419113.909   -11946331.81843  -9296667.21442  23419115.051    23419111.024
 04  1 11  2  5 30.0000000  0 10G10G29G30G17G15G 6G21G26G18G16
  24100596.878    -3529002.80443  -2712026.04642  24100597.557    24100594.653
  23002492.011   -11713850.63843  -9103809.76442  23002493.564    23002489.360
  23437382.749    -9454188.78443  -7261846.49942  23437384.363    23437380.975
  23399600.866    -9198172.93743  -7152010.26942  23399601.315    23399597.983
  23878493.854    -9276149.56243  -7197280.29842  23878494.751    23878492.738
  20374870.179   -29326700.38644 -22840872.70642  20374871.537    20374867.524
  20929485.120   -25729038.17144 -20004632.27042  20929486.064    20929480.896
  22270598.147   -17668414.01843 -13660725.22042  22270599.823    22270596.051
  21640507.689   -20604435.02143 -15917475.23842  21640508.898    21640504.515
  23409830.030   -11995119.10843  -9334683.27042  23409831.134    23409827.101
 04  1 11  2  6  0.0000000  0 10G10G29G30G17G15G 6G21G26G18G16
  24120759.820    -3423045.66143  -2629462.04042  24120760.534    24120757.633
  23000989.378   -11721746.97843  -9109962.73142  23000990.924    23000986.750
  23457215.993    -9349964.47543  -7180632.78842  23457217.585    23457214.310
  23412664.954    -9129520.55943  -7098514.90242  23412665.373    23412662.101
  23863952.812    -9352563.42343  -7256823.52242  23863953.700    23863951.522
  20378343.457   -29308448.15444 -22826650.18442  20378344.821    20378340.808
  20924188.977   -25756869.53844 -20026319.03742  20924189.922    20924184.758
  22261604.195   -17715677.33143 -13697553.75942  22261605.906    22261602.114
  21626034.555   -20680491.74343 -15976740.18742  21626035.756    21626031.359
  23400642.078   -12043402.02743  -9372306.31142  23400643.191    23400639.171
 04  1 11  2  6 30.0000000  0 10G10G29G30G17G15G 6G21G26G18G16
  24140941.868    -3316988.40343  -2546820.02242  24140942.491    24140939.616
  22999586.032   -11729121.12443  -9115708.79942  22999587.614    22999583.469
  23477058.940    -9245689.03343  -7099379.22542  23477060.580    23477057.320
  23425739.358    -9060814.03143  -7044977.34742  23425739.756    23425736.498
  23849427.537    -9428893.92543  -7316301.78842  23849428.445    23849426.206
  20381901.836   -29289748.64744 -22812079.13642  20381903.195    20381899.208
  20918930.558   -25784502.60644 -20047851.28142  20918931.504    20918926.340
  22252709.416   -17762419.89843 -13733976.51342  22252711.097    22252707.296
  21611632.346   -20756175.82243 -16035714.76442  21611633.532    21611629.124
  23391549.295   -12091184.91643  -9409539.71342  23391550.383    23391546.359
 04  1 11  2  7  0.0000000  0 10G10G29G30G17G15G 6G21G26G18G16
  24161144.057    -3210825.49843  -2464095.67742  24161144.653    24161141.754
  22998283.824   -11735964.08943  -9121040.96142  22998285.429    22998281.266
  23496912.580    -9141357.50543  -7018081.96442  23496914.156    23496911.007
  23438825.526    -8992045.61143  -6991391.55242  23438825.982    23438822.702
  23834919.651    -9505133.04543  -7375708.80642  23834920.544    23834918.391
  20385546.993   -29270593.28544 -22797152.87642  20385548.346    20385544.341
  20913711.416   -25811929.24744 -20069222.67542  20913712.368    20913707.214
  22243915.697   -17808631.17043 -13769985.27242  22243917.402    22243913.573
  21597302.785   -20831478.00743 -16094391.76242  21597303.985    21597299.544
  23382553.453   -12138458.23743  -9446376.05642  23382554.591    23382550.523
 04  1 11  2  7 30.0000000  0 10G10G29G30G17G15G 6G21G26G18G16
  24181364.120    -3104568.53643  -2381298.04742  24181364.692    24181361.821
  22997081.148   -11742284.39543  -9125965.85442  22997082.719    22997078.534
  23516774.774    -9036981.76843  -6936750.21542  23516776.269    23516772.965
  23451921.701    -8923224.76443  -6937764.91042  23451922.166    23451918.802
  23820427.445    -9581290.01743  -7435051.84642  23820428.318    23820426.158
  20389277.204   -29250990.86044 -22781878.25142  20389278.561    20389274.550
  20908529.824   -25839158.78344 -20090440.48342  20908530.750    20908525.602
  22235221.784   -17854317.73243 -13805585.15742  22235223.499    22235219.697
  21583044.393   -20906406.28543 -16152777.40742  21583045.609    21583041.142
  23373653.120   -12185229.74743  -9482821.36742  23373654.299    23373650.158
 04  1 11  2  8  0.0000000  0 10G10G29G30G17G15G 6G21G26G18G16
  24201603.866    -2998208.41543  -2298420.02942  24201604.387    24201601.467
  22995980.321   -11748069.21243  -9130473.48942  22995981.938    22995977.643
  23536646.953    -8932552.83343  -6855377.05342  23536648.488    23536645.224
  23465030.088    -8854339.84343  -6884088.34942  23465030.574    23465027.120
  23805953.118    -9657352.88743  -7494321.57642  23805953.981    23805951.765
  20393094.839   -29230929.01544 -22766245.64442  20393096.206    20393092.198
  20903387.883   -25866179.63344 -20111495.67742  20903388.829    20903383.703
  22226630.482   -17899465.21643 -13840764.99142  22226632.196    22226628.358
  21568859.749   -20980946.99143 -16210861.04642  21568860.966    21568856.460
  23364850.807   -12231486.19443  -9518865.34542  23364851.963    23364847.851
 04  1 11  2  8 30.0000000  0 10G10G29G30G17G15G 6G21G26G18G16
  24221860.390    -2891759.50843  -2215472.82842  24221860.952    24221858.071
  22994979.199   -11753329.94943  -9134572.74642  22994980.844    22994976.520
  23556526.304    -8828085.90443  -6773974.27042  23556527.883    23556524.591
  23478148.260    -8785403.09843  -6830371.37842  23478148.772    23478145.374
  23791494.354    -9733333.77043  -7553527.39242  23791495.207    23791492.947
  20396997.670   -29210419.51144 -22750264.21042  20396999.021    20396995.013
  20898283.348   -25893004.20344 -20132397.92442  20898284.289    20898279.160
  22218139.995   -17944083.07443 -13875532.12442  22218141.681    22218137.829
  21554746.786   -21055110.92243 -16268651.08642  21554748.008    21554743.528
  23356144.434   -12277238.61443  -9554516.56542  23356145.564    23356141.463
 04  1 11  2  9  0.0000000  0 10G10G29G30G17G15G 6G21G26G18G16
  24242135.149    -2785214.65043  -2132450.86342  24242135.823    24242132.904
  22994079.857   -11758056.00843  -9138255.37042  22994081.503    22994077.141
  23576414.309    -8723573.83543  -6692536.30642  23576415.913    23576412.571
  23491278.136    -8716405.15643  -6776606.74542  23491278.640    23491275.228
  23777053.126    -9809223.05743  -7612661.84742  23777053.933    23777051.707
  20400987.692   -29189451.89144 -22733925.80642  20400989.033    20400985.021
  20893218.065   -25919622.43044 -20153139.38642  20893218.996    20893213.855
  22209752.578   -17988159.11843 -13909877.06342  22209754.275    22209750.419
  21540707.735   -21128886.52643 -16326138.54542  21540708.969    21540704.450
  23347536.110   -12322475.69043  -9589766.23142  23347537.212    23347533.100
 04  1 11  2  9 30.0000000  0 10G10G29G30G17G15G 6G21G26G18G16
  24262426.637    -2678581.96043  -2049360.45642  24262427.283    24262424.450
  22993281.332   -11762252.33743  -9141525.21442  22993282.935    22993278.584
  23596309.228    -8619025.44743  -6611070.04142  23596310.855    23596307.438
  23504418.474    -8647352.06343  -6722799.13242  23504418.998    23504415.552
  23762628.142    -9885026.34443  -7671729.27842  23762628.985    23762626.809
  20405063.807   -29168031.71544 -22717234.75642  20405065.161    20405061.140
  20888190.882   -25946040.39344 -20173724.79342  20888191.806    20888186.687
  22201467.697   -18031696.54843 -13943802.30442  22201469.391    22201465.510
  21526741.690   -21202278.46943 -16383327.04342  21526742.906    21526738.412
  23339024.974   -12367201.93143  -9624617.82042  23339026.086    23339021.991
 04  1 11  2 10  0.0000000  0 10G10G29G30G17G15G 6G21G26G18G16
  24282734.638    -2571862.67243  -1966202.57142  24282735.378    24282732.418
  22992583.959   -11765916.87743  -9144380.68642  22992585.605    22992581.204
  23616210.705    -8514442.29543  -6529576.70642  23616212.340    23616209.024
  23517569.615    -8578242.43243  -6668947.47142  23517570.102    23517566.673
  23748219.818    -9960742.41643  -7730728.75842  23748220.658    23748218.442
  20409226.395   -29146157.21144 -22700189.68842  20409227.733    20409223.728
  20883201.986   -25972257.05744 -20194153.35142  20883202.917    20883197.815
  22193286.020   -18074691.59643 -13977304.91442  22193287.716    22193283.803
  21512849.078   -21275284.42543 -16440214.77642  21512850.315    21512845.788
  23330611.534   -12411414.82843  -9659069.42242  23330612.628    23330608.577
 04  1 11  2 10 30.0000000  0 10G10G29G30G17G15G 6G21G26G18G16
  24303058.680    -2465059.05643  -1882978.96142  24303059.456    24303056.475
  22991987.868   -11769048.93343  -9146821.22842  22991989.491    22991985.196
  23636118.352    -8409827.00243  -6448058.30742  23636119.998    23636116.641
  23530731.421    -8509076.58743  -6615051.99542  23530731.930    23530728.472
  23733828.131   -10036371.12343  -7789660.18042  23733829.055    23733826.719
  20413475.546   -29123827.79644 -22682790.14342  20413476.876    20413472.861
  20878251.460   -25998272.17144 -20214424.85342  20878252.387    20878247.274
  22185208.001   -18117141.74343 -14010382.91942  22185209.706    22185205.810
  21499030.378   -21347902.18943 -16496800.01842  21499031.591    21499027.050
  23322296.081   -12455112.62643  -9693119.64342  23322297.202    23322293.152
 04  1 11  2 11  0.0000000  0 10G10G29G30G17G15G 6G21G26G18G16
  24323397.939    -2358175.80043  -1799693.29742  24323398.659    24323395.640
  22991492.851   -11771650.32043  -9148848.26742  22991494.480    22991490.149
  23656031.059    -8305184.97443  -6366519.08842  23656032.702    23656029.431
  23543903.512    -8439856.97743  -6561114.63142  23543903.981    23543900.565
  23719452.487   -10111915.08743  -7848525.52942  23719453.386    23719451.201
  20417810.828   -29101045.70144 -22665037.86342  20417812.170    20417808.162
  20873338.779   -26024088.42144 -20234541.40042  20873339.711    20873334.592
  22177233.674   -18159046.94143 -14043036.29642  22177235.401    22177231.509
  21485285.187   -21420133.55243 -16553084.17142  21485286.408    21485281.862
  23314078.412   -12498296.87043  -9726769.69842  23314079.516    23314075.437
 04  1 11  2 11 30.0000000  0 10G10G29G30G17G15G 6G21G26G18G16
  24343753.119    -2251208.62343  -1716342.23542  24343753.862    24343750.789
  22991100.155   -11773713.63643  -9150456.03242  22991101.813    22991097.506
  23675949.590    -8200512.46243  -6284956.11042  23675951.305    23675947.862
  23557087.001    -8370577.47943  -6507130.60442  23557087.414    23557084.015
  23705094.320   -10187367.50743  -7907319.55842  23705095.172    23705093.055
  20422233.590   -29077803.89344 -22646927.36242  20422234.932    20422230.911
  20868465.188   -26049699.28544 -20254497.90442  20868466.135    20868461.014
  22169364.777   -18200398.21943 -14075258.06442  22169366.530    22169362.561
  21471615.139   -21491969.99343 -16609060.59342  21471616.356    21471611.781
  23305959.910   -12540959.78543  -9760013.51442  23305961.028    23305956.926
 04  1 11  2 12  0.0000000  0 10G10G29G30G17G15G 6G21G26G18G16
  24364122.763    -2144165.69043  -1632932.16042  24364123.473    24364120.339
  22990809.008   -11775243.75743  -9151648.31442  22990810.614    22990806.315
  23695872.353    -8095817.79243  -6203375.86342  23695874.056    23695870.597
  23570280.723    -8301243.80843  -6453104.35342  23570281.191    23570277.791
  23690752.649   -10262733.86043  -7966046.55542  23690753.417    23690751.172
  20426742.854   -29054107.55944 -22628462.68142  20426744.195    20426740.173
  20863629.597   -26075110.35744 -20274298.72842  20863630.557    20863625.429
  22161600.684   -18241198.73843 -14107050.65542  22161602.452    22161598.482
  21458019.347   -21563416.22843 -16664732.95942  21458020.578    21458015.989
  23297939.829   -12583105.61543  -9792854.41242  23297940.912    23297936.801
 04  1 11  2 12 30.0000000  0 10G10G29G30G17G15G 6G21G26G18G16
  24384507.128    -2037045.22843  -1549461.65442  24384507.781    24384504.676
  22990620.230   -11776236.09343  -9152421.54542  22990621.798    22990617.521
  23715799.572    -7991099.48443  -6121777.19342  23715801.337    23715797.863
  23583485.568    -8231851.95143  -6399032.76542  23583486.042    23583482.600
  23676428.032   -10338010.06743  -8024703.29642  23676428.783    23676426.606
  20431339.459   -29029952.28744 -22609640.39142  20431340.790    20431336.775
  20858832.790   -26100317.72844 -20293940.82342  20858833.732    20858828.592
  22153942.623   -18281441.96043 -14138408.99342  22153944.379    22153940.406
  21444498.873   -21634466.71643 -16720096.94742  21444500.084    21444495.519
  23290019.197   -12624729.18943  -9825288.35742  23290020.213    23290016.067
 04  1 11  2 13  0.0000000  0 10G10G29G30G17G15G 6G21G26G18G16
  24404904.485    -1929856.39943  -1465937.88642  24404905.136    24404901.967
  22990532.579   -11776696.62743  -9152780.39342  22990534.166    22990529.915
  23735729.520    -7886367.16343  -6040167.62542  23735731.274    23735727.825
  23596700.182    -8162408.76843  -6344921.19842  23596700.606    23596697.215
  23662119.292   -10413202.57843  -8083294.78142  23662120.013    23662117.942
  20436022.211   -29005344.22944 -22590465.28142  20436023.544    20436019.511
  20854073.436   -26125328.14344 -20313429.44042  20854074.397    20854069.247
  22146389.805   -18321132.10143 -14169336.35342  22146391.580    22146387.620
  21431052.734   -21705126.60843 -16775156.57642  21431053.917    21431049.372
  23282196.910   -12665835.58943  -9857319.31242  23282197.941    23282193.782
 04  1 11  2 13 30.0000000  0 10G10G29G30G17G15G 6G21G26G18G16
  24425315.810    -1822593.90943  -1382356.72042  24425316.561    24425313.292
  22990547.592   -11776617.22643  -9152718.50942  22990549.274    22990544.965
  23755662.970    -7781616.13543  -5958543.46742  23755664.786    23755661.258
  23609926.026    -8092906.66843  -6290763.70442  23609926.386    23609923.040
  23647828.020   -10488304.00043  -8141815.34742  23647828.722    23647826.474
  20440792.621   -28980275.55544 -22570931.24442  20440793.967    20440789.914
  20849353.049   -26150133.95444 -20332758.63342  20849354.011    20849348.833
  22138944.111   -18360259.36643 -14199825.11042  22138945.893    22138941.924
  21417682.570   -21775387.13243 -16829905.00942  21417683.770    21417679.201
  23274474.642   -12706416.35143  -9888940.68242  23274475.698    23274471.476
 04  1 11  2 14  0.0000000  0 10G10G29G30G17G15G 6G21G26G18G16
  24445739.575    -1715266.00143  -1298724.55742  24445740.389    24445737.026
  22990664.392   -11776003.34443  -9152240.15742  22990666.085    22990661.738
  23775598.297    -7676855.18943  -5876911.59342  23775600.116    23775596.647
  23623161.807    -8023352.20443  -6236565.41242  23623162.121    23623158.829
  23633552.751   -10563320.47243  -8200269.69042  23633553.424    23633551.264
  20445649.622   -28954751.96244 -22551042.72842  20445650.943    20445646.890
  20844670.428   -26174741.16544 -20351933.06742  20844671.391    20844666.230
  22131604.820   -18398827.48043 -14229878.16142  22131606.595    22131602.614
  21404387.520   -21845252.97843 -16884345.89942  21404388.690    21404384.160
  23266851.456   -12746476.44143  -9920156.32642  23266852.536    23266848.308
 04  1 11  2 14 30.0000000  0 10G10G29G30G17G15G 6G21G26G18G16
  24466176.315    -1607870.30443  -1215039.59542  24466177.083    24466173.740
  22990883.897   -11774849.64443  -9151341.14942  22990885.633    22990881.327
  23795535.955    -7572082.27943  -5795270.37442  23795537.765    23795534.268
  23636408.461    -7953740.59443  -6182322.58942  23636408.830    23636405.444
  23619294.726   -10638247.01543  -8258653.96042  23619295.316    23619293.244
  20450594.108   -28928768.45144 -22530795.83842  20450595.431    20450591.380
  20840026.460   -26199145.34444 -20370949.30242  20840027.408    20840022.249
  22124373.315   -18436829.22843 -14259489.89642  22124375.053    22124371.085
  21391168.751   -21914717.88743 -16938474.37342  21391169.914    21391165.400
  23259328.462   -12786009.74343  -9950961.49742  23259329.570    23259325.340
 04  1 11  2 15  0.0000000  0 10G10G29G30G17G15G 6G21G26G18G16
  24486625.196    -1500410.74343  -1131304.85942  24486625.951    24486622.633
  22991205.970   -11773156.95443  -9150022.16442  22991207.734    22991203.419
  23815475.120    -7467301.68043  -5713623.15142  23815476.901    23815473.418
  23649665.738    -7884073.24443  -6128036.34942  23649666.068    23649662.745
  23605053.554   -10713084.91243  -8316969.17142  23605054.158    23605052.079
  20455625.911   -28902326.21044 -22510191.49542  20455627.230    20455623.152
  20835420.910   -26223347.59844 -20389808.19142  20835421.881    20835416.691
  22117249.700   -18474263.85943 -14288659.71842  22117251.454    22117247.485
  21378026.242   -21983781.97643 -16992290.51942  21378027.425    21378022.925
  23251905.681   -12825016.68743  -9981356.50642  23251906.811    23251902.539
 04  1 11  2 15 30.0000000  0 10G10G29G30G17G15G 6G21G26G18G16
  24507085.250    -1392892.17543  -1047524.14942  24507086.035    24507082.743
  22991630.175   -11770927.76943  -9148285.11642  22991631.927    22991627.599
  23835414.660    -7362518.91843  -5631974.28342  23835416.369    23835412.934
  23662932.983    -7814353.48243  -6073709.26242  23662933.309    23662929.979
  23590828.617   -10787837.12843  -8375217.60842  23590829.220    23590827.052
  20460744.503   -28875427.75844 -22489231.66442  20460745.848    20460741.761
  20830853.172   -26247351.16844 -20408512.25742  20830854.127    20830848.944
  22110233.981   -18511131.89743 -14317388.03942  22110235.710    22110231.680
  21364959.672   -22052447.12343 -17045795.80142  21364960.858    21364956.359
  23244582.742   -12863499.04043 -10011342.74542  23244583.904    23244579.613
 04  1 11  2 16  0.0000000  0 10G10G29G30G17G15G 6G21G26G18G16
  24527556.518    -1285314.73243   -963697.55542  24527557.364    24527554.094
  22992157.049   -11768159.27443  -9146127.84542  22992158.743    22992154.435
  23855354.422    -7257734.37843  -5550323.99942  23855356.145    23855352.750
  23676210.713    -7744578.80243  -6019339.38942  23676210.924    23676207.740
  23576620.571   -10862501.18143  -8433397.35942  23576621.114    23576618.945
  20465950.464   -28848070.33344 -22467914.19142  20465951.803    20465947.710
  20826323.676   -26271153.80644 -20427059.75342  20826324.613    20826319.453
  22103326.876   -18547428.94543 -14345671.43842  22103328.586    22103324.565
  21351969.775   -22120709.45143 -17098987.19942  21351970.952    21351966.456
  23237360.300   -12901453.37343 -10040917.54742  23237361.501    23237357.126
 04  1 11  2 16 30.0000000  0 10G10G29G30G17G15G 6G21G26G18G16
  24548038.850    -1177679.59343   -879826.03242  24548039.813    24548036.369
  22992786.822   -11764850.01243  -9143549.18942  22992788.505    22992784.126
  23875294.338    -7152950.07643  -5468673.90942  23875296.024    23875292.575
  23689499.061    -7674748.30643  -5964926.01242  23689499.266    23689496.029
  23562429.362   -10937076.29043  -8491507.79342  23562429.951    23562427.771
  20471243.924   -28820252.92444 -22446238.28742  20471245.269    20471241.189
  20821832.648   -26294754.28044 -20445449.72342  20821833.577    20821828.428
  22096529.121   -18583151.59943 -14373507.25942  22096530.775    22096526.736
  21339056.852   -22188567.26343 -17151863.38942  21339058.007    21339053.512
  23230238.685   -12938877.63243 -10070079.30442  23230239.909    23230235.551
 04  1 11  2 17  0.0000000  0 10G10G29G30G17G15G 6G21G26G18G16
  24568531.234    -1069991.08443   -795912.88042  24568532.138    24568528.801
  22993519.145   -11761001.35443  -9140550.22842  22993520.838    22993516.453
  23895233.121    -7048170.40443  -5387027.43742  23895234.889    23895231.548
  23702797.577    -7604864.19043  -5910470.84242  23702797.835    23702794.539
  23548254.762   -11011564.16643  -8549550.24942  23548255.302    23548253.056
  20476624.628   -28791977.05544 -22424205.14742  20476625.978    20476621.901
  20817379.672   -26318154.84044 -20463683.91442  20817380.593    20817375.444
  22089840.672   -18618299.62843 -14400895.31142  22089842.333    22089838.264
  21326220.872   -22256020.73043 -17204424.50642  21326222.033    21326217.508
  23223217.750   -12975772.63543 -10098828.65142  23223218.982    23223214.663
 04  1 11  2 17 30.0000000  0 10G10G29G30G17G15G 6G21G26G18G16
  24589033.693     -962249.99043   -711958.76942  24589034.570    24589031.310
  22994354.563   -11756611.56243  -9137129.60242  22994356.202    22994351.801
  23915170.865    -6943396.83643  -5305385.72442  23915172.558    23915169.341
  23716106.465    -7534925.15243  -5855972.88442  23716106.708    23716103.466
  23534097.061   -11085963.51243  -8607523.73642  23534097.626    23534095.294
  20482092.870   -28763241.26044 -22401813.62042  20482094.229    20482090.134
  20812965.032   -26341353.94244 -20481761.12942  20812965.942    20812960.810
  22083262.236   -18652869.45343 -14427832.81142  22083263.923    22083259.823
  21313462.312   -22323067.29043 -17256668.55442  21313463.468    21313458.973
  23216297.974   -13012136.24543 -10127163.92142  23216299.167    23216294.898
 04  1 11  2 18  0.0000000  0 10G10G29G30G17G15G 6G21G26G18G16
  24609545.697     -854458.56543   -627965.41842  24609546.583    24609543.277
  22995292.925   -11751680.36143  -9133287.11042  22995294.539    22995290.115
  23935107.047    -6838632.09643  -5223750.86842  23935108.659    23935105.351
  23729425.823    -7464931.42943  -5801432.32742  23729426.007    23729422.823
  23519956.173   -11160274.17243  -8665428.09742  23519956.707    23519954.485
  20487648.676   -28734045.44044 -22379063.63842  20487649.991    20487645.915
  20808588.753   -26364351.45444 -20499681.25742  20808589.667    20808584.515
  22076794.189   -18686859.05243 -14454318.19942  22076795.912    22076791.798
  21300781.345   -22389705.96543 -17308594.77042  21300782.518    21300777.985
  23209479.539   -13047967.31643 -10155084.23742  23209480.737    23209476.467
 04  1 11  2 18 30.0000000  0 10G10G29G30G17G15G 6G21G26G18G16
  24630066.292     -746621.84943   -543936.80542  24630067.215    24630064.045
  22996333.863   -11746210.22143  -9129024.65342  22996335.495    22996331.082
  23955040.267    -6733881.83143  -5142127.30942  23955041.970    23955038.671
  23742755.015    -7394886.00743  -5746851.47742  23742755.233    23742752.059
  23505831.606   -11234499.11343  -8723265.67042  23505832.164    23505829.927
  20493291.470   -28704392.41244 -22355957.38042  20493292.776    20493288.696
  20804250.173   -26387150.77244 -20517446.94742  20804251.089    20804245.947
  22070436.460   -18720269.21543 -14480352.07442  22070438.130    22070434.064
  21288177.667   -22455938.60343 -17360204.59142  21288178.832    21288174.331
  23202762.127   -13083267.66343 -10182590.98542  23202763.282    23202759.031
 04  1 11  2 19  0.0000000  0 10G10G29G30G17G15G 6G21G26G18G16
  24650596.386     -638735.68743   -459869.66342  24650597.222    24650593.994
  22997478.699   -11740194.31143  -9124336.92042  22997480.320    22997475.851
  23974971.433    -6629142.36243  -5060512.16342  23974973.222    23974969.944
  23756095.223    -7324782.62343  -5692225.47742  23756095.401    23756092.275
  23491724.581   -11308631.73143  -8781031.30942  23491725.151    23491722.896
  20499022.544   -28674275.45444 -22332489.61842  20499023.855    20499019.755
  20799950.596   -26409745.09544 -20535052.90442  20799951.505    20799946.383
  22064190.576   -18753091.34343 -14505927.73542  22064192.285    22064188.175
  21275652.784   -22521757.26843 -17411491.83842  21275653.931    21275649.409
  23196147.084   -13118030.00143 -10209678.51642  23196148.188    23196143.954
 04  1 11  2 19 30.0000000  0 10G10G29G30G17G15G 6G21G26G18G16
  24671133.660     -530811.60443   -375772.94442  24671134.369    24671131.075
  22998725.633   -11733641.49043  -9119230.81942  22998727.266    22998722.806
  23994898.525    -6524425.49143  -4978914.62842  23994900.328    23994896.996
  23769444.706    -7254630.54643  -5637561.52242  23769444.875    23769441.751
  23477633.288   -11382681.33343  -8838732.23642  23477633.907    23477631.720
  20504840.167   -28643703.56644 -22308667.36242  20504841.502    20504837.400
  20795688.347   -26432143.48144 -20552506.18242  20795689.230    20795684.090
  22058055.273   -18785332.56643 -14531050.74542  22058056.975    22058052.887
  21263205.067   -22587170.24443 -17462462.96542  21263206.247    21263201.700
  23189632.871   -13152262.49143 -10236353.18242  23189633.967    23189629.699
 04  1 11  2 20  0.0000000  0 10G10G29G30G17G15G 6G21G26G18G16
  24691679.263     -422844.16143   -291642.46442  24691679.808    24691676.644
  23000076.227   -11726544.09743  -9113700.36542  23000077.865    23000073.410
  24014822.075    -6419726.51943  -4897331.02042  24014823.864    24014820.587
  23782804.975    -7184421.93643  -5582853.52842  23782805.105    23782802.006
  23463559.377   -11456640.06543  -8896362.37042  23463560.075    23463557.781
  20510745.841   -28612669.07944 -22284484.64742  20510747.168    20510743.063
  20791464.719   -26454338.74244 -20569801.18042  20791465.620    20791460.465
  22052032.276   -18816983.31543 -14555713.64942  22052034.010    22052029.926
  21250836.210   -22652168.98343 -17513111.30942  21250837.384    21250832.836
  23183221.054   -13185956.90043 -10262608.56042  23183222.113    23183217.864
 04  1 11  2 20 30.0000000  0  9G29G30G17G15G 6G21G26G18G16
  23001531.080   -11718898.87043  -9107743.03842  23001532.683    23001528.238
  24034742.275    -6315045.18243  -4815761.16242  24034744.052    24034740.827
  23796176.494    -7114154.40843  -5528099.61742  23796176.574    23796173.461
  23449503.201   -11530505.15343  -8953919.53142  23449503.959    23449501.597
  20516740.114   -28581169.01544 -22259939.14342  20516741.425    20516737.326
  20787280.353   -26476327.61744 -20586935.35542  20787281.265    20787276.112
  22046122.668   -18848038.67843 -14579912.60942  22046124.359    22046120.286
  21238547.007   -22716748.99943 -17563433.37442  21238548.185    21238543.621
  23176912.374   -13219109.44543 -10288441.71242  23176913.400    23176909.140
 04  1 11  2 21  0.0000000  0  9G29G30G17G15G 6G21G26G18G16
  23003087.884   -11710717.48943  -9101367.91642  23003089.548    23003085.136
  24054656.407    -6210396.00243  -4734216.36942  24054658.201    24054654.964
  23809556.954    -7043839.67643  -5473308.91142  23809557.037    23809553.962
  23435462.717   -11604288.27943  -9011412.82942  23435463.484    23435461.129
  20522820.757   -28549215.01244 -22235039.91742  20522822.092    20522817.979
  20783132.945   -26498122.36744 -20603918.26842  20783133.861    20783128.709
  22040324.429   -18878508.57243 -14603655.36442  22040326.122    22040322.066
  21226335.539   -22780920.74843 -17613437.31442  21226336.692    21226332.132
  23170704.759   -13251730.89343 -10313861.02842  23170705.746    23170701.441
 04  1 11  2 21 30.0000000  0  9G29G30G17G15G 6G21G26G18G16
  23004748.108   -11701992.99343  -9094569.59542  23004749.748    23004745.371
  24074565.088    -6105775.06943  -4652693.59542  24074566.903    24074563.710
  23822947.598    -6973471.28943  -5418476.40342  23822947.732    23822944.610
  23421439.032   -11677982.85343  -9068837.12742  23421439.877    23421437.472
  20528989.045   -28516800.39144 -22209781.76842  20528990.401    20528986.267
  20779023.760   -26519716.32844 -20620744.71942  20779024.664    20779019.491
  22034639.256   -18908384.22643 -14626935.06942  22034640.939    22034636.900
  21214203.149   -22844676.86143 -17663117.38242  21214204.293    21214199.695
  23164599.584   -13283813.99043 -10338860.83542  23164600.592    23164596.230
 04  1 11  2 22  0.0000000  0  9G29G30G17G15G 6G21G26G18G16
  23006511.952   -11692723.88543  -9087346.90542  23006513.579    23006509.217
  24094468.181    -6001183.71643  -4571193.84842  24094469.994    24094466.752
  23836348.778    -6903047.75443  -5363600.93442  23836348.890    23836345.750
  23407432.510   -11751587.40343  -9126191.28442  23407433.339    23407430.902
  20535245.213   -28483923.90544 -22184163.72542  20535246.578    20535242.471
  20774953.004   -26541108.24644 -20637413.73342  20774953.913    20774948.744
  22029067.728   -18937662.64543 -14649749.39942  22029069.461    22029065.355
  21202150.243   -22908015.07143 -17712471.80642  21202151.402    21202146.816
  23158597.182   -13315356.58843 -10363439.47942  23158598.241    23158593.846
 04  1 11  2 22 30.0000000  0  9G29G30G17G15G 6G21G26G18G16
  23008378.944   -11682912.67343  -9079701.78642  23008380.572    23008376.230
  24114364.739    -5896627.13443  -4489721.20142  24114366.544    24114363.148
  23849759.760    -6832572.18143  -5308684.90542  23849759.905    23849756.757
  23393442.763   -11825104.25543  -9183477.09742  23393443.581    23393441.045
  20541588.850   -28450587.94544 -22158187.64942  20541590.196    20541586.100
  20770920.292   -26562300.28244 -20653926.99542  20770921.215    20770916.000
  22023609.764   -18966344.15643 -14672098.60842  22023611.528    22023607.409
  21190176.598   -22970936.87743 -17761501.76342  21190177.757    21190173.162
  23152697.324   -13346360.42243 -10387598.30942  23152698.415    23152694.021
 04  1 11  2 23  0.0000000  0  9G29G30G17G15G 6G21G26G18G16
  23010349.401   -11672557.98543  -9071633.19142  23010350.994    23010346.626
  24134254.257    -5792107.16643  -4408277.07842  24134256.140    24134252.703
  23863180.900    -6762043.32243  -5253727.36742  23863181.132    23863178.009
  23379469.730   -11898532.59843  -9240693.93542  23379470.610    23379468.097
  20548020.078   -28416791.59244 -22131852.82642  20548021.422    20548017.326
  20766925.774   -26583291.53344 -20670283.80442  20766926.699    20766921.471
  22018265.931   -18994426.20543 -14693980.70942  22018267.664    22018263.545
  21178282.577   -23033440.27343 -17810205.68742  21178283.731    21178279.123
  23146900.389   -13376823.61343 -10411335.85242  23146901.486    23146897.035
 04  1 11  2 23 30.0000000  0  9G29G30G17G15G 6G21G26G18G16
  23012423.152   -11661660.39343  -9063141.54842  23012424.737    23012420.337
  24154136.234    -5687626.78143  -4326863.80742  24154138.188    24154134.743
  23876612.123    -6691461.79343  -5198728.78542  23876612.369    23876609.325
  23365513.609   -11971872.78543  -9297842.09642  23365514.473    23365511.900
  20554538.873   -28382535.08844 -22105159.44542  20554540.222    20554536.102
  20762969.335   -26604082.60344 -20686484.62342  20762970.276    20762965.050
  22013036.460   -19021907.11843 -14715394.38442  22013038.211    22013034.098
  21166468.292   -23095524.77243 -17858583.19842  21166469.430    21166464.807
  23141206.325   -13406746.07243 -10434652.05042  23141207.415    23141202.973
 04  1 11  2 24  0.0000000  0  9G29G30G17G15G 6G21G26G18G16
  23014600.781   -11650216.64643  -9054224.33542  23014602.380    23014598.022
  24174010.614    -5583185.76443  -4245481.20542  24174012.637    24174009.180
  23890053.887    -6620824.55243  -5143686.79042  23890054.185    23890051.161
  23351574.729   -12045121.72443  -9354919.14642  23351575.647    23351573.045
  20561145.783   -28347815.49144 -22078105.21542  20561147.127    20561143.026
  20759051.617   -26624670.25144 -20702526.93742  20759052.561    20759047.346
  22007922.301   -19048782.11443 -14736335.91342  22007924.045    22007919.918
  21154734.569   -23157185.92843 -17906630.82942  21154735.690    21154731.054
  23135615.824   -13436123.86243 -10457543.82842  23135616.972    23135612.569
 04  1 11  2 24 30.0000000  0  9G29G30G17G15G 6G21G26G18G16
  23016881.365   -11638232.05743  -9044885.68642  23016882.951    23016878.577
  24193876.070    -5478791.85243  -4164135.32142  24193878.000    24193874.606
  23903505.259    -6550137.04843  -5088605.62842  23903505.535    23903502.489
  23337652.269   -12118284.79043  -9411929.29742  23337653.131    23337650.525
  20567839.833   -28312638.10344 -22050694.26142  20567841.172    20567837.043
  20755171.607   -26645059.74944 -20718414.84742  20755172.559    20755167.325
  22002922.773   -19075054.77443 -14756808.09942  22002924.513    22002920.339
  21143080.552   -23218428.11443 -17954351.99242  21143081.685    21143077.021
  23130128.196   -13464961.55143 -10480014.74742  23130129.322    23130124.977
 04  1 11  2 25  0.0000000  0  9G29G30G17G15G 6G21G26G18G16
  23019265.250   -11625704.33543  -9035123.81242  23019266.875    23019262.577
  24213732.556    -5374445.66643  -4082826.61042  24213734.373    24213731.060
  23916966.602    -6479397.15443  -5033483.63942  23916966.950    23916963.825
  23323746.581   -12191359.66743  -9468870.73242  23323747.421    23323744.757
  20574621.373   -28277000.92344 -22022925.03042  20574622.709    20574618.577
  20751329.685   -26665249.08744 -20734146.78442  20751330.640    20751325.417
  21998038.620   -19100721.13043 -14776807.83542  21998040.338    21998036.189
  21131506.833   -23279248.24143 -18001744.27642  21131507.998    21131503.309
  23124743.863   -13493256.34743 -10502062.64742  23124744.980    23124740.667
 04  1 11  2 25 30.0000000  0  9G29G30G17G15G 6G21G26G18G16
  23021752.721   -11612632.75443  -9024938.15342  23021754.302    23021749.997
  24233579.563    -5270149.07843  -4001556.56842  24233581.432    24233578.073
  23930438.107    -6408604.10143  -4978320.22542  23930438.505    23930435.291
  23309857.772   -12264345.62943  -9525742.86742  23309858.602    23309855.992
  20581490.515   -28240903.19644 -21994796.93242  20581491.872    20581487.752
  20747526.051   -26685237.37944 -20749722.06242  20747526.988    20747521.771
  21993270.287   -19125778.73343 -14796333.22342  21993271.999    21993267.846
  21120013.744   -23339644.82043 -18048806.52342  21120014.888    21120010.184
  23119463.083   -13521006.93443 -10523686.46942  23119464.204    23119459.896
 04  1 11  2 26  0.0000000  0  9G29G30G17G15G 6G21G26G18G16
  23024344.105   -11599015.08343  -9014326.97542  23024345.692    23024341.305
  24253417.106    -5165902.31043  -3920325.35142  24253418.897    24253415.650
  23943920.075    -6337755.57743  -4923113.56442  23943920.503    23943917.407
  23295986.408   -12337240.17543  -9582543.78042  23295987.239    23295984.570
  20588447.764   -28204342.75444 -21966308.28442  20588449.098    20588444.983
  20743761.072   -26705022.50144 -20765139.02942  20743762.004    20743756.781
  21988618.581   -19150223.54143 -14815381.10942  21988620.297    21988616.142
  21108601.942   -23399614.12743 -18095535.83042  21108603.092    21108598.382
  23114286.408   -13548210.39843 -10544883.97342  23114287.530    23114283.251
 04  1 11  2 26 30.0000000  0  9G29G30G17G15G 6G21G26G18G16
  23027038.648   -11584855.09243  -9003293.20742  23027040.239    23027035.852
  24273243.900    -5061712.04143  -3839138.13742  24273245.720    24273242.330
  23957411.861    -6266855.86443  -4867867.06342  23957412.201    23957409.112
  23282131.636   -12410047.09543  -9639276.40342  23282132.486    23282129.847
  20595492.281   -28167323.51744 -21937462.13142  20595493.612    20595489.495
  20740034.091   -26724607.95944 -20780400.41942  20740035.012    20740029.771
  21984083.072   -19174057.74443 -14833953.19342  21984084.789    21984080.617
  21097270.844   -23459159.35943 -18141934.69442  21097271.989    21097267.277
  23109213.287   -13574869.83443 -10565657.55542  23109214.410    23109210.125
 04  1 11  2 27  0.0000000  0  9G29G30G17G15G 6G21G26G18G16
  23029836.505   -11570152.25543  -8991836.43642  23029838.084    23029833.685
  24293059.536    -4957580.11943  -3757996.36942  24293061.367    24293057.884
  23970913.517    -6195904.13243  -4812580.01542  23970913.817    23970910.770
  23268293.727   -12482765.85743  -9695940.33242  23268294.559    23268291.904
  20602624.250   -28129844.83744 -21908257.97042  20602625.578    20602621.460
  20736345.184   -26743993.27844 -20795505.85542  20736346.102    20736340.866
  21979664.204   -19197279.02043 -14852047.68142  21979665.913    21979661.725
  21086020.770   -23518278.75044 -18188001.73342  21086021.954    21086017.210
  23104243.881   -13600984.25543 -10586006.46042  23104244.995    23104240.718
 04  1 11  2 27 30.0000000  0 10G29G22G30G17G15G 6G21G26G18G16
  23032737.715   -11554906.13543  -8979956.33442  23032739.331    23032734.926
  23714045.404    -1696831.38753  -1313636.33952  23714045.650    23714039.959
  24312863.723    -4853508.88743  -3676901.91042  24312865.558    24312861.988
  23984425.147    -6124899.99543  -4757252.11942  23984425.480    23984422.468
  23254472.663   -12555395.89543  -9752535.11942  23254473.410    23254470.801
  20609843.646   -28091906.49344 -21878695.62142  20609844.988    20609840.887
  20732694.429   -26763178.00444 -20810454.98042  20732695.358    20732690.110
  21975362.318   -19219885.36443 -14869662.98942  21975364.022    21975359.875
  21074851.918   -23576971.49144 -18233736.31542  21074853.079    21074848.357
  23099378.414   -13626552.57443 -10605929.80842  23099379.498    23099375.262
 04  1 11  2 28  0.0000000  0 10G29G22G30G17G15G 6G21G26G18G16
  23035742.318   -11539116.98143  -8967653.09842  23035743.905    23035739.466
  23695113.987    -1796316.81143  -1391157.40442  23695114.147    23695108.363
  24332655.810    -4749500.71343  -3595856.61342  24332657.682    24332654.084
  23997946.736    -6053843.38543  -4701883.35942  23997947.130    23997944.059
  23240668.570   -12627937.03143  -9809060.65242  23240669.266    23240666.657
  20617150.514   -28053508.70444 -21848775.27242  20617151.836    20617147.725
  20729081.864   -26782162.13444 -20825247.79542  20729082.777    20729077.526
  21971177.849   -19241875.00943 -14886797.76842  21971179.516    21971175.378
  21063764.484   -23635236.31144 -18279137.45242  21063765.645    21063760.905
  23094617.027   -13651574.12143 -10625427.12042  23094618.060    23094613.793
 04  1 11  2 28 30.0000000  0 10G29G22G30G17G15G 6G21G26G18G16
  23038850.225   -11522784.79543  -8954926.70342  23038851.834    23038847.385
  23676221.974    -1895594.50443  -1468516.59342  23676222.127    23676216.438
  24352435.468    -4645558.19643  -3514862.46442  24352437.330    24352433.742
  24011478.256    -5982734.44543  -4646473.78142  24011478.575    24011475.644
  23226881.267   -12700389.19943  -9865516.82942  23226881.970    23226879.446
  20624544.752   -28014651.53344 -21818496.96142  20624546.101    20624542.011
  20725507.589   -26800945.03644 -20839883.81142  20725508.503    20725503.245
  21967111.014   -19263246.36143 -14903450.74942  21967112.669    21967108.517
  21052758.729   -23693071.90644 -18324204.13242  21052759.898    21052755.138
  23089959.689   -13676048.64243 -10644498.17242  23089960.727    23089956.441
 04  1 11  2 29  0.0000000  0 10G29G22G30G17G15G 6G21G26G18G16
  23042061.766   -11505907.86643  -8941775.84142  23042063.378    23042058.943
  23657370.081    -1994661.46043  -1545711.54242  23657370.320    23657364.633
  24372202.427    -4541682.27343  -3433920.18942  24372204.302    24372200.766
  24025020.122    -5911571.14443  -4591021.86742  24025020.474    24025017.489
  23213111.408   -12772750.43843  -9921902.18242  23213112.053    23213109.501
  20632026.798   -27975333.25044 -21787859.34442  20632028.136    20632024.019
  20721971.865   -26819525.37144 -20854361.98342  20721972.762    20721967.523
  21963162.431   -19283996.18643 -14919619.41942  21963164.093    21963159.929
  21041835.081   -23750475.98244 -18368934.56042  21041836.260    21041831.520
  23085406.918   -13699973.55143 -10663140.95542  23085407.978    23085403.652
 04  1 11  2 29 30.0000000  0 10G29G22G30G17G15G 6G21G26G18G16
  23045376.252   -11488490.13743  -8928203.57542  23045377.875    23045373.416
  23638557.909    -2093519.36343  -1622743.62242  23638558.261    23638552.573
  24391955.526    -4437879.07143  -3353034.59742  24391957.449    24391953.861
  24038571.630    -5840357.43043  -4535530.69642  24038571.998    24038569.086
  23199358.053   -12845024.35843  -9978219.47542  23199358.678    23199356.160
  20639595.810   -27935557.68844 -21756865.40442  20639597.161    20639593.061
  20718474.013   -26837906.62444 -20868685.02642  20718474.921    20718469.656
  21959331.740   -19304126.53543 -14935305.39242  21959333.405    21959329.229
  21030993.004   -23807451.41944 -18413330.98742  21030994.185    21030989.434
  23080958.106   -13723352.29343 -10681358.14442  23080959.188    23080954.815
 04  1 11  2 30  0.0000000  0 10G29G22G30G17G15G 6G21G26G18G16
  23048794.629   -11470526.30043  -8914205.76642  23048796.236    23048791.795
  23619786.919    -2192161.06243  -1699607.23342  23619787.312    23619781.610
  24411695.248    -4334145.90943  -3272203.55042  24411697.257    24411693.511
  24052133.734    -5769087.92843  -4479995.99942  24052134.212    24052131.118
  23185622.438   -12917205.47243 -10034464.46542  23185623.060    23185620.450
  20647252.829   -27895319.74344 -21725511.16442  20647254.184    20647250.073
  20715015.078   -26856083.30444 -20882848.66542  20715016.009    20715010.736
  21955620.204   -19323630.66843 -14950503.39942  21955621.889    21955617.654
  21020233.680   -23863992.08544 -18457388.63042  21020234.838    21020230.108
  23076614.376   -13746178.81843 -10699145.05342  23076615.495    23076611.052
 04  1 11  2 30 30.0000000  0 10G29G22G30G17G15G 6G21G26G18G16
  23052315.736   -11452022.63543  -8899787.33242  23052317.344    23052312.946
  23601056.348    -2290590.90943  -1776305.75842  23601056.660    23601051.054
  24431420.062    -4230491.30043  -3191433.73042  24431421.995    24431418.366
  24065705.324    -5697768.78143  -4424422.66342  24065705.817    24065702.747
  23171903.250   -12989299.96543 -10090641.95242  23171903.822    23171901.308
  20654996.635   -27854625.80344 -21693801.60242  20654997.975    20654993.889
  20711593.933   -26874061.54244 -20896857.67442  20711594.840    20711589.595
  21952027.002   -19342513.10843 -14965216.97542  21952028.672    21952024.422
  21009556.107   -23920102.93944 -18501111.35442  21009557.294    21009552.560
  23072374.616   -13768458.76943 -10716506.04342  23072375.715    23072371.302
 04  1 11  2 31  0.0000000  0 10G29G22G30G17G15G 6G21G26G18G16
  23055940.241   -11432975.82943  -8884945.64942  23055941.825    23055937.437
  23582366.968    -2388803.70843  -1852835.16342  23582367.314    23582361.672
  24451130.205    -4126914.11643  -3110724.25442  24451132.076    24451128.465
  24079287.128    -5626396.20243  -4368807.69442  24079287.647    24079284.496
  23158201.286   -13061304.06043 -10146749.00342  23158201.829    23158199.301
  20662827.884   -27813472.32844 -21661733.96042  20662829.226    20662825.133
  20708211.307   -26891837.28444 -20910708.89442  20708212.210    20708206.988
  21948553.080   -19360768.77743 -14979442.15342  21948554.743    21948550.454
  20998961.203   -23975779.50144 -18544495.67242  20998962.367    20998957.652
  23068239.611   -13790188.36143 -10733438.19342  23068240.722    23068236.301
 04  1 11  2 31 30.0000000  0 10G29G22G30G17G15G 6G21G26G18G16
  23059667.612   -11413388.25843  -8869682.59342  23059669.217    23059664.823
  23563718.883    -2486799.90443  -1929195.77842  23563719.235    23563713.530
  24470824.566    -4023419.03843  -3030078.74642  24470826.464    24470822.874
  24092878.620    -5554972.25043  -4313152.67842  24092879.224    24092876.094
  23144516.156   -13133219.79243 -10202787.20842  23144516.701    23144514.150
  20670746.162   -27771861.56144 -21629309.98342  20670747.483    20670743.407
  20704866.746   -26909413.03844 -20924404.27542  20704867.654    20704862.421
  21945198.325   -19378398.28343 -14993179.41242  21945199.932    21945195.685
  20988448.685   -24031023.12144 -18587542.63142  20988449.846    20988445.118
  23064209.063   -13811368.96043 -10749942.55842  23064210.140    23064205.781
 04  1 11  2 32  0.0000000  0 10G29G22G30G17G15G 6G21G26G18G16
  23063498.701   -11393255.44343  -8853994.68142  23063500.346    23063495.931
  23545113.255    -2584573.14043  -2005382.67542  23545113.582    23545107.829
  24490503.788    -3920004.24443  -2949495.77642  24490505.715    24490502.010
  24106480.755    -5483492.44243  -4257454.11042  24106481.376    24106478.284
  23130848.754   -13205042.34043 -10258752.78342  23130849.299    23130846.742
  20678752.245   -27729789.29544 -21596526.40142  20678753.573    20678749.500
  20701561.206   -26926783.83144 -20937939.95142  20701562.089    20701556.854
  21941963.780   -19395395.79043 -15006424.21042  21941965.410    21941961.137
  20978019.558   -24085828.56644 -18630248.15942  20978020.704    20978015.967
  23060283.940   -13831995.89943 -10766015.49642  23060284.959    23060280.634
 04  1 11  2 32 30.0000000  0 10G29G22G30G17G15G 6G21G26G18G16
  23067432.156   -11372585.17143  -8837887.96442  23067433.778    23067429.383
  23526548.950    -2682128.87043  -2081400.05342  23526549.266    23526543.610
  24510165.890    -3816679.24943  -2868982.79842  24510167.836    24510164.158
  24120092.218    -5411963.99843  -4201717.68242  24120092.842    24120089.630
  23117197.643   -13276778.94643 -10314651.40342  23117198.225    23117195.632
  20686844.724   -27687263.00844 -21563389.03942  20686846.066    20686841.984
  20698293.295   -26943956.77744 -20951321.45742  20698294.187    20698288.937
  21938848.380   -19411767.13743 -15019181.08042  21938850.023    21938845.741
  20967672.602   -24140202.15844 -18672617.16942  20967673.750    20967669.026
  23056462.823   -13852075.98243 -10781662.31542  23056463.839    23056459.489
 04  1 11  2 33  0.0000000  0 10G29G22G30G17G15G 6G21G26G18G16
  23071468.564   -11351373.47143  -8821359.36042  23071470.217    23071465.835
  23508027.142    -2779461.26643  -2157243.41942  23508027.479    23508021.777
  24529811.157    -3713442.38243  -2788538.48642  24529813.090    24529809.585
  24133713.752    -5340382.83143  -4145940.21542  24133714.263    24133711.025
  23103563.810   -13348425.26743 -10370479.67142  23103564.325    23103561.777
  20695024.323   -27644278.88043 -21529894.91442  20695025.668    20695021.594
  20695063.872   -26960927.56844 -20964545.44042  20695064.755    20695059.502
  21935853.207   -19427506.77543 -15031445.71342  21935854.851    21935850.585
  20957408.791   -24194138.89244 -18714645.77642  20957409.924    20957405.178
  23052746.592   -13871604.82843 -10796879.59842  23052747.643    23052743.258
 04  1 11  2 33 30.0000000  0 10G29G22G30G17G15G 6G21G26G18G16
  23075608.338   -11329618.59643  -8804407.50542  23075610.032    23075605.635
  23489548.595    -2876566.49243  -2232909.77842  23489548.948    23489543.214
  24549439.458    -3610294.26943  -2708163.36042  24549441.379    24549438.104
  24147345.599    -5268746.54943  -4090119.67342  24147346.247    24147342.950
  23089947.530   -13419979.07943 -10426235.84742  23089948.066    23089945.509
  20703291.385   -27600835.20844 -21496042.70442  20703292.722    20703288.661
  20691873.210   -26977694.47544 -20977610.55442  20691874.091    20691868.847
  21932978.870   -19442611.37243 -15043215.50842  21932980.522    21932976.251
  20947228.632   -24247635.97644 -18756331.79942  20947229.769    20947225.019
  23049135.731   -13890579.85243 -10811665.32542  23049136.766    23049132.417
 04  1 11  2 34  0.0000000  0 10G29G22G30G17G15G 6G21G26G18G16
  23079850.889   -11307323.79243  -8787034.91842  23079852.546    23079848.163
  23471113.039    -2973445.79143  -2308400.10142  23471113.345    23471107.575
  24569049.884    -3507240.16643  -2627861.48442  24569051.713    24569048.693
  24160987.511    -5197058.27943  -4034258.69642  24160988.014    24160984.779
  23076348.374   -13491442.99543 -10481921.98442  23076348.925    23076346.345
  20711645.291   -27556935.11843 -21461834.84842  20711646.639    20711642.573
  20688720.974   -26994259.56144 -20990518.40142  20688721.863    20688716.598
  21930225.132   -19457082.48843 -15054491.68542  21930226.773    21930222.464
  20937131.650   -24300695.88844 -18797677.17142  20937132.775    20937128.025
  23045629.801   -13909003.76543 -10826021.62742  23045630.811    23045626.436
 04  1 11  2 34 30.0000000  0 10G29G22G30G17G15G 6G21G26G18G16
  23084195.457   -11284492.76843  -8769244.50942  23084197.140    23084192.786
  23452720.171    -3070100.91843  -2383715.72142  23452720.483    23452714.716
  24588641.478    -3404285.87143  -2547637.40742  24588643.245    24588640.089
  24174638.653    -5125321.28443  -3978359.75142  24174639.062    24174635.985
  23062765.623   -13562820.42343 -10537540.71642  23062766.248    23062763.647
  20720085.321   -27512582.37644 -21427274.27142  20720086.672    20720082.615
  20685606.456   -27010626.37144 -21003271.74842  20685607.341    20685602.091
  21927591.484   -19470922.32043 -15065275.95142  21927593.114    21927588.808
  20927117.409   -24353320.99844 -18838683.73442  20927118.556    20927113.785
  23042228.128   -13926879.73543 -10839950.95342  23042229.141    23042224.760
 04  1 11  2 35  0.0000000  0 10G29G22G30G17G15G 6G21G26G18G16
  23088643.682   -11261117.20543  -8751029.77442  23088645.338    23088641.007
  23434371.866    -3166521.42943  -2458848.52842  23434372.228    23434366.472
  24608215.263    -3301425.29743  -2467486.27642  24608216.973    24608213.546
  24188300.745    -5053526.64843  -3922415.89642  24188301.123    24188297.997
  23049201.051   -13634102.40043 -10593085.08142  23049201.692    23049199.064
  20728613.135   -27467768.47444 -21392354.35242  20728614.470    20728610.418
  20682531.346   -27026786.12444 -21015863.75642  20682532.242    20682526.976
  21925079.893   -19484120.88743 -15075560.52742  21925081.541    21925077.184
  20917187.669   -24405502.00644 -18879344.24142  20917188.806    20917184.071
  23038932.458   -13944198.82843 -10853446.35142  23038933.480    23038929.029
 04  1 11  2 35 30.0000000  0 10G29G22G30G17G15G 6G21G26G18G16
  23093193.465   -11237207.84043  -8732399.08542  23093195.132    23093190.811
  23416066.593    -3262715.77143  -2533805.09342  23416066.962    23416061.268
  24627768.864    -3198670.86243  -2387417.82842  24627770.720    24627767.057
  24201971.819    -4981684.76843  -3866435.23242  24201972.206    24201969.155
  23035652.784   -13705299.08743 -10648562.97642  23035653.397    23035650.753
  20737226.658   -27422503.99144 -21357083.32742  20737228.007    20737223.981
  20679493.745   -27042748.64344 -21028302.07342  20679494.675    20679489.407
  21922688.595   -19496687.24543 -15085352.48342  21922690.213    21922685.870
  20907340.693   -24457248.25144 -18919665.97442  20907341.829    20907337.057
  23035740.828   -13960971.04743 -10866515.60542  23035741.892    23035737.385
 04  1 11  2 36  0.0000000  0 10G29G22G30G17G15G 6G21G26G18G16
  23097846.360   -11212756.89643  -8713346.40842  23097847.986    23097843.631
  23397806.314    -3358674.21443  -2608577.85242  23397806.669    23397800.897
  24647303.281    -3096017.07443  -2307427.87042  24647305.087    24647301.406
  24215653.450    -4909787.47343  -3810411.39242  24215653.760    24215650.754
  23022122.200   -13776402.45243 -10703968.15542  23022122.880    23022120.170
  20745927.416   -27376781.29344 -21321455.25542  20745928.746    20745924.728
  20676495.246   -27058505.94544 -21040580.48342  20676496.171    20676490.882
  21920419.347   -19508612.11343 -15094644.56842  21920420.982    21920416.634
  20897578.067   -24508551.08844 -18959642.19542  20897579.207    20897574.435
  23032654.871   -13977187.97243 -10879152.17542  23032655.942    23032651.403
 04  1 11  2 36 30.0000000  0  9G29G22G17G15G 6G21G26G18G16
  23102601.768   -11187766.98043  -8693873.73242  23102603.401    23102599.046
  23379590.787    -3454397.20043  -2683167.12042  23379591.110    23379585.354
  24229345.262    -4837836.58643  -3754345.77442  24229345.678    24229342.662
  23008609.084   -13847414.29343 -10759302.02142  23008609.782    23008606.976
  20754714.911   -27330602.79444 -21285472.01542  20754716.236    20754712.209
  20673535.462   -27074059.71644 -21052700.29442  20673536.382    20673531.099
  21918272.018   -19519896.34043 -15103437.45442  21918273.652    21918269.295
  20887899.607   -24559411.78944 -18999273.89242  20887900.712    20887895.942
  23029674.160   -13992851.60243 -10891357.59342  23029675.271    23029670.735
 04  1 11  2 37  0.0000000  0  9G29G22G17G15G 6G21G26G18G16
  23107459.523   -11162239.17443  -8673981.93042  23107461.168    23107456.824
  23361420.240    -3549883.71743  -2757572.12842  23361420.543    23361414.832
  24243047.067    -4765833.16943  -3698239.22342  24243047.493    24243044.513
  22995113.201   -13918335.30143 -10814565.09742  22995113.950    22995111.142
  20763588.881   -27283969.68344 -21249134.53342  20763590.230    20763586.202
  20670614.285   -27089410.45544 -21064661.90042  20670615.222    20670609.929
  21916246.623   -19530539.62043 -15111730.90742  21916248.284    21916243.949
  20878305.262   -24609830.27644 -19038561.01042  20878306.393    20878301.604
  23026798.656   -14007962.49743 -10903132.32942  23026799.755    23026795.228
 04  1 11  2 37 30.0000000  0 10G 2G29G22G17G15G 6G21G26G18G16
  25326294.104    -5084239.18653  -3852389.39452  25326294.877    25326292.167
  23112417.274   -11136185.79343  -8653680.59342  23112418.972    23112414.598
  23343292.861    -3645143.85443  -2831800.75942  23343293.160    23343287.347
  24256756.812    -4693788.40943  -3642100.44342  24256757.163    24256754.134
  22981632.463   -13989176.88543 -10869766.29042  22981633.232    22981630.435
  20772547.070   -27236894.14044 -21212452.29242  20772548.427    20772544.386
  20667729.508   -27104570.07544 -21076474.58542  20667730.430    20667725.143
  21914341.225   -19540552.50743 -15119533.13742  21914342.878    21914338.559
  20868792.972   -24659817.63844 -19077512.18442  20868794.096    20868789.312
  23024026.144   -14022532.23743 -10914485.37042  23024027.239    23024022.687
 04  1 11  2 38  0.0000000  0 10G 2G29G22G17G15G 6G21G26G18G16
  25317033.516    -5132903.77943  -3890309.85442  25317034.301    25317031.566
  23117479.393   -11109584.28043  -8632952.13642  23117481.062    23117476.717
  23325213.162    -3740153.03143  -2905833.80942  23325213.457    23325207.681
  24270478.820    -4621679.36443  -3585911.61842  24270479.223    24270476.030
  22968171.288   -14059915.79243 -10924887.48042  22968172.060    22968169.271
  20781593.770   -27189353.43243 -21175407.58742  20781595.121    20781591.074
  20664885.563   -27119515.15344 -21088120.09342  20664886.479    20664881.190
  21912560.413   -19549910.80243 -15126825.30842  21912562.048    21912557.698
  20859367.169   -24709350.49444 -19116109.20142  20859368.318    20859363.489
  23021361.021   -14036537.55243 -10925398.60742  23021362.125    23021357.525
 04  1 11  2 38 30.0000000  0 10G 2G29G22G17G15G 6G21G26G18G16
  25307844.523    -5181192.13343  -3927937.14442  25307845.487    25307842.669
  23122642.623   -11082451.25843  -8611809.51142  23122644.309    23122639.952
  23307178.394    -3834925.77143  -2979682.62942  23307178.698    23307172.983
  24284209.926    -4549522.05043  -3529685.14242  24284210.171    24284207.220
  22954726.623   -14130567.79143 -10979940.94542  22954727.404    22954724.598
  20790725.820   -27141364.17544 -21138013.36042  20790727.183    20790723.142
  20662079.415   -27134261.47144 -21099610.71742  20662080.333    20662075.056
  21910901.230   -19558629.83643 -15133619.34342  21910902.851    21910898.514
  20850024.918   -24758444.28744 -19154364.08542  20850026.055    20850021.226
  23018800.196   -14049994.68743 -10935884.68142  23018801.318    23018796.745
 04  1 11  2 39  0.0000000  0 10G 2G29G22G17G15G 6G21G26G18G16
  25298728.874    -5229095.10643  -3965264.12542  25298729.825    25298727.069
  23127908.385   -11054779.58743  -8590247.16842  23127910.086    23127905.683
  23289190.524    -3929452.57143  -3053339.82542  23289190.837    23289185.126
  24297951.757    -4477308.46143  -3473414.80742  24297951.819    24297948.970
  22941300.023   -14201124.98543 -11034920.53842  22941300.811    22941298.000
  20799944.673   -27092918.78544 -21100263.70842  20799946.031    20799941.996
  20659312.603   -27148801.01444 -21110940.22342  20659313.548    20659308.271
  21909365.389   -19566700.58843 -15139908.22742  21909367.013    21909362.640
  20840767.838   -24807090.43444 -19192270.15842  20840768.980    20840764.150
  23016345.243   -14062895.54843 -10945937.30442  23016346.366    23016341.820
 04  1 11  2 39 30.0000000  0 10G 2G29G22G17G15G 6G21G26G18G16
  25289685.633    -5276617.45743  -4002294.52342  25289686.496    25289683.835
  23133275.506   -11026575.34943  -8568269.83142  23133277.147    23133272.762
  23271248.651    -4023737.35543  -3126808.42842  23271248.992    23271243.297
  24311703.261    -4405044.47943  -3417105.23242  24311703.188    24311700.282
  22927890.371   -14271593.20343 -11089830.79642  22927891.124    22927888.279
  20809249.108   -27044023.58744 -21062163.55642  20809250.468    20809246.455
  20656584.065   -27163139.46844 -21122113.03542  20656585.017    20656579.733
  21907951.981   -19574127.99743 -15145695.80742  21907953.605    21907949.222
  20831594.983   -24855294.08744 -19229831.43342  20831596.116    20831591.279
  23013995.009   -14075246.36543 -10955561.31742  23013996.096    23013991.540
 04  1 11  2 40  0.0000000  0 10G 2G29G22G17G15G 6G21G26G18G16
  25280715.819    -5323754.41343  -4039024.61742  25280716.566    25280714.051
  23138744.370   -10997836.08443  -8545875.59642  23138746.028    23138741.621
  23253353.805    -4117775.18343  -3200084.60142  23253354.159    23253348.496
  24325465.057    -4332726.25643  -3360753.34742  24325465.063    24325462.146
  22914498.351   -14341968.70943 -11144668.82342  22914499.100    22914496.199
  20818639.693   -26994675.74743 -21023710.69642  20818641.059    20818637.036
  20653894.506   -27177273.18344 -21133126.31142  20653895.464    20653890.183
  21906661.860   -19580907.59943 -15150978.60442  21906663.495    21906659.101
  20822507.074   -24903051.32444 -19267044.85042  20822508.202    20822503.357
  23011750.148   -14087043.15943 -10964753.62142  23011751.286    23011746.650
 04  1 11  2 40 30.0000000  0 10G 2G29G22G17G15G 6G21G26G18G16
  25271819.121    -5370506.92543  -4075455.14142  25271819.741    25271817.266
  23144314.592   -10968564.29643  -8523066.40642  23144316.271    23144311.863
  23235505.885    -4211566.45843  -3273168.65442  23235506.222    23235500.588
  24339236.638    -4260356.33843  -3304361.21942  24339236.615    24339233.754
  22901123.628   -14412253.35643 -11199436.03642  22901124.365    22901121.449
  20828115.929   -26944877.77943 -20984907.08942  20828117.309    20828113.281
  20651243.519   -27191204.23844 -21143981.66842  20651244.477    20651239.180
  21905494.791   -19587040.61243 -15155757.56342  21905496.416    21905492.032
  20813503.832   -24950363.69444 -19303911.62142  20813504.945    20813500.081
  23009610.273   -14098288.14143 -10973515.95242  23009611.433    23009606.803
 04  1 11  2 41  0.0000000  0 10G 2G29G22G17G15G 6G21G26G18G16
  25262995.644    -5416874.51143  -4111585.71242  25262996.267    25262993.847
  23149985.953   -10938761.19143  -8499843.20542  23149987.573    23149983.196
  23217705.011    -4305110.31443  -3346059.90542  23217705.367    23217699.715
  24353017.961    -4187935.00543  -3247929.02742  24353018.074    24353015.060
  22887766.087   -14482447.41443 -11254132.67242  22887766.815    22887763.929
  20837677.617   -26894630.77743 -20945753.58642  20837678.982    20837674.955
  20648631.144   -27204932.44144 -21154678.96342  20648632.072    20648626.801
  21904450.737   -19592526.80043 -15160032.49842  21904452.406    21904448.035
  20804585.214   -24997231.24444 -19340431.77942  20804586.331    20804581.461
  23007575.245   -14108982.07443 -10981848.89242  23007576.403    23007571.816
 04  1 11  2 41 30.0000000  0 10G 2G29G22G17G15G 6G21G26G18G16
  25254246.487    -5462851.50643  -4147411.94142  25254247.234    25254244.617
  23155759.086   -10908423.10843  -8476203.13742  23155760.715    23155756.324
  23199952.473    -4398400.64543  -3418753.61642  23199952.807    23199947.129
  24366809.890    -4115457.57143  -3191453.08742  24366809.637    24366807.274
  22874426.708   -14552546.44943 -11308755.26542  22874427.392    22874424.493
  20847325.505   -26843930.83143 -20906247.13642  20847326.864    20847322.836
  20646058.104   -27218453.80144 -21165215.07642  20646059.030    20646053.762
  21903530.869   -19597360.70843 -15163799.17042  21903532.523    21903528.146
  20795752.194   -25043648.97644 -19376601.42942  20795753.311    20795748.461
  23005645.976   -14119120.45643 -10989748.92942  23005647.114    23005642.586
 04  1 11  2 42  0.0000000  0  9G 2G29G22G15G 6G21G26G18G16
  25245572.482    -5508433.55143  -4182930.42142  25245573.280    25245570.567
  23161634.554   -10877547.41443  -8452144.14042  23161636.166    23161631.785
  23182248.969    -4491432.73543  -3491246.08942  23182249.355    23182243.646
  22861106.039   -14622547.05843 -11363301.15842  22861106.651    22861103.788
  20857060.076   -26792775.42643 -20866385.78742  20857061.412    20857057.388
  20643525.086   -27231764.84844 -21175587.31042  20643526.024    20643520.735
  21902735.836   -19601538.48543 -15167054.57542  21902737.484    21902733.119
  20787005.492   -25089613.08844 -19412417.60742  20787006.609    20787001.743
  23003822.998   -14128700.34143 -10997213.78242  23003824.130    23003819.591
 04  1 11  2 42 30.0000000  0  9G 2G29G22G15G 6G21G26G18G16
  25236971.462    -5553632.29043  -4218150.22042  25236972.319    25236969.461
  23167609.730   -10846147.76543  -8427676.88342  23167611.336    23167606.930
  23164592.560    -4584217.68143  -3563546.00042  23164592.916    23164587.179
  22847801.678   -14692461.82643 -11417780.16742  22847802.245    22847799.427
  20866878.775   -26741177.84143 -20826179.88442  20866880.118    20866876.089
  20641029.805   -27244877.58144 -21185805.02142  20641030.739    20641025.466
  21902063.417   -19605072.07143 -15169808.01042  21902065.047    21902060.659
  20778342.741   -25135136.01544 -19447890.00742  20778343.861    20778339.014
  23002103.847   -14137734.41943 -11004253.32742  23002104.989    23002100.455
 04  1 11  2 43  0.0000000  0  9G 2G29G22G15G 6G21G26G18G16
  25228443.864    -5598444.78643  -4253069.05142  25228444.703    25228441.855
  23173684.787   -10814222.95043  -8402800.40242  23173686.360    23173682.018
  23146983.836    -4676752.08543  -3635650.68742  23146984.200    23146978.413
  22834514.075   -14762288.55343 -11472190.56742  22834514.618    22834511.811
  20876781.870   -26689136.73543 -20785628.37842  20876783.189    20876779.192
  20638572.645   -27257790.00844 -21195866.64742  20638573.606    20638568.308
  21901514.076   -19607958.85443 -15172057.43942  21901515.712    21901511.296
  20769764.373   -25180215.56143 -19483016.91442  20769765.493    20769760.656
  23000488.897   -14146220.90643 -11010866.17642  23000490.026    23000485.536
 04  1 11  2 43 30.0000000  0  9G 2G29G22G15G 6G21G26G18G16
  25219991.296    -5642863.17543  -4287680.77642  25219992.128    25219989.244
  23179860.927   -10781766.92243  -8377509.98342  23179862.523    23179858.218
  23129424.267    -4769027.72743  -3707553.72842  23129424.661    23129418.894
  22821244.501   -14832020.30143 -11526526.95242  22821245.047    22821242.235
  20886770.521   -26636645.94344 -20744726.47142  20886771.865    20886767.877
  20636154.883   -27270495.39644 -21205766.94342  20636155.835    20636150.555
  21901089.253   -19610191.30243 -15173797.00042  21901090.894    21901086.459
  20761271.799   -25224844.29244 -19517792.53442  20761272.911    20761268.087
  22998979.369   -14154153.41443 -11017047.35342  22998980.482    22998976.015
 04  1 11  2 44  0.0000000  0  9G 2G29G22G15G 6G21G26G18G16
  25211613.345    -5686889.87343  -4321987.30542  25211614.174    25211611.169
  23186137.315   -10748784.01843  -8351809.02142  23186138.963    23186134.631
  23111913.744    -4861046.30543  -3779256.48042  23111914.095    23111908.330
  22807992.365   -14901660.63043 -11580792.11442  22807992.876    22807990.109
  20896843.935   -26583709.84043 -20703477.56542  20896845.248    20896841.278
  20633775.829   -27282997.27844 -21215508.66442  20633776.799    20633771.521
  21900788.354   -19611772.36143 -15175028.99142  21900790.024    21900785.610
  20752864.467   -25269025.06243 -19552219.09542  20752865.589    20752860.740
  22997574.583   -14161535.55943 -11022799.67842  22997575.714    22997571.213
 04  1 11  2 44 30.0000000  0  9G 2G29G22G15G 6G21G26G18G16
  25203310.187    -5730523.14943  -4355987.26042  25203311.060    25203308.030
  23192513.961   -10715274.40443  -8325697.62342  23192515.605    23192511.304
  23094452.409    -4952805.87043  -3850757.38442  23094452.776    23094447.025
  22794757.792   -14971208.59543 -11634985.31442  22794758.308    22794755.522
  20907002.092   -26530328.32943 -20661881.58542  20907003.426    20906999.469
  20631435.808   -27295294.15744 -21225090.63542  20631436.757    20631431.489
  21900611.718   -19612700.57743 -15175752.26342  21900613.361    21900608.970
  20744542.508   -25312757.13944 -19586296.02042  20744543.641    20744538.800
  22996274.666   -14168366.74543 -11028122.68542  22996275.792    22996271.276
 04  1 11  2 45  0.0000000  0  9G 2G29G22G15G 6G21G26G18G16
  25195082.265    -5773761.22843  -4389679.29142  25195083.175    25195080.154
  23198990.862   -10681237.99343  -8299175.74342  23198992.512    23198988.219
  23077040.867    -5044303.77843  -3922054.41042  23077041.243    23077035.498
  22781541.040   -15040662.89843 -11689105.50342  22781541.544    22781538.801
  20917245.097   -26476501.03543 -20619938.24842  20917246.435    20917242.465
  20629134.959   -27307385.18244 -21234512.20342  20629135.900    20629130.629
  21900559.604   -19612974.41643 -15175965.63042  21900561.266    21900556.853
  20736306.270   -25356038.89544 -19620022.04542  20736307.386    20736302.538
  22995079.641   -14174646.51343 -11033016.01042  22995080.752    22995076.257
 04  1 11  2 45 30.0000000  0  9G 2G29G22G15G 6G21G26G18G16
  25186930.318    -5816600.47343  -4423060.51142  25186931.023    25186927.881
  23205568.316   -10646673.16243  -8272242.09742  23205569.986    23205565.699
  23059679.937    -5135536.17743  -3993144.55842  23059680.288    23059674.507
  22768342.588   -15110021.00343 -11743150.74042  22768343.086    22768340.348
  20927573.249   -26422226.21743 -20577646.18942  20927574.604    20927570.626
  20626873.860   -27319267.34244 -21243771.02342  20626874.777    20626869.523
  21900632.572   -19612590.91743 -15175666.79142  21900634.236    21900629.817
  20728156.167   -25398867.85043 -19653395.24142  20728157.271    20728152.440
  22993990.004   -14180372.57443 -11037477.88842  22993991.129    22993986.626
 04  1 11  2 46  0.0000000  0  9G 2G29G22G15G 6G21G26G18G16
  25178852.591    -5859049.14243  -4456137.39342  25178853.261    25178850.318
  23212244.442   -10611589.94143  -8244904.52942  23212246.070    23212241.822
  23042367.988    -5226510.62943  -4064033.69142  23042368.378    23042362.616
  22755160.743   -15179291.74543 -11797127.89942  22755161.272    22755158.529
  20937984.704   -26367513.75444 -20535013.10642  20937986.059    20937982.071
  20624650.734   -27330950.00244 -21252874.39142  20624651.631    20624646.354
  21900829.048   -19611558.63643 -15174862.40742  21900830.696    21900826.243
  20720090.586   -25441252.62943 -19686422.32442  20720091.701    20720086.881
  22993003.978   -14185554.42043 -11041515.69442  22993005.031    22993000.545
 04  1 11  2 46 30.0000000  0  9G 2G29G22G15G 6G21G26G18G16
  25170851.069    -5901097.38043  -4488902.24842  25170851.832    25170848.887
  23219020.691   -10575980.60643  -8217156.98242  23219022.288    23219018.068
  23025107.126    -5317217.12643  -4134714.03242  23025107.497    23025101.737
  22741997.177   -15248466.43543 -11851030.22142  22741997.727    22741994.949
  20948480.946   -26312355.71943 -20492032.83242  20948482.295    20948478.289
  20622467.268   -27342424.23144 -21261815.34842  20622468.169    20622462.873
  21901150.668   -19609868.49343 -15173545.40642  21901152.333    21901147.870
  20712111.333   -25483183.82443 -19719095.97242  20712112.453    20712107.618
  22992123.067   -14190183.77243 -11045122.98842  22992124.131    22992119.578
 04  1 11  2 47  0.0000000  0  9G 2G29G22G15G 6G21G26G18G16
  25162925.250    -5942747.54743  -4521356.93342  25162926.066    25162923.217
  23225896.285   -10539849.27243  -8189002.69542  23225897.816    23225893.603
  23007896.898    -5407657.21943  -4205186.79042  23007897.243    23007891.485
  22728851.382   -15317547.88243 -11904859.87642  22728851.919    22728849.174
  20959061.226   -26256755.97043 -20448708.36142  20959062.575    20959058.586
  20620322.969   -27353692.48444 -21270595.79842  20620323.884    20620318.582
  21901596.999   -19607523.08743 -15171717.80442  21901598.673    21901594.191
  20704217.789   -25524664.67143 -19751418.69942  20704218.896    20704214.063
  22991346.618   -14194264.13743 -11048302.50342  22991347.675    22991343.159
 04  1 11  2 47 30.0000000  0  9G 2G29G22G15G 6G21G26G18G16
  25155075.300    -5983999.42043  -4553501.24842  25155076.097    25155073.206
  23232870.860   -10503197.43343  -8160442.81242  23232872.482    23232868.200
  22990737.503    -5497830.21643  -4275451.42642  22990737.846    22990732.095
  22715723.235   -15386536.64843 -11958617.31942  22715723.773    22715720.981
  20969725.318   -26200715.97843 -20405040.85242  20969726.623    20969722.639
  20618217.763   -27364755.41544 -21279216.25142  20618218.672    20618213.360
  21902167.959   -19604522.61043 -15169379.75842  21902169.615    21902165.154
  20696409.846   -25565695.65743 -19783390.88542  20696410.942    20696406.113
  22990674.461   -14197796.50643 -11051055.01342  22990675.545    22990670.969
 04  1 11  2 48  0.0000000  0  9G 2G29G22G15G 6G21G26G18G16
  25147301.961    -6024848.79643  -4585331.94142  25147302.726    25147299.856
  23239944.904   -10466022.96143  -8131475.69042  23239946.500    23239942.242
  22973629.875    -5587731.30543  -4345504.18642  22973630.229    22973624.437
  22702613.420   -15455429.17643 -12012299.77242  22702613.932    22702611.103
  20980473.627   -26144233.37043 -20361028.43742  20980474.934    20980470.926
  20616152.264   -27375609.52844 -21287673.99242  20616153.204    20616147.894
  21902864.310   -19600863.36943 -15166528.39542  21902865.923    21902861.471
  20688688.248   -25606272.93243 -19815009.52842  20688689.332    20688684.508
  22990107.128   -14200778.03643 -11053378.28342  22990108.211    22990103.628
 04  1 11  2 48 30.0000000  0  9G 2G29G22G15G 6G21G26G18G16
  25139604.360    -6065300.11843  -4616852.44242  25139605.153    25139602.236
  23247117.164   -10428332.24843  -8102106.29942  23247118.771    23247114.593
  22956573.196    -5677364.27243  -4415348.01142  22956573.552    22956567.805
  22689520.914   -15524230.64143 -12065911.27342  22689521.437    22689518.565
  20991304.975   -26087314.19843 -20316675.84142  20991306.314    20991302.287
  20614125.509   -27386260.09644 -21295973.12642  20614126.437    20614121.147
  21903685.029   -19596550.52243 -15163167.72142  21903686.638    21903682.177
  20681052.000   -25646401.66044 -19846278.65242  20681053.090    20681048.251
  22989643.503   -14203214.55343 -11055276.87342  22989644.606    22989639.971
 04  1 11  2 49  0.0000000  0  9G 2G29G22G15G 6G21G26G18G16
  25131983.710    -6105346.60243  -4648057.50642  25131984.605    25131981.672
  23254388.595   -10390120.44243  -8072330.87042  23254390.235    23254386.080
  22939568.966    -5766722.13643  -4484977.48242  22939569.290    22939563.549
  22676446.835   -15592935.17943 -12119447.23642  22676447.346    22676444.499
  21002220.381   -26029953.45143 -20271979.16642  21002221.719    21002217.671
  20612138.641   -27396701.07344 -21304108.94442  20612139.588    20612134.279
  21904631.299   -19591577.74743 -15159292.81742  21904632.916    21904628.478
  20673502.237   -25686075.86243 -19877193.60442  20673503.331    20673498.496
  22989284.546   -14205100.50643 -11056746.44442  22989285.666    22989281.072
 04  1 11  2 49 30.0000000  0  9G 2G29G22G15G 6G21G26G18G16
  25124439.412    -6144992.02943  -4678950.03942  25124440.297    25124437.377
  23261758.161   -10351393.13043  -8042153.73542  23261759.818    23261755.622
  22922616.372    -5855808.08643  -4554395.05942  22922616.736    22922610.981
  22663390.421   -15661546.92043 -12172910.90042  22663390.971    22663388.031
  21013218.756   -25972156.66743 -20226942.71642  21013220.097    21013216.040
  20610190.902   -27406936.57344 -21312084.65142  20610191.813    20610186.517
  21905702.320   -19585949.47943 -15154907.14142  21905703.955    21905699.494
  20666038.164   -25725299.92343 -19907757.78942  20666039.226    20666034.393
  22989029.461   -14206441.14143 -11057791.08342  22989030.567    22989025.954
 04  1 11  2 50  0.0000000  0  9G 2G29G22G15G 6G21G26G18G16
  25116972.096    -6184233.13943  -4709527.53742  25116972.961    25116970.074
  23269226.057   -10312149.17443  -8011574.03242  23269227.663    23269223.510
  22905716.323    -5944618.32143  -4623597.81342  22905716.676    22905710.900
  22650352.099   -15730063.50543 -12226300.40842  22650352.659    22650349.732
  21024300.346   -25913922.44843 -20181565.41842  21024301.688    21024297.644
  20608282.737   -27416964.01644 -21319898.24042  20608283.651    20608278.338
  21906898.563   -19579663.06143 -15150008.62442  21906900.215    21906895.745
  20658660.214   -25764071.15043 -19937969.12042  20658661.296    20658656.475
  22988878.463   -14207234.76143 -11058409.48142  22988879.543    22988874.935
 04  1 11  2 50 30.0000000  0  9G 2G29G22G15G 6G21G26G18G16
  25109581.763    -6223069.56843  -4739789.68342  25109582.697    25109579.766
  23276792.015   -10272390.03243  -7980592.86842  23276793.588    23276789.372
  22888868.930    -6033151.85343  -4692584.93942  22888869.282    22888863.540
  22637331.861   -15798484.94043 -12279615.77642  22637332.484    22637329.566
  21035464.978   -25855252.04043 -20135848.22142  21035466.304    21035462.235
  20606414.138   -27426783.65544 -21327549.90042  20606415.044    20606409.724
  21908220.014   -19572718.73943 -15144597.46542  21908221.667    21908217.205
  20651368.333   -25802390.15343 -19967828.06642  20651369.394    20651364.597
  22988831.340   -14207482.22943 -11058602.31242  22988832.441    22988827.828
 04  1 11  2 51  0.0000000  0  9G 2G29G22G15G 6G21G26G18G16
  25102268.881    -6261498.81143  -4769734.53842  25102269.832    25102267.012
  23284456.052   -10232115.23043  -7949209.90142  23284457.624    23284453.457
  22872074.769    -6121405.49243  -4761353.97142  22872075.112    22872069.414
  22624330.079   -15866809.54543 -12332855.69242  22624330.750    22624327.755
  21046712.770   -25796144.54843 -20089790.44142  21046714.107    21046710.025
  20604585.444   -27436393.63044 -21335038.18242  20604586.341    20604580.993
  21909667.032   -19565114.58443 -15138672.13642  21909668.675    21909664.227
  20644162.967   -25840254.48143 -19997332.72242  20644164.026    20644159.261
  22988888.336   -14207182.51643 -11058368.77442  22988889.432    22988884.885
 04  1 11  2 51 30.0000000  0  9G 2G29G22G15G 6G21G26G18G16
  25095032.478    -6299526.38543  -4799366.41342  25095033.440    25095030.588
  23292216.788   -10191332.17943  -7917430.89942  23292218.331    23292214.198
  22855332.907    -6209384.33243  -4829908.87842  22855333.260    22855327.562
  22611345.568   -15935043.45143 -12386024.92642  22611346.249    22611343.218
  21058042.342   -25736607.20843 -20043397.71542  21058043.689    21058039.634
  20602795.474   -27445799.85344 -21342367.70142  20602796.392    20602791.026
  21911238.459   -19556856.80143 -15132237.49242  21911240.065    21911235.634
  20637042.857   -25877670.78643 -20026488.27042  20637043.931    20637039.147
  22989048.172   -14206342.46143 -11057714.19042  22989049.280    22989044.719
 04  1 11  2 52  0.0000000  0  9G 2G29G22G15G 6G21G26G18G16
  25087874.245    -6337143.29343  -4828678.28642  25087875.122    25087872.259
  23300075.582   -10150034.07243  -7885250.55542  23300077.101    23300073.030
  22838645.115    -6297078.77343  -4898242.16342  22838645.489    22838639.857
  22598379.916   -16003178.14943 -12439116.85642  22598380.631    22598377.570
  21069455.117   -25676632.71443 -19996664.35642  21069456.456    21069452.402
  20601045.855   -27454994.05944 -21349532.00742  20601046.778    20601041.434
  21912935.837   -19547937.03043 -15125287.01342  21912937.444    21912932.973
  20630009.622   -25914630.64743 -20055288.14942  20630010.693    20630005.896
  22989312.292   -14204954.67143 -11056632.80542  22989313.362    22989308.840
 04  1 11  2 52 30.0000000  0  9G 2G29G22G15G 6G21G26G18G16
  25080793.203    -6374354.47843  -4857674.01242  25080794.016    25080791.219
  23308031.114   -10108227.31743  -7852673.85942  23308032.713    23308028.546
  22822010.719    -6384493.28443  -4966357.34242  22822011.067    22822005.366
  22585432.118   -16071219.08643 -12492135.73842  22585432.833    22585429.770
  21080949.808   -25616227.70943 -19949595.53042  21080951.151    21080947.113
  20599335.595   -27463981.45544 -21356535.16542  20599336.513    20599331.178
  21914758.157   -19538360.67943 -15117824.91842  21914759.764    21914755.309
  20623062.205   -25951139.56843 -20083736.64542  20623063.262    20623058.472
  22989679.482   -14203025.16743 -11055129.29942  22989680.528    22989676.062
 04  1 11  2 53  0.0000000  0  9G 2G29G22G15G 6G21G26G18G16
  25073790.059    -6411155.82743  -4886350.37942  25073790.926    25073788.149
  23316083.853   -10065910.04443  -7819699.37042  23316085.366    23316081.257
  22805430.386    -6471623.06343  -5034250.63542  22805430.736    22805425.087
  22572502.820   -16139162.77943 -12545078.83742  22572503.598    22572500.515
  21092526.861   -25555389.90543 -19902189.45642  21092528.197    21092524.169
  20597665.394   -27472758.48544 -21363374.40342  20597666.282    20597660.955
  21916706.051   -19528124.51543 -15109848.67742  21916707.664    21916703.163
  20616201.311   -25987193.85943 -20111830.88842  20616202.360    20616197.537
  22990150.214   -14200551.47643 -11053201.74342  22990151.226    22990146.793
 04  1 11  2 53 30.0000000  0  9G 2G29G22G15G 6G21G26G18G16
  25066864.624    -6447549.28343  -4914708.90642  25066865.468    25066862.672
  23324233.058   -10023085.82543  -7786329.82842  23324234.568    23324230.427
  22788904.141    -6558469.25043  -5101922.95742  22788904.451    22788898.759
  22559591.613   -16207011.34343 -12597947.81242  22559592.424    22559589.327
  21104185.625   -25494122.81843 -19854448.87442  21104186.939    21104182.918
  20596034.767   -27481327.45744 -21370051.51642  20596035.656    20596030.338
  21918778.989   -19517231.04843 -15101360.25042  21918780.609    21918776.116
  20609426.422   -26022796.21943 -20139572.97542  20609427.462    20609422.608
  22990723.935   -14197536.68443 -11050852.55742  22990724.949    22990720.500
 04  1 11  2 54  0.0000000  0  9G 2G29G22G15G 6G21G26G18G16
  25060017.089    -6483533.14043  -4942748.27942  25060017.985    25060015.191
  23332478.563    -9979755.26743  -7752565.75542  23332480.108    23332476.002
  22772432.167    -6645029.81043  -5169372.70842  22772432.478    22772426.782
  22546698.749   -16274763.68543 -12650741.80442  22546699.595    22546696.497
  21115926.025   -25432426.56643 -19806373.87942  21115927.367    21115923.326
  20594443.965   -27489687.13544 -21376565.54342  20594444.867    20594439.515
  21920977.173   -19505679.33543 -15092358.90842  21920978.795    21920974.323
  20602737.716   -26057945.54243 -20166962.04842  20602738.752    20602733.895
  22991400.636   -14193980.65543 -11048081.63542  22991401.658    22991397.197
 04  1 11  2 54 30.0000000  0  9G 2G29G22G15G 6G21G26G18G16
  25053247.840    -6519105.59343  -4970467.06142  25053248.729    25053245.936
  23340820.404    -9935918.57843  -7718407.29042  23340821.988    23340817.826
  22756015.020    -6731302.37243  -5236598.03942  22756015.325    22756009.607
  22533824.470   -16342418.59243 -12703459.88542  22533825.281    22533822.143
  21127748.103   -25370301.13643 -19757964.45942  21127749.441    21127745.402
  20592893.270   -27497836.19644 -21382915.45842  20592894.141    20592888.792
  21923300.835   -19493468.36143 -15082843.85642  21923302.472    21923297.966
  20596135.339   -26092641.11843 -20193997.55042  20596136.405    20596131.543
  22992180.374   -14189883.21543 -11044888.82842  22992181.395    22992176.939
 04  1 11  2 55  0.0000000  0  9G 2G29G22G15G 6G21G26G18G16
  25046556.917    -6554266.67243  -4997865.30242  25046557.777    25046555.063
  23349258.243    -9891577.81943  -7683856.05042  23349259.784    23349255.578
  22739652.802    -6817286.20443  -5303598.38942  22739653.148    22739647.397
  22520968.601   -16409976.53343 -12756102.40042  22520969.414    22520966.261
  21139651.527   -25307748.18543 -19709221.90642  21139652.881    21139648.857
  20591382.503   -27505775.20744 -21389101.69842  20591383.397    20591378.031
  21925749.799   -19480598.96243 -15072815.75142  21925751.416    21925746.903
  20589619.242   -26126883.44643 -20220679.87742  20589620.290    20589615.420
  22993062.865   -14185245.71243 -11041275.20142  22993063.896    22993059.420
 04  1 11  2 55 30.0000000  0  9G 2G29G22G15G 6G21G26G18G16
  25039943.683    -6589019.33643  -5024945.29242  25039944.503    25039941.779
  23357791.047    -9846737.72743  -7648915.71342  23357792.584    23357788.349
  22723345.066    -6902983.77243  -5370375.68042  22723345.381    22723339.621
  22508130.516   -16477440.99743 -12808672.07642  22508131.343    22508128.169
  21151635.409   -25244772.48443 -19660149.93942  21151636.734    21151632.760
  20589911.040   -27513507.65544 -21395126.97742  20589911.938    20589906.586
  21928323.350   -19467074.79043 -15062277.42942  21928324.939    21928320.492
  20583188.726   -26160675.92143 -20247011.66342  20583189.790    20583184.924
  22994047.239   -14180072.79543 -11037244.35942  22994048.249    22994043.794
 04  1 11  2 56  0.0000000  0  9G 2G29G22G15G 6G21G26G18G16
  25033409.812    -6623355.15243  -5051700.47842  25033410.657    25033407.908
  23366420.067    -9801391.88843  -7613581.29542  23366421.618    23366417.312
  22707093.597    -6988386.02443  -5436922.85442  22707093.874    22707088.091
  22495311.803   -16544803.84343 -12861162.57542  22495312.629    22495309.388
  21163701.047   -25181367.18643 -19610743.22242  21163702.378    21163698.383
  20588480.506   -27521025.04344 -21400984.68142  20588481.413    20588476.070
  21931022.946   -19452888.21443 -15051222.94942  21931024.559    21931020.091
  20576845.299   -26194010.83643 -20272986.91042  20576846.364    20576841.487
  22995134.900   -14174357.39643 -11032790.80942  22995135.913    22995131.432
 04  1 11  2 56 30.0000000  0  9G 2G29G22G15G 6G21G26G18G16
  25026954.407    -6657278.50643  -5078134.24642  25026955.207    25026952.518
  23375144.149    -9755546.70743  -7577857.77542  23375145.640    23375141.328
  22690897.518    -7073496.61443  -5503242.74942  22690897.835    22690892.069
  22482511.505   -16612069.86443 -12913577.62442  22482512.288    22482509.076
  21175847.284   -25117538.34843 -19561006.47142  21175848.597    21175844.611
  20587090.016   -27528332.09144 -21406678.47842  20587090.944    20587085.577
  21933847.634   -19438044.36343 -15039656.29842  21933849.252    21933844.770
  20570587.981   -26226893.36643 -20298609.64642  20570589.037    20570584.154
  22996324.595   -14168105.24943 -11027919.01142  22996325.647    22996321.165
 04  1 11  2 57  0.0000000  0  9G 2G29G22G15G 6G21G26G18G16
  25020577.343    -6690790.18343  -5104247.23542  25020578.090    25020575.447
  23383962.640    -9709205.04843  -7541747.38742  23383964.156    23383959.880
  22674756.977    -7158315.63343  -5569335.46442  22674757.312    22674751.474
  22469729.412   -16679240.02143 -12965917.97042  22469730.206    22469726.996
  21188073.613   -25053288.57543 -19510941.71942  21188074.934    21188070.938
  20585739.265   -27535430.42744 -21412209.64542  20585740.173    20585734.798
  21936797.075   -19422544.97143 -15027578.84442  21936798.701    21936794.195
  20564416.462   -26259324.81743 -20323880.88842  20564417.521    20564412.642
  22997616.042   -14161318.70443 -11022630.80642  22997617.068    22997612.629
 04  1 11  2 57 30.0000000  0  9G 2G29G22G15G 6G21G26G18G16
  25014279.418    -6723886.03943  -5130036.20942  25014280.220    25014277.596
  23392876.020    -9662364.72843  -7505248.42942  23392877.571    23392873.277
  22658672.719    -7242838.75643  -5635197.60542  22658673.040    22658667.278
  22456966.272   -16746310.76943 -13018180.85542  22456967.049    22456963.850
  21200380.513   -24988615.43243 -19460547.07042  21200381.810    21200377.843
  20584429.015   -27542315.73244 -21417574.82142  20584429.944    20584424.559
  21939871.870   -19406386.71743 -15014987.98742  21939873.511    21939869.023
  20558331.459   -26291301.71543 -20348797.94142  20558332.506    20558327.630
  22999009.636   -14153995.32243 -11016924.27942  22999010.708    22999006.226
 04  1 11  2 58  0.0000000  0  9G 2G29G22G15G 6G21G26G18G16
  25008060.732    -6756565.52343  -5155500.73042  25008061.533    25008058.871
  23401884.108    -9615027.04943  -7468361.92342  23401885.638    23401881.294
  22642645.147    -7327064.21743  -5700827.80142  22642645.466    22642639.659
  22444222.055   -16813281.96943 -13070366.18042  22444222.814    22444219.650
  21212767.746   -24923520.03643 -19409823.39342  21212769.066    21212765.101
  20583159.374   -27548987.75544 -21422773.79542  20583160.291    20583154.894
  21943072.031   -19389569.64043 -15001883.75642  21943073.690    21943069.189
  20552332.944   -26322824.05043 -20373360.78542  20552333.988    20552329.099
  23000505.282   -14146135.78143 -11010799.97342  23000506.377    23000501.839
 04  1 11  2 58 30.0000000  0  9G 2G29G22G15G 6G21G26G18G16
  25001920.688    -6788831.57543  -5180643.10242  25001921.468    25001918.840
  23410985.916    -9567196.72143  -7431091.54342  23410987.451    23410983.070
  22626673.719    -7410994.42043  -5766227.93742  22626674.028    22626668.202
  22431496.257   -16880156.57243 -13122476.22342  22431496.988    22431493.806
  21225234.479   -24858007.00543 -19358774.28942  21225235.779    21225231.822
  20581929.748   -27555449.43944 -21427808.86842  20581930.667    20581925.270
  21946396.834   -19372097.50643 -14988269.10042  21946398.520    21946394.006
  20546420.286   -26353895.25743 -20397572.10342  20546421.330    20546416.425
  23002102.099   -14137744.49943 -11004261.32042  23002103.167    23002098.623
 04  1 11  2 59  0.0000000  0  9G 2G29G22G15G 6G21G26G18G16
  24995859.831    -6820681.61243  -5205461.29742  24995860.596    24995857.978
  23420181.508    -9518873.55143  -7393437.12242  23420183.013    23420178.711
  22610759.101    -7494626.09843  -5831395.43842  22610759.414    22610753.657
  22418789.222   -16946932.34943 -13174509.26942  22418789.924    22418786.779
  21237780.827   -24792075.48943 -19307399.09542  21237782.150    21237778.161
  20580740.522   -27561698.76444 -21432678.46742  20580741.448    20580736.057
  21949846.639   -19353968.78043 -14974142.80942  21949848.263    21949843.790
  20540593.780   -26384513.59343 -20421430.53342  20540594.850    20540589.934
  23003800.301   -14128820.44443 -10997307.52742  23003801.388    23003796.834
 04  1 11  2 59 30.0000000  0  9G 2G29G22G15G 6G21G26G18G16
  24989878.681    -6852112.85343  -5229953.16542  24989879.444    24989876.885
  23429471.039    -9470056.68443  -7355398.00742  23429472.560    23429468.245
  22594901.940    -7577955.88143  -5896327.71942  22594902.265    22594896.443
  22406101.456   -17013606.91743 -13226463.44242  22406102.131    22406099.007
  21250407.020   -24725724.38843 -19255696.95242  21250408.348    21250404.381
  20579592.211   -27567733.32744 -21437380.72042  20579593.117    20579587.723
  21953421.709   -19335181.51043 -14959503.37942  21953423.351    21953418.876
  20534853.917   -26414676.77243 -20444934.29742  20534854.969    20534850.055
  23005600.132   -14119362.30243 -10989937.54442  23005601.221    23005596.684
 04  1 11  3  0  0.0000000  0  9G 2G29G22G15G 6G21G26G18G16
  24983976.851    -6883127.32643  -5254120.28542  24983977.525    24983975.062
  23438853.726    -9420750.01343  -7316977.22742  23438855.274    23438851.026
  22579101.891    -7660985.44143  -5961026.04442  22579102.195    22579096.417
  22393432.514   -17080182.60443 -13278340.56142  22393433.178    22393430.063
  21263112.329   -24658957.52743 -19203670.83942  21263113.658    21263109.718
  20578484.287   -27573555.49344 -21441917.47142  20578485.212    20578479.776
  21957121.565   -19315738.66443 -14944353.10442  21957123.207    21957118.719
  20529200.105   -26444387.54043 -20468085.53242  20529201.184    20529196.271
  23007500.820   -14109373.93643 -10982154.41042  23007501.920    23007497.430
 04  1 11  3  0 30.0000000  0  9G 2G29G22G15G 6G21G26G18G16
  24978154.550    -6913723.76943  -5277961.65742  24978155.091    24978152.730
  23448329.497    -9370954.46643  -7278175.50042  23448331.111    23448326.823
  22563359.493    -7743712.52743  -6025488.68142  22563359.777    22563353.958
  22380782.614   -17146658.25943 -13330139.73642  22380783.239    22380780.134
  21275896.686   -24591775.37243 -19151321.12242  21275898.013    21275894.068
  20577417.103   -27579163.57044 -21446287.39742  20577418.042    20577412.610
  21960946.238   -19295639.96943 -14928691.77442  21960947.859    21960943.350
  20523632.517   -26473645.34243 -20490883.81042  20523633.600    20523628.687
  23009502.410   -14098855.59243 -10973958.30642  23009503.510    23009499.019
 04  1 11  3  1  0.0000000  0  9G 2G29G22G15G 6G21G26G18G16
  24972411.386    -6943904.28043  -5301478.93542  24972412.020    24972409.523
  23457897.613    -9320673.86843  -7238995.82542  23457899.216    23457894.910
  22547674.295    -7826138.53643  -6089716.71342  22547674.588    22547668.767
  22368151.314   -17213036.19943 -13381862.76542  22368151.944    22368148.795
  21288759.371   -24524181.57343 -19098650.63542  21288760.705    21288756.765
  20576390.158   -27584560.15944 -21450492.52442  20576391.085    20576385.661
  21964895.168   -19274888.35443 -14912521.67842  21964896.769    21964892.241
  20518150.584   -26502453.04643 -20513331.35742  20518151.651    20518146.758
  23011604.206   -14087810.68343 -10965351.89642  23011605.254    23011600.846
 04  1 11  3  1 30.0000000  0  9G 2G29G22G15G 6G21G26G18G16
  24966747.589    -6973667.84243  -5324671.30642  24966748.219    24966745.663
  23467557.769    -9269909.36743  -7199439.06542  23467559.369    23467555.059
  22532046.722    -7908261.88643  -6153708.90342  22532047.009    22532041.213
  22355538.767   -17279315.43543 -13433508.88042  22355539.411    22355536.227
  21301700.241   -24456176.99043 -19045660.06142  21301701.567    21301697.613
  20575403.623   -27589744.46244 -21454532.23542  20575404.548    20575399.113
  21968968.331   -19253483.71743 -14895842.73342  21968969.933    21968965.423
  20512754.370   -26530810.30243 -20535427.91142  20512755.457    20512750.546
  23013806.105   -14076239.70343 -10956335.56742  23013807.137    23013802.710
 04  1 11  3  2  0.0000000  0  9G 2G29G22G15G 6G21G26G18G16
  24961163.989    -7003009.61143  -5347535.02742  24961164.626    24961162.142
  23477310.581    -9218658.23543  -7159503.11142  23477312.144    23477307.852
  22516477.813    -7990076.89043  -6217460.83542  22516478.087    22516472.300
  22342945.879   -17345491.36343 -13485074.50042  22342946.560    22342943.334
  21314719.894   -24387758.30843 -18992346.81642  21314721.213    21314717.281
  20574458.394   -27594711.74144 -21458402.83642  20574459.307    20574453.881
  21973166.487   -19231422.19843 -14878651.93442  21973168.099    21973163.580
  20507444.629   -26558713.05443 -20557170.30242  20507445.717    20507440.810
  23016108.706   -14064139.47843 -10946906.81642  23016109.744    23016105.336
 04  1 11  3  2 30.0000000  0  9G 2G29G22G15G 6G21G26G18G16
  24955660.406    -7031931.09443  -5370071.23342  24955661.054    24955658.520
  23487155.334    -9166923.72243  -7119190.50442  23487156.878    23487152.558
  22500967.456    -8071584.36143  -6280973.13742  22500967.757    22500961.887
  22330372.312   -17411565.61243 -13536560.89142  22330373.020    22330369.789
  21327817.740   -24318928.80343 -18938713.45442  21327819.042    21327815.096
  20573554.229   -27599463.21144 -21462105.27942  20573555.128    20573549.690
  21977489.205   -19208706.14143 -14860951.10542  21977490.806    21977486.312
  20502221.105   -26586162.93343 -20578559.80742  20502222.160    20502217.251
  23018511.441   -14051512.98843 -10937067.99442  23018512.471    23018508.061
 04  1 11  3  3  0.0000000  0  9G 2G29G22G15G 6G21G26G18G16
  24950236.611    -7060433.24143  -5392280.70142  24950237.245    24950234.700
  23497091.477    -9114709.11943  -7078503.81142  23497092.994    23497088.680
  22485515.489    -8152784.82743  -6344246.19342  22485515.781    22485510.000
  22317817.920   -17477539.25143 -13587968.89042  22317818.627    22317815.384
  21340993.209   -24249691.18043 -18884762.07442  21340994.544    21340990.570
  20572690.922   -27603999.86744 -21465640.33442  20572691.821    20572686.390
  21981935.995   -19185337.81743 -14842742.01842  21981937.649    21981933.147
  20497083.415   -26613161.66643 -20599597.76842  20497084.480    20497079.540
  23021013.831   -14038363.04043 -10926821.28942  23021014.823    23021010.397
 04  1 11  3  3 30.0000000  0  9G 2G29G22G15G 6G21G26G18G16
  24944892.792    -7088514.95243  -5414162.55142  24944893.481    24944890.932
  23507118.846    -9062015.15143  -7037443.56142  23507120.308    23507116.047
  22470122.403    -8233676.20643  -6407278.43342  22470122.676    22470116.799
  22305282.897   -17543411.02843 -13639297.51342  22305283.596    22305280.359
  21354246.262   -24180045.99343 -18830493.11842  21354247.577    21354243.603
  20571868.611   -27608321.16244 -21469007.57142  20571869.492    20571864.075
  21986507.006   -19161316.79243 -14824024.32942  21986508.704    21986504.202
  20492031.625   -26639708.99943 -20620283.98542  20492032.668    20492027.755
  23023615.746   -14024689.94343 -10916166.93642  23023616.779    23023612.339
 04  1 11  3  4  0.0000000  0  9G 2G29G22G15G 6G21G26G18G16
  24939629.175    -7116175.25443  -5435716.02742  24939629.855    24939627.443
  23517237.181    -9008842.75043  -6996010.52642  23517238.680    23517234.423
  22454788.340    -8314256.89243  -6470068.54942  22454788.619    22454782.810
  22292767.383   -17609180.33043 -13690546.28042  22292768.111    22292764.833
  21367576.718   -24109994.00543 -18775907.17342  21367578.036    21367574.072
  20571087.467   -27612426.01344 -21472206.15242  20571088.358    20571082.954
  21991202.194   -19136643.41943 -14804798.32342  21991203.835    21991199.379
  20487065.854   -26665804.27943 -20640617.95942  20487066.896    20487061.974
  23026317.105   -14010494.36043 -10905105.45342  23026318.137    23026313.684
 04  1 11  3  4 30.0000000  0  9G 2G29G22G15G 6G21G26G18G16
  24934445.398    -7143416.00143  -5456942.57842  24934446.065    24934443.668
  23527445.825    -8955196.07343  -6954207.92642  23527447.323    23527443.040
  22439513.238    -8394528.18043  -6532617.58542  22439513.504    22439507.694
  22280271.006   -17674849.03643 -13741716.67442  22280271.766    22280268.452
  21380983.866   -24039538.87843 -18721007.09542  21380985.194    21380981.261
  20570347.167   -27616316.26944 -21475237.51542  20570348.065    20570342.672
  21996020.990   -19111320.38343 -14785066.08242  21996022.623    21996018.205
  20482185.496   -26691450.66143 -20660602.14242  20482186.547    20482181.615
  23029117.178   -13995779.76943 -10893639.54642  23029118.269    23029113.778
 04  1 11  3  5  0.0000000  0  9G 2G29G22G15G 6G21G26G18G16
  24929342.028    -7170234.25943  -5477839.92242  24929342.721    24929340.430
  23537744.912    -8901074.04743  -6912034.92342  23537746.395    23537742.129
  22424297.674    -8474486.25743  -6594922.56042  22424297.970    22424292.081
  22267794.318   -17740414.36443 -13792806.51142  22267795.088    22267791.734
  21394468.020   -23968679.27543 -18665791.82942  21394469.329    21394465.400
  20569648.241   -27619989.15544 -21478099.50042  20569649.121    20569643.746
  22000963.739   -19085345.99843 -14764826.29942  22000965.395    22000960.958
  20477391.068   -26716645.36143 -20680234.36542  20477392.139    20477387.214
  23032016.325   -13980544.66143 -10881768.03942  23032017.401    23032012.898
 04  1 11  3  5 30.0000000  0  9G 2G29G22G15G 6G21G26G18G16
  24924318.809    -7196631.39243  -5498409.12142  24924319.585    24924317.225
  23548133.820    -8846480.01143  -6869494.12042  23548135.304    23548131.022
  22409141.627    -8554131.84843  -6656984.03442  22409141.940    22409136.054
  22255337.053   -17805877.64743 -13843816.82842  22255337.808    22255334.437
  21408028.559   -23897418.19943 -18610263.72742  21408029.865    21408025.951
  20568990.446   -27623445.73444 -21480792.93442  20568991.351    20568985.982
  22006030.042   -19058722.45343 -14744080.66842  22006031.695    22006027.209
  20472682.300   -26741390.09743 -20699515.96842  20472683.377    20472678.451
  23035013.926   -13964792.15543 -10869493.36442  23035015.041    23035010.519
 04  1 11  3  6  0.0000000  0  9G 2G29G22G15G 6G21G26G18G16
  24919375.906    -7222606.50743  -5518649.47842  24919376.675    24919374.354
  23558612.296    -8791415.10743  -6826586.40642  23558613.814    23558609.506
  22394045.366    -8633463.19743  -6718800.65742  22394045.662    22394039.749
  22242899.408   -17871237.76943 -13894746.76642  22242900.190    22242896.797
  21421665.316   -23825756.44143 -18554423.40342  21421666.651    21421662.762
  20568374.055   -27626684.94044 -21483316.98642  20568374.941    20568369.580
  22011219.817   -19031450.02343 -14722829.41542  22011221.453    22011216.969
  20468059.116   -26765685.14543 -20718447.15942  20468060.178    20468055.256
  23038109.836   -13948522.95143 -10856816.06942  23038110.962    23038106.489
 04  1 11  3  6 30.0000000  0  9G 2G29G22G15G 6G21G26G18G16
  24914513.916    -7248156.42943  -5538558.50742  24914514.648    24914512.328
  23569180.643    -8735878.04043  -6783310.76542  23569182.182    23569177.824
  22379009.714    -8712476.37443  -6780369.35942  22379009.971    22379004.032
  22230482.056   -17936491.34643 -13945593.68042  22230482.844    22230479.430
  21435378.624   -23753692.47043 -18498269.66542  21435379.979    21435376.078
  20567799.598   -27629703.75744 -21485669.30942  20567800.491    20567795.109
  22016533.474   -19003526.51743 -14701070.83442  22016535.099    22016530.637
  20463522.035   -26789527.60243 -20737025.68942  20463523.113    20463518.164
  23041304.391   -13931735.35443 -10843734.84442  23041305.521    23041301.051
 04  1 11  3  7  0.0000000  0 10G 3G 2G29G22G15G 6G21G26G18G16
  24563318.994    -4149844.52853  -3035318.15252  24563319.967    24563316.612
  24909731.075    -7273290.74443  -5558143.69942  24909731.753    24909729.409
  23579836.650    -8679880.54943  -6739676.37742  23579838.144    23579833.684
  22364032.881    -8791179.86343  -6841696.71742  22364033.147    22364027.277
  22218083.107   -18001648.16043 -13996365.20042  22218083.904    22218080.445
  21449166.386   -23681237.51743 -18441811.26842  21449167.714    21449163.817
  20567265.331   -27632511.41744 -21487857.09742  20567266.206    20567260.845
  22021968.999   -18974962.51943 -14678813.17242  22021970.651    22021966.183
  20459069.149   -26812927.56543 -20755259.41942  20459070.269    20459065.309
  23044595.450   -13914440.50843 -10830258.33742  23044596.601    23044592.152
 04  1 11  3  7 30.0000000  0 10G 3G 2G29G22G15G 6G21G26G18G16
  24544126.768    -4250700.06543  -3113906.86142  24544127.765    24544124.463
  24905029.704    -7297996.81343  -5577395.19142  24905030.368    24905027.982
  23590582.291    -8623411.73043  -6695674.69042  23590583.849    23590579.327
  22349117.551    -8869560.70743  -6902772.69242  22349117.800    22349111.803
  22205705.019   -18066695.46143 -14047051.38342  22205705.789    22205702.341
  21463030.600   -23608380.67543 -18385039.71442  21463031.931    21463028.034
  20566773.641   -27635095.32944 -21489870.53142  20566774.512    20566769.132
  22027528.615   -18945746.51843 -14656047.45842  22027530.261    22027525.818
  20454702.779   -26835873.07243 -20773139.02942  20454703.869    20454698.936
  23047985.183   -13896627.40143 -10816378.00542  23047986.316    23047981.821
 04  1 11  3  8  0.0000000  0 10G 3G 2G29G22G15G 6G21G26G18G16
  24524957.344    -4351436.26143  -3192402.56842  24524958.427    24524955.078
  24900408.871    -7322279.58543  -5596316.84342  24900409.576    24900407.162
  23601416.268    -8566478.60443  -6651311.22642  23601417.867    23601413.359
  22334262.757    -8947622.91643  -6963600.36142  22334263.007    22334257.102
  22193346.889   -18131637.90543 -14097655.86042  22193347.626    22193344.164
  21476970.089   -23535128.32943 -18327959.97942  21476971.400    21476967.493
  20566323.662   -27637460.01144 -21491713.14042  20566324.521    20566319.145
  22033211.136   -18915884.57743 -14632778.40442  22033212.780    22033208.395
  20450421.777   -26858369.85643 -20790668.98342  20450422.869    20450417.931
  23051472.259   -13878302.71843 -10802099.03842  23051473.426    23051468.932
 04  1 11  3  8 30.0000000  0 10G 3G 2G29G22G15G 6G21G26G18G16
  24505810.929    -4452050.70543  -3270803.40742  24505811.973    24505808.656
  24895868.653    -7346138.50043  -5614908.21242  24895869.387    24895866.983
  23612338.329    -8509082.70743  -6606587.15142  23612339.938    23612335.442
  22319468.878    -9025365.34743  -7024178.87042  22319469.125    22319463.150
  22181008.770   -18196474.96243 -14148178.21742  22181009.511    22181006.057
  21490984.572   -23461481.84343 -18270573.11742  21490985.888    21490981.976
  20565915.449   -27639605.09144 -21493384.62642  20565916.326    20565910.945
  22039016.487   -18885377.43243 -14609006.60042  22039018.089    22039013.730
  20446226.138   -26880418.06343 -20807849.39342  20446227.237    20446222.294
  23055056.520   -13859467.66243 -10787422.38342  23055057.666    23055053.164
 04  1 11  3  9  0.0000000  0 10G 3G 2G29G22G15G 6G21G26G18G16
  24486688.155    -4552540.94043  -3349107.45242  24486689.205    24486685.896
  24891409.164    -7369573.26843  -5633169.07442  24891409.881    24891407.469
  23623348.200    -8451225.63143  -6561503.71742  23623349.814    23623345.250
  22304736.052    -9102786.52043  -7084507.02942  22304736.305    22304730.345
  22168690.826   -18261205.91843 -14198617.90142  22168691.583    22168688.141
  21505073.793   -23387442.42643 -18212880.07842  21505075.113    21505071.218
  20565549.174   -27641529.82344 -21494884.41242  20565550.061    20565544.681
  22044944.429   -18854225.77343 -14584732.58242  22044946.052    22044941.691
  20442115.866   -26902017.65743 -20824680.23342  20442116.944    20442112.010
  23058737.618   -13840123.28043 -10772348.84142  23058738.748    23058734.280
 04  1 11  3  9 30.0000000  0 10G 3G 2G29G22G15G 6G21G26G18G16
  24467589.591    -4652904.16543  -3427312.52642  24467590.656    24467587.346
  24887030.509    -7392583.22843  -5651098.93042  24887031.146    24887028.842
  23634445.521    -8392908.74643  -6516061.99942  23634447.144    23634442.552
  22290064.682    -9179885.22643  -7144583.91242  22290064.931    22290058.983
  22156393.217   -18325830.06043 -14248974.35642  22156393.997    22156390.522
  21519237.613   -23313011.01743 -18154881.59242  21519238.939    21519235.056
  20565224.968   -27643233.46944 -21496211.92542  20565225.859    20565220.473
  22050994.893   -18822430.09143 -14559956.72442  22050996.557    22050992.199
  20438090.964   -26923168.58343 -20841161.46442  20438092.050    20438087.108
  23062515.477   -13820270.37043 -10756879.05142  23062516.591    23062512.114
 04  1 11  3 10  0.0000000  0 10G 3G 2G29G22G15G 6G21G26G18G16
  24448514.560    -4753144.28643  -3505421.68942  24448515.728    24448512.144
  24882731.593    -7415174.30943  -5668702.37342  24882732.302    24882729.885
  23645628.793    -8334140.16943  -6470268.29842  23645630.506    23645625.865
  22275453.573    -9256666.82643  -7204413.71442  22275453.801    22275447.820
  22144114.873   -18390353.08743 -14299252.01642  22144115.613    22144112.171
  21533474.593   -23238195.26543 -18096583.62142  21533475.925    21533472.031
  20564941.722   -27644721.84244 -21497371.69142  20564942.614    20564937.254
  22057166.600   -18789997.59243 -14534684.64342  22057168.244    22057163.914
  20434150.163   -26943877.59743 -20857298.35042  20434151.228    20434146.292
  23066388.703   -13799916.89243 -10741019.19442  23066389.831    23066385.204
 04  1 11  3 10 30.0000000  0 11G 3G 2G29G22G23G15G 6G21G26G18G16
  24429465.367    -4853248.39543  -3583424.86142  24429466.479    24429462.997
  24878514.439    -7437335.48543  -5685970.82542  24878515.170    24878512.711
  23656899.861    -8274910.40643  -6424115.22842  23656901.532    23656896.851
  22260905.194    -9333119.26843  -7263987.02642  22260905.410    22260899.454
  23350644.724     -236629.68753   -178830.76052  23350645.654    23350642.209
  22131857.907   -18454763.79143 -14349442.14742  22131858.614    22131855.190
  21547786.486   -23162985.89043 -18037978.92942  21547787.807    21547783.910
  20564701.635   -27645983.38744 -21498354.70942  20564702.552    20564697.178
  22063461.376   -18756918.30743 -14508908.57442  22063462.994    22063458.714
  20430295.377   -26964134.43843 -20873082.89642  20430296.475    20430291.534
  23070358.845   -13779053.39943 -10724761.93642  23070360.005    23070355.436
